[[{"header":{"parameterUnit":"m.s-1","parameterCategory":1,"la1":30.6,"la2":28.766,"lo1":-90.7593,"lo2":-88.6598,"dy":0.0162,"dx":0.0183,"nx":116,"ny":114,"refTime":"2024-07-03T00:00:00:Z","depth":0,"parameterNumber":2,"parameterNumberName":"U-component_of_WINDS"},"data":[0.0,0.0,0.0,0.0,0.0,0.0,0.0,0.0,0.0,0.0,0.0,0.0,0.0,0.0,0.0,0.0,0.0,0.0,0.0,0.0,0.0,0.0,0.0,0.0,0.0,0.0,0.0,0.0,0.0,0.0,0.0,0.0,0.0,0.0,0.0,0.0,0.0,0.0,0.0,0.0,0.0,0.0,0.0,0.0,0.0,0.0,0.0,0.0,0.0,0.0,0.0,0.0,0.0,0.0,0.0,0.0,0.0,0.0,0.0,0.0,0.0,0.0,0.0,0.0,0.0,0.0,0.0,0.0,0.0,0.0,0.0,0.0,0.0,0.0,0.0,0.0,0.0,0.0,0.0,0.0,0.0,0.0,0.0,0.0,0.0,0.0,0.0,0.0,0.0,0.0,0.0,0.0,0.0,0.0,0.0,0.0,0.0,0.0,0.0,0.0,0.0,0.0,0.0,0.0,0.0,0.0,0.0,0.0,0.0,0.0,0.0,0.0,0.0,0.0,0.0,0.0,0.0,0.0,0.0,0.0,0.0,0.0,0.0,0.0,0.0,0.0,0.0,0.0,0.0,0.0,0.0,0.0,0.0,0.0,0.0,0.0,0.0,0.0,0.0,0.0,0.0,0.0,0.0,0.0,0.0,0.0,0.0,0.0,0.0,0.0,0.0,0.0,0.0,0.0,0.0,0.0,0.0,0.0,0.0,0.0,0.0,0.0,0.0,0.0,0.0,0.0,0.0,0.0,0.0,0.0,0.0,0.0,0.0,0.0,0.0,0.0,0.0,0.0,0.0,0.0,0.0,0.0,0.0,0.0,0.0,0.0,0.0,0.0,0.0,0.0,0.0,0.0,0.0,0.0,0.0,0.0,0.0,0.0,0.0,0.0,0.0,0.0,0.0,0.0,0.0,0.0,0.0,0.0,0.0,0.0,0.0,0.0,0.0,0.0,0.0,0.0,0.0,0.0,0.0,0.0,0.0,0.0,0.0,0.0,0.0,0.0,0.0,0.0,0.0,0.0,0.0,0.0,0.0,0.0,0.0,0.0,0.0,0.0,0.0,0.0,0.0,0.0,0.0,0.0,0.0,0.0,0.0,0.0,0.0,0.0,0.0,0.0,0.0,0.0,0.0,0.0,0.0,0.0,0.0,0.0,0.0,0.0,0.0,0.0,0.0,0.0,0.0,0.0,0.0,0.0,0.0,0.0,0.0,0.0,0.0,0.0,0.0,0.0,0.0,0.0,0.0,0.0,0.0,0.0,0.0,0.0,0.0,0.0,0.0,0.0,0.0,0.0,0.0,0.0,0.0,0.0,0.0,0.0,0.0,0.0,0.0,0.0,0.0,0.0,0.0,0.0,0.0,0.0,0.0,0.0,0.0,0.0,0.0,0.0,0.0,0.0,0.0,0.0,0.0,0.0,0.0,0.0,0.0,0.0,0.0,0.0,0.0,0.0,0.0,0.0,0.0,0.0,0.0,0.0,0.0,0.0,0.0,0.0,0.0,0.0,0.0,0.0,0.0,0.0,0.0,0.0,0.0,0.0,0.0,0.0,0.0,0.0,0.0,0.0,0.0,0.0,0.0,0.0,0.0,0.0,0.0,0.0,0.0,0.0,0.0,0.0,0.0,0.0,0.0,0.0,0.0,0.0,0.0,0.0,0.0,0.0,0.0,0.0,0.0,0.0,0.0,0.0,0.0,0.0,0.0,0.0,0.0,0.0,0.0,0.0,0.0,0.0,0.0,0.0,0.0,0.0,0.0,0.0,0.0,0.0,0.0,0.0,0.0,0.0,0.0,0.0,0.0,0.0,0.0,0.0,0.0,0.0,0.0,0.0,0.0,0.0,0.0,0.0,0.0,0.0,0.0,0.0,0.0,0.0,0.0,0.0,0.0,0.0,0.0,0.0,0.0,0.0,0.0,0.0,0.0,0.0,0.0,0.0,0.0,0.0,0.0,0.0,0.0,0.0,0.0,0.0,0.0,0.0,0.0,0.0,0.0,0.0,0.0,0.0,0.0,0.0,0.0,0.0,0.0,0.0,0.0,0.0,0.0,0.0,0.0,0.0,0.0,0.0,0.0,0.0,0.0,0.0,0.0,0.0,0.0,0.0,0.0,0.0,0.0,0.0,0.0,0.0,0.0,0.0,0.0,0.0,0.0,0.0,0.0,0.0,0.0,0.0,0.0,0.0,0.0,0.0,0.0,0.0,0.0,0.0,0.0,0.0,0.0,0.0,0.0,0.0,0.0,0.0,0.0,0.0,0.0,0.0,0.0,0.0,0.0,0.0,0.0,0.0,0.0,0.0,0.0,0.0,0.0,0.0,0.0,0.0,0.0,0.0,0.0,0.0,0.0,0.0,0.0,0.0,0.0,0.0,0.0,0.0,0.0,0.0,0.0,0.0,0.0,0.0,0.0,0.0,0.0,0.0,0.0,0.0,0.0,0.0,0.0,0.0,0.0,0.0,0.0,0.0,0.0,0.0,0.0,0.0,0.0,0.0,0.0,0.0,0.0,0.0,0.0,0.0,0.0,0.0,0.0,0.0,0.0,0.0,0.0,0.0,0.0,0.0,0.0,0.0,0.0,0.0,0.0,0.0,0.0,0.0,0.0,0.0,0.0,0.0,0.0,0.0,0.0,0.0,0.0,0.0,0.0,0.0,0.0,0.0,0.0,0.0,0.0,0.0,0.0,0.0,0.0,0.0,0.0,0.0,0.0,0.0,0.0,0.0,0.0,0.0,0.0,0.0,0.0,0.0,0.0,0.0,0.0,0.0,0.0,0.0,0.0,0.0,0.0,0.0,0.0,0.0,0.0,0.0,0.0,0.0,0.0,0.0,0.0,0.0,0.0,0.0,0.0,0.0,0.0,0.0,0.0,0.0,0.0,0.0,0.0,0.0,0.0,0.0,0.0,0.0,0.0,0.0,0.0,0.0,0.0,0.0,0.0,0.0,0.0,0.0,0.0,0.0,0.0,0.0,0.0,0.0,0.0,0.0,0.0,0.0,0.0,0.0,0.0,0.0,0.0,0.0,0.0,0.0,0.0,0.0,0.0,0.0,0.0,0.0,0.0,0.0,0.0,0.0,0.0,0.0,0.0,0.0,0.0,0.0,0.0,0.0,0.0,0.0,0.0,0.0,0.0,0.0,0.0,0.0,0.0,0.0,0.0,0.0,0.0,0.0,0.0,0.0,0.0,0.0,0.0,0.0,0.0,0.0,0.0,0.0,0.0,0.0,0.0,0.0,0.0,0.0,0.0,0.0,0.0,0.0,0.0,0.0,0.0,0.0,0.0,0.0,0.0,0.0,0.0,0.0,0.0,0.0,0.0,0.0,0.0,0.0,0.0,0.0,0.0,0.0,0.0,0.0,0.0,0.0,0.0,0.0,0.0,0.0,0.0,0.0,0.0,0.0,0.0,0.0,0.0,0.0,0.0,0.0,0.0,0.0,0.0,0.0,0.0,0.0,0.0,0.0,0.0,0.0,0.0,0.0,0.0,0.0,0.0,0.0,0.0,0.0,0.0,0.0,0.0,0.0,0.0,0.0,0.0,0.0,0.0,0.0,0.0,0.0,0.0,0.0,0.0,0.0,0.0,0.0,0.0,0.0,0.0,0.0,0.0,0.0,0.0,0.0,0.0,0.0,0.0,0.0,0.0,0.0,0.0,0.0,0.0,0.0,0.0,0.0,0.0,0.0,0.0,0.0,0.0,0.0,0.0,0.0,0.0,0.0,0.0,0.0,0.0,0.0,0.0,0.0,0.0,0.0,0.0,0.0,0.0,0.0,0.0,0.0,0.0,0.0,0.0,0.0,0.0,0.0,0.0,0.0,0.0,0.0,0.0,0.0,0.0,0.0,0.0,0.0,0.0,0.0,0.0,0.0,0.0,0.0,0.0,0.0,0.0,0.0,0.0,0.0,0.0,0.0,0.0,0.0,0.0,0.0,0.0,0.0,0.0,0.0,0.0,0.0,0.0,0.0,0.0,0.0,0.0,0.0,0.0,0.0,0.0,0.0,0.0,0.0,0.0,0.0,0.0,0.0,0.0,0.0,0.0,0.0,0.0,0.0,0.0,0.0,0.0,0.0,0.0,0.0,0.0,0.0,0.0,0.0,0.0,0.0,0.0,0.0,0.0,0.0,0.0,0.0,0.0,0.0,0.0,0.0,0.0,0.0,0.0,0.0,0.0,0.0,0.0,0.0,0.0,0.0,0.0,0.0,0.0,0.0,0.0,0.0,0.0,0.0,0.0,0.0,0.0,0.0,0.0,0.0,0.0,0.0,0.0,0.0,0.0,0.0,0.0,0.0,0.0,0.0,0.0,0.0,0.0,0.0,0.0,0.0,0.0,0.0,0.0,0.0,0.0,0.0,0.0,0.0,0.0,0.0,0.0,0.0,0.0,0.0,0.0,0.0,0.0,0.0,0.0,0.0,0.0,0.0,0.0,0.0,0.0,0.0,0.0,0.0,0.0,0.0,0.0,0.0,0.0,0.0,0.0,0.0,0.0,0.0,0.0,0.0,0.0,0.0,0.0,0.0,0.0,0.0,0.0,0.0,0.0,0.0,0.0,0.0,0.0,0.0,0.0,0.0,0.0,0.0,0.0,0.0,0.0,0.0,0.0,0.0,0.0,0.0,0.0,0.0,0.0,0.0,0.0,0.0,0.0,0.0,0.0,0.0,0.0,0.0,0.0,0.0,0.0,0.0,0.0,0.0,0.0,0.0,0.0,0.0,0.0,0.0,0.0,0.0,0.0,0.0,0.0,0.0,0.0,0.0,0.0,0.0,0.0,0.0,0.0,0.0,0.0,0.0,0.0,0.0,0.0,0.0,0.0,0.0,0.0,0.0,0.0,0.0,0.0,0.0,0.0,0.0,0.0,0.0,0.0,0.0,0.0,0.0,0.0,0.0,0.0,0.0,0.0,0.0,0.0,0.0,0.0,0.0,0.0,0.0,0.0,0.0,0.0,0.0,0.0,0.0,0.0,0.0,0.0,0.0,0.0,0.0,0.0,0.0,0.0,0.0,0.0,0.0,0.0,0.0,0.0,0.0,0.0,0.0,0.0,0.0,0.0,0.0,0.0,0.0,0.0,0.0,0.0,0.0,0.0,0.0,0.0,0.0,0.0,0.0,0.0,0.0,0.0,0.0,0.0,0.0,0.0,0.0,0.0,0.0,0.0,0.0,0.0,0.0,0.0,0.0,0.0,0.0,0.0,0.0,0.0,0.0,0.0,0.0,0.0,0.0,0.0,0.0,0.0,0.0,0.0,0.0,0.0,0.0,0.0,0.0,0.0,0.0,0.0,0.0,0.0,0.0,0.0,0.0,0.0,0.0,0.0,0.0,0.0,0.0,0.0,0.0,0.0,0.0,0.0,0.0,0.0,0.0,0.0,0.0,0.0,0.0,0.0,0.0,0.0,0.0,0.0,0.0,0.0,0.0,0.0,0.0,0.0,0.0,0.0,0.0,0.0,0.0,0.0,0.0,0.0,0.0,0.0,0.0,0.0,0.0,0.0,0.0,0.0,0.0,0.0,0.0,0.0,0.0,0.0,0.0,0.0,0.0,0.0,0.0,0.0,0.0,0.0,0.0,0.0,0.0,0.0,0.0,0.0,0.0,0.0,0.0,0.0,0.0,0.0,0.0,0.0,0.0,0.0,0.0,0.0,0.0,0.0,0.0,0.0,0.0,0.0,0.0,0.0,0.0,0.0,0.0,0.0,0.0,0.0,0.0,0.0,0.0,0.0,0.0,0.0,0.0,0.0,0.0,0.0,0.0,0.0,0.0,0.0,0.0,0.0,0.0,0.0,0.0,0.0,0.0,0.0,0.0,0.0,0.0,0.0,0.0,0.0,0.0,0.0,0.0,0.0,0.0,0.0,0.0,0.0,0.0,0.0,0.0,0.0,0.0,0.0,0.0,0.0,0.0,0.0,0.0,0.0,0.0,0.0,0.0,0.0,0.0,0.0,0.0,0.0,0.0,0.0,0.0,0.0,0.0,0.0,0.0,0.0,0.0,0.0,0.0,0.0,0.0,0.0,0.0,0.0,0.0,0.0,0.0,0.0,0.0,0.0,0.0,0.0,0.0,0.0,0.0,0.0,0.0,0.0,0.0,-2.7634,-2.6875,0.0,0.0,0.0,0.0,0.0,0.0,0.0,0.0,0.0,0.0,0.0,0.0,0.0,0.0,0.0,0.0,0.0,0.0,0.0,0.0,0.0,0.0,0.0,-1.48,-1.5596,-1.6517,-1.6565,-1.6644,-1.6888,0.0,0.0,0.0,0.0,0.0,-1.598,-1.5593,-1.5409,-1.5436,-1.5335,-1.5393,-1.5611,-1.5206,-1.4974,-1.4879,0.0,0.0,0.0,0.0,0.0,0.0,0.0,0.0,0.0,0.0,0.0,0.0,0.0,0.0,0.0,0.0,0.0,0.0,0.0,0.0,0.0,0.0,0.0,0.0,0.0,0.0,0.0,0.0,0.0,0.0,0.0,0.0,0.0,0.0,0.0,0.0,0.0,0.0,0.0,0.0,0.0,0.0,0.0,0.0,0.0,0.0,0.0,0.0,0.0,0.0,0.0,0.0,0.0,0.0,0.0,0.0,0.0,0.0,0.0,0.0,0.0,0.0,0.0,0.0,0.0,0.0,0.0,0.0,0.0,0.0,-2.851,-2.7708,0.0,0.0,0.0,0.0,0.0,0.0,0.0,0.0,0.0,0.0,0.0,0.0,0.0,0.0,0.0,0.0,0.0,0.0,0.0,0.0,0.0,-1.3312,-1.4381,-1.5118,-1.5923,-1.6933,-1.7027,-1.7089,-1.7211,-1.726,0.0,0.0,0.0,-1.701,-1.6996,-1.6546,-1.626,-1.6169,-1.6082,-1.6255,-1.6664,-1.7028,-1.691,-1.6378,-1.605,0.0,0.0,0.0,0.0,0.0,0.0,0.0,0.0,0.0,0.0,0.0,0.0,0.0,0.0,0.0,0.0,0.0,0.0,0.0,0.0,0.0,0.0,0.0,0.0,0.0,0.0,0.0,0.0,0.0,0.0,0.0,0.0,0.0,0.0,0.0,0.0,0.0,0.0,0.0,0.0,0.0,0.0,0.0,0.0,0.0,0.0,0.0,0.0,0.0,0.0,0.0,0.0,0.0,0.0,0.0,0.0,0.0,0.0,0.0,0.0,0.0,0.0,0.0,-3.0698,-3.0688,-3.0785,-3.0454,-3.0158,-2.9868,-2.9548,-2.882,-2.7849,-2.7668,0.0,0.0,0.0,0.0,0.0,0.0,0.0,0.0,0.0,0.0,0.0,0.0,0.0,0.0,0.0,0.0,0.0,0.0,0.0,-1.318,-1.4751,-1.5125,-1.5863,-1.7374,-1.7502,-1.7566,-1.7692,-1.7715,0.0,0.0,-1.8655,-1.8745,-1.8186,-1.8766,-1.8732,-1.8031,-1.7855,-1.7751,-1.7703,-1.7653,-1.7451,-1.7122,-1.6567,-1.6148,-1.5809,0.0,0.0,0.0,0.0,0.0,0.0,0.0,0.0,0.0,0.0,0.0,0.0,0.0,0.0,0.0,0.0,0.0,0.0,0.0,0.0,0.0,0.0,0.0,0.0,0.0,0.0,0.0,0.0,0.0,0.0,0.0,0.0,0.0,0.0,0.0,0.0,0.0,0.0,0.0,0.0,0.0,-2.5084,-2.5841,0.0,0.0,0.0,0.0,0.0,0.0,0.0,0.0,0.0,0.0,0.0,0.0,0.0,-3.0282,-3.0282,-3.0297,-3.0692,-3.1397,-3.1266,-3.1471,-3.1969,-3.1688,-3.138,-3.1064,-3.0788,0.0,-2.8473,-2.8379,0.0,0.0,0.0,0.0,0.0,0.0,0.0,0.0,0.0,0.0,0.0,0.0,0.0,0.0,0.0,0.0,0.0,0.0,0.0,0.0,0.0,-1.5245,-1.6072,-1.7267,-1.7748,-1.8027,-1.8121,-1.8068,-1.8068,-1.8142,-1.8596,-1.8735,-1.852,-1.8858,-1.8868,-1.8506,-1.8418,-1.8307,-1.8191,-1.802,-1.7783,-1.7497,-1.7014,-1.6565,-1.6162,-1.5624,0.0,0.0,0.0,0.0,0.0,0.0,0.0,0.0,0.0,0.0,0.0,0.0,0.0,0.0,0.0,0.0,0.0,0.0,0.0,0.0,0.0,0.0,0.0,0.0,0.0,0.0,0.0,0.0,0.0,0.0,0.0,0.0,0.0,0.0,0.0,0.0,0.0,0.0,0.0,-2.5223,-2.6429,-2.6802,-2.723,-2.7513,0.0,0.0,0.0,0.0,0.0,0.0,0.0,0.0,0.0,-3.1176,-3.1497,-3.1859,-3.2302,-3.2287,-3.2448,-3.2784,-3.2241,-3.2036,-3.2179,-3.1856,-3.154,-3.1232,-3.0915,-3.0366,-2.9633,-2.9178,-2.876,-2.8359,0.0,0.0,0.0,0.0,-2.7351,-2.7142,0.0,0.0,0.0,0.0,0.0,0.0,0.0,0.0,0.0,0.0,0.0,0.0,-1.4512,-1.5297,-1.6185,-1.7259,-1.7868,-1.8273,0.0,0.0,-1.8361,-1.8341,-1.866,-1.8794,-1.8684,-1.8678,-1.8706,-1.8706,-1.8667,-1.8571,-1.8455,-1.8232,-1.7971,-1.7676,-1.7284,-1.685,-1.6412,-1.6006,-1.5622,0.0,0.0,0.0,0.0,0.0,0.0,0.0,0.0,0.0,0.0,0.0,0.0,0.0,0.0,0.0,0.0,0.0,0.0,0.0,0.0,0.0,0.0,0.0,0.0,0.0,0.0,0.0,0.0,0.0,0.0,0.0,0.0,0.0,0.0,0.0,0.0,0.0,0.0,-2.6537,-2.7458,-2.7941,-2.8327,-2.8711,0.0,0.0,0.0,0.0,0.0,0.0,-3.0895,-3.0955,-3.134,-3.2154,-3.2801,-3.3457,-3.404,-3.4041,-3.4023,-3.4023,-3.309,-3.2546,-3.2333,-3.1721,-3.131,-3.1052,-3.0753,-3.0568,-3.0435,-2.9889,-2.936,-2.888,-2.8563,-2.8418,-2.8378,-2.8196,-2.7955,-2.7763,0.0,0.0,0.0,0.0,0.0,0.0,0.0,0.0,0.0,0.0,0.0,-1.378,-1.4857,0.0,-1.5986,-1.7635,-1.78,-1.8126,0.0,0.0,-1.8762,-1.8769,-1.9577,-1.9659,-1.8905,-1.8958,-1.8975,-1.8975,-1.8852,-1.8715,-1.8576,-1.832,-1.8018,-1.7676,-1.7284,-1.686,-1.6506,-1.6665,-1.6467,-1.6063,0.0,0.0,0.0,0.0,0.0,0.0,0.0,0.0,0.0,0.0,0.0,0.0,0.0,0.0,0.0,0.0,0.0,0.0,0.0,0.0,0.0,0.0,0.0,0.0,0.0,0.0,0.0,0.0,0.0,0.0,0.0,0.0,0.0,0.0,0.0,0.0,0.0,0.0,0.0,-2.9394,-2.8878,0.0,0.0,0.0,0.0,-3.0592,-3.0537,-3.0766,-3.1527,-3.2143,-3.2872,-3.3651,-3.4341,-3.4711,-3.4746,-3.4691,-3.4653,-3.4636,-3.3589,-3.2964,-3.2722,-3.1557,-3.0915,-3.0712,-3.0522,-3.0417,-3.0401,-3.0368,-3.0335,-3.0215,-2.9383,-2.9013,-2.8942,-2.8804,-2.8597,-2.8441,0.0,0.0,0.0,-1.0856,-1.1209,-1.1545,-1.1908,-1.2306,-1.272,-1.3202,-1.3576,-1.4005,0.0,-1.5213,-1.5907,-1.6584,-1.7069,-1.7688,-1.8459,0.0,-1.8586,-1.9089,-1.9373,-1.9366,-1.9041,-1.9084,-1.9095,-1.901,-1.8437,-1.8092,-1.7941,-1.7203,-1.6898,-1.6974,-1.6621,-1.6449,-1.6456,-1.6652,-1.6511,-1.6189,-1.6482,-1.6365,0.0,0.0,0.0,0.0,0.0,0.0,0.0,0.0,0.0,0.0,0.0,0.0,0.0,0.0,0.0,0.0,0.0,0.0,0.0,0.0,0.0,0.0,0.0,0.0,0.0,0.0,0.0,0.0,0.0,0.0,0.0,0.0,0.0,0.0,0.0,0.0,0.0,-3.0333,-3.0156,0.0,-3.0729,-3.0507,-3.0596,-3.1275,-3.1698,-3.2241,-3.2976,-3.3652,-3.4376,-3.5188,-3.536,-3.5692,-3.6202,-3.569,-3.5425,-3.5389,-3.4318,-3.3703,-3.3488,-3.2671,-3.2193,-3.1956,-3.172,-3.1369,-3.0959,-3.0893,-3.0615,-3.0236,-2.9847,-2.9604,-2.9497,-2.9404,-2.9207,-2.9,-0.9725,-1.0161,0.0,-1.0942,-1.1276,-1.1641,-1.2045,-1.2482,-1.2934,-1.3432,-1.3831,-1.4182,-1.4461,-1.5096,-1.5649,-1.603,-1.6511,-1.7135,-1.7943,0.0,-1.8485,-1.8984,-1.918,-1.9274,-1.9235,-1.9264,-1.9073,-1.8695,-1.8097,-1.7586,-1.7176,-1.6431,-1.6124,-1.6216,-1.6093,-1.6019,-1.6035,-1.6487,-1.6644,-1.6588,-1.6866,-1.6908,-1.6759,0.0,0.0,0.0,0.0,0.0,0.0,0.0,0.0,0.0,0.0,0.0,0.0,0.0,0.0,0.0,0.0,0.0,0.0,0.0,0.0,0.0,0.0,0.0,0.0,0.0,0.0,0.0,0.0,0.0,0.0,0.0,0.0,0.0,0.0,-2.9673,-3.0391,-3.1174,-3.0916,-3.0882,-3.1419,-3.1166,-3.125,-3.1936,-3.2654,-3.3244,-3.374,-3.464,-3.5378,-3.5924,-3.6094,-3.6461,-3.6989,-3.6461,-3.6178,-3.612,-3.5059,-3.4381,-3.4076,-3.3316,-3.2807,-3.2539,-3.2357,-3.1851,-3.1153,-3.1024,-3.0687,-3.0276,-3.0005,-2.982,-2.9694,-2.9598,-2.9441,-2.9259,-0.9854,-1.0288,-1.0688,-1.0946,-1.1279,-1.1677,-1.2215,-1.2645,-1.31,-1.3634,-1.4002,-1.432,-1.4668,-1.4818,-1.5232,-1.6079,-1.6164,-1.6502,-1.7325,-1.8106,-1.8491,-1.8404,-1.9117,-1.9479,-1.9455,-1.9405,-1.8945,-1.806,-1.7848,-1.7257,-1.6354,-1.6063,-1.575,-1.5482,-1.5719,-1.5599,-1.5234,-1.6217,-1.6882,-1.7265,-1.7412,-1.7534,-1.7585,0.0,0.0,0.0,0.0,0.0,0.0,0.0,0.0,0.0,0.0,0.0,0.0,0.0,0.0,0.0,0.0,0.0,0.0,0.0,0.0,0.0,0.0,0.0,0.0,0.0,0.0,0.0,0.0,0.0,0.0,0.0,0.0,0.0,-3.0093,-3.0577,-3.1207,-3.1963,-3.113,-3.1102,-3.2647,-3.2017,-3.1827,-3.2535,-3.3299,-3.3724,-3.3724,-3.5076,-3.5845,-3.5845,-3.6584,-3.7007,-3.7007,-3.7007,-3.693,-3.6791,-3.574,-3.4987,-3.4506,-3.3444,-3.2734,-3.2361,-3.2294,-3.1748,-3.0946,-3.0822,-3.0667,-3.0478,-2.9942,-2.964,-2.9505,-2.9382,-2.9321,-2.9213,-1.0136,-1.049,-1.0798,-1.097,-1.1313,-1.1747,-1.2226,-1.2718,-1.3227,-1.3708,-1.4108,-1.4477,-1.4809,-1.4923,-1.5084,-1.5386,-1.5393,-1.5761,-1.6623,-1.6848,-1.7406,-1.8493,-1.9301,-1.9381,-1.8648,-1.8608,-1.8156,-1.7222,-1.6489,-1.5955,-1.5577,-1.4787,-1.4512,-1.4684,-1.4474,-1.4467,-1.4649,-1.5015,-1.5477,-1.5999,-1.6855,-1.7448,-1.7768,0.0,0.0,0.0,0.0,0.0,0.0,0.0,0.0,0.0,0.0,0.0,0.0,0.0,0.0,0.0,0.0,0.0,0.0,0.0,0.0,0.0,0.0,0.0,0.0,0.0,0.0,0.0,0.0,0.0,0.0,0.0,-3.0835,-3.2023,-3.1897,-3.1865,-3.2123,-3.2847,-3.2509,-3.2373,-3.2753,-3.2512,-3.236,-3.2522,-3.3759,-3.4481,-3.4444,-3.5848,-3.6673,-3.6673,-3.6884,-3.7007,-3.7007,-3.7007,-3.693,-3.6791,-3.6156,-3.5655,-3.5267,-3.4532,-3.3979,-3.36,-3.3493,-3.2941,-3.2135,-3.2095,-3.1709,-3.1086,-3.0503,-3.0224,-3.0163,-3.01,-2.9634,-2.8943,-1.0225,-1.0475,-1.0759,-1.1005,-1.1324,-1.1736,-1.2226,-1.2762,-1.3278,-1.3738,-1.4172,-1.4542,-1.4826,-1.4972,-1.5063,-1.5108,-1.5133,-1.5363,-1.5856,-1.6487,-1.7372,-1.858,-1.9058,-1.9013,-1.8397,-1.7993,-1.7329,-1.64,-1.5832,-1.5291,-1.4784,-1.4076,-1.3822,-1.3926,-1.3805,-1.3786,-1.3888,-1.439,-1.4714,-1.4964,-1.5819,-1.6681,-1.742,-1.7119,-1.7185,-1.7464,-1.7823,-1.7624,-1.7327,-1.7928,0.0,0.0,0.0,0.0,0.0,0.0,0.0,0.0,0.0,0.0,0.0,0.0,0.0,0.0,0.0,0.0,0.0,0.0,0.0,0.0,0.0,0.0,0.0,0.0,-3.1976,-3.2939,-3.3196,-3.3003,-3.2968,-3.3339,-3.3088,-3.2868,-3.2823,-3.2641,-3.2507,-3.2456,-3.3899,-3.4725,-3.4706,-3.6164,-3.7007,-3.7007,-3.7007,-3.7007,-3.7007,-3.7007,-3.6928,-3.6748,-3.6305,-3.5859,-3.5413,-3.4866,-3.4399,-3.4,-3.3873,-3.3345,-3.2563,-3.2563,-3.2265,0.0,0.0,0.0,0.0,0.0,-2.9446,-2.8858,-1.0198,-1.0374,-1.0632,-1.1027,-1.1313,-1.1681,-1.2205,-1.2727,-1.3244,-1.3716,-1.4185,-1.4577,-1.4775,-1.4973,-1.5094,-1.512,-1.5168,-1.5243,0.0,-1.6854,-1.7996,-1.8535,-1.8582,-1.8476,-1.8229,-1.7398,-1.6503,-1.5558,-1.5494,-1.5004,-1.4089,-1.3826,-1.3565,-1.3311,-1.3511,-1.3378,-1.3079,-1.4068,-1.4321,-1.4141,-1.4665,-1.561,-1.671,-1.6778,-1.6596,-1.6479,-1.7676,-1.7838,-1.7673,-1.8687,0.0,0.0,0.0,0.0,0.0,0.0,0.0,0.0,0.0,0.0,0.0,0.0,0.0,0.0,0.0,0.0,0.0,0.0,0.0,0.0,0.0,0.0,0.0,0.0,-3.3035,-3.3296,-3.4,-3.3895,-3.3671,-3.352,-3.3165,-3.2884,-3.2823,-3.2558,-3.244,-3.2511,-3.388,-3.4741,-3.4811,-3.6217,0.0,0.0,0.0,-3.7007,-3.7007,-3.6987,-3.6869,-3.6664,-3.6259,-3.5749,-3.5178,-3.4699,-3.425,-3.3873,-3.3736,-3.324,-3.258,-3.258,-3.2482,-3.2254,-3.1616,-3.0894,-3.0109,-2.9367,-2.9013,-2.8897,-1.0262,-1.0449,-1.0681,-1.1038,-1.1316,-1.1641,-1.2076,-1.2591,-1.3117,-1.358,-1.4089,-1.4528,-1.4771,-1.4973,-1.513,-1.5188,-1.5233,-1.5552,0.0,0.0,-1.8364,-1.7757,-1.8295,-1.7942,-1.6517,-1.6239,-1.5664,-1.4729,-1.4654,-1.445,-1.4107,-1.3887,-1.3605,-1.3295,-1.3064,-1.2792,-1.252,-1.3357,-1.3596,-1.3482,-1.4435,-1.5324,-1.6087,-1.6153,-1.6548,-1.7236,-1.8386,-1.8544,-1.8376,-1.9491,-1.9984,-2.019,-2.0458,0.0,0.0,0.0,0.0,0.0,0.0,0.0,0.0,0.0,0.0,0.0,0.0,0.0,0.0,0.0,0.0,0.0,0.0,0.0,0.0,-3.2934,-3.3528,-3.3999,-3.4166,-3.4049,-3.3842,-3.3619,-3.3268,-3.2995,-3.2805,-3.2608,-3.2703,-3.3248,-3.4161,-3.4951,-3.5547,-3.6478,-3.7007,-3.7007,-3.7007,-3.7007,-3.7007,-3.6891,-3.6748,-3.6523,-3.6067,0.0,-3.5111,-3.457,-3.4126,-3.372,-3.3607,-3.3371,-3.3156,-3.3156,-3.2797,-3.2228,-3.1516,-3.0821,-3.0109,-2.9367,-2.9075,-2.9029,-1.0375,-1.0511,-1.0717,-1.1085,-1.1319,-1.1601,-1.2029,-1.2508,-1.2978,-1.3481,-1.3995,-1.4413,-1.471,-1.4954,-1.5133,-1.5199,-1.5664,0.0,0.0,-1.7642,-1.8087,-1.7566,-1.7444,-1.6989,-1.6073,-1.5554,-1.504,-1.4501,-1.4435,-1.4305,-1.4085,-1.3862,-1.3589,-1.3287,-1.2944,-1.2776,-1.2788,-1.3324,-1.3583,-1.3713,-1.449,-1.5038,-1.5416,-1.5558,-1.592,-1.6598,-1.8109,-1.8641,-1.8807,-2.025,-2.094,-2.1189,-2.1429,-2.1966,-2.2548,0.0,0.0,0.0,0.0,0.0,0.0,0.0,0.0,0.0,0.0,0.0,0.0,0.0,0.0,-3.0018,-3.0889,0.0,-3.3037,-3.3481,-3.3925,-3.4197,-3.4197,-3.4111,-3.3959,-3.3726,-3.3368,-3.3086,-3.2918,-3.269,-3.2682,-3.2984,-3.4093,-3.4901,-3.5232,-3.6355,-3.7007,-3.7007,-3.7007,-3.7007,-3.7007,-3.6869,-3.6708,-3.6502,-3.6023,-3.5538,-3.5065,-3.4472,-3.4025,-3.3684,-3.3477,-3.3346,-3.3277,-3.2929,-3.2196,-3.1216,-3.0828,-3.048,-3.0109,-2.9367,-2.9098,-2.9068,-1.0498,-1.0621,-1.0789,-1.1132,-1.1307,-1.1556,-1.2002,-1.2416,-1.2868,-1.3385,-1.3867,-1.4301,-1.4636,-1.4925,-1.5197,0.0,0.0,0.0,0.0,-1.7816,-1.8046,-1.7631,-1.6879,-1.6283,-1.587,-1.5105,-1.4654,-1.4541,-1.4453,-1.4319,-1.4129,-1.3874,-1.3611,-1.3328,-1.3138,-1.3135,-1.3279,-1.3668,-1.3956,-1.4199,-1.4677,-1.5003,-1.5211,-1.5442,-1.5624,-1.598,-1.77,-1.8637,-1.9284,-2.0917,-2.169,-2.1998,-2.2237,-2.2473,-2.2725,-2.3008,-2.3217,0.0,0.0,0.0,0.0,0.0,0.0,0.0,0.0,-2.7655,-2.8105,-2.8132,-2.9415,-3.0753,-3.1451,-3.2428,-3.3327,-3.3988,-3.4161,-3.4197,-3.4197,-3.4148,-3.4036,-3.3842,-3.3512,-3.322,-3.3057,-3.2818,-3.271,-3.2753,-3.4006,-3.4833,-3.4917,-3.6252,-3.7007,-3.7007,-3.697,-3.6968,-3.6968,-3.6829,-3.6647,-3.644,-3.598,-3.5492,-3.4994,-3.4374,-3.3949,-3.3642,-3.3255,-3.3024,-3.285,-3.2323,-3.1343,-3.0204,-3.0204,-3.003,-2.9745,-2.9256,-2.9098,-2.9068,-1.0633,-1.0825,-1.1003,-1.1167,-1.1307,-1.1545,-1.1949,-1.2352,-1.2783,-1.3253,-1.3733,-1.4167,-1.4566,-1.4844,-1.5395,-1.6357,0.0,0.0,-1.886,-1.9663,-1.9384,-1.7767,-1.7539,-1.6696,-1.5072,-1.4865,-1.4754,-1.4672,-1.4554,-1.4416,-1.4263,-1.406,-1.3793,-1.3501,-1.3816,-1.3771,-1.352,-1.4323,-1.4542,-1.4412,-1.4933,-1.5586,-1.6268,-1.6592,-1.6683,-1.6804,-1.7961,-1.9027,-2.0058,-2.1322,-2.194,-2.2237,-2.2611,-2.2838,-2.302,-2.3277,-2.3459,-2.3607,-2.3739,-2.4486,-2.5468,-2.6428,-2.7301,-2.8114,0.0,-2.9075,-2.9095,-2.8996,-3.0258,-3.1397,-3.1495,-3.281,-3.3925,-3.408,-3.4161,-3.4197,-3.4197,-3.4148,-3.4049,-3.3908,-3.3734,-3.3512,-3.3205,-3.3037,-3.3152,-3.3615,-3.4358,-3.5062,-3.5653,-3.6513,-3.7007,-3.7007,-3.6871,-3.6829,-3.6829,-3.6626,-3.644,-3.6247,-3.5822,-3.531,-3.4715,-3.43,-3.3873,-3.3497,-3.2722,-3.2054,-3.1444,-3.1365,-3.0875,-3.0204,-3.0204,-2.9445,-2.8395,-2.8909,-2.9098,-2.9068,-1.0813,-1.0968,-1.1108,-1.1296,-1.1399,-1.1567,-1.188,-1.2251,-1.2642,-1.3124,-1.358,-1.4044,-1.4438,-1.5312,-1.6079,-1.6564,-1.7853,-1.8811,-1.9186,-1.9515,-1.935,-1.8548,-1.7519,-1.6596,-1.5796,-1.5219,-1.5117,-1.5511,-1.5378,-1.551,-1.5863,-1.5674,-1.541,-1.5124,-1.5104,-1.5078,-1.5081,-1.517,-1.5497,-1.5991,-1.6144,-1.6697,-1.7484,-1.7776,-1.8279,-1.8882,-1.9304,-1.986,0.0,0.0,-2.1942,-2.2443,-2.1828,-2.2346,-2.3141,-2.2923,-2.3253,-2.3718,-2.3959,-2.5081,-2.6296,-2.6841,-2.7929,-2.8975,-2.9384,-2.9423,-2.9326,-2.9243,-3.0097,-3.0979,-3.1409,-3.249,-3.3456,-3.3962,-3.3747,-3.3658,-3.4123,-3.3764,-3.3605,-3.3968,-3.3972,-3.3788,-3.3415,-3.3256,-3.3201,-3.3284,-3.3896,-3.4341,-3.446,-3.5636,-3.6283,-3.6243,-3.6621,-3.6788,-3.6745,-3.6585,-3.6398,-3.6204,-3.5778,-3.5281,-3.4691,-3.4275,-3.3623,-3.2764,-3.1975,-3.1255,-3.0607,-3.0607,-3.0196,-2.9564,-2.9564,-2.8963,-2.8126,-2.841,-2.8521,-2.8498,-1.1003,-1.112,-1.1239,-1.1376,-1.1455,-1.1578,-1.1826,-1.2159,-1.2533,-1.3,-1.3465,-1.4056,-1.4791,-1.6035,-1.6967,-1.7286,-1.8464,-1.9294,-1.9545,-1.9559,-1.8983,-1.7713,-1.6478,-1.5192,-1.3885,-1.3183,-1.3077,-1.3597,-1.4447,-1.5136,-1.5668,-1.6472,-1.6851,-1.6828,-1.6693,-1.6806,-1.7082,-1.6803,-1.7082,-1.77,-1.7584,-1.8064,-1.8856,-1.9136,-1.9935,-2.0862,-2.0494,-2.0584,0.0,0.0,-2.178,-2.2145,-2.1225,-2.1912,-2.3019,-2.266,-2.3167,-2.3909,-2.4173,-2.5494,-2.6849,-2.7075,-2.8306,-2.9517,-2.9603,-2.9551,-2.9467,-2.9397,-2.997,-3.0639,-3.1131,-3.1942,-3.2779,-3.3561,-3.3123,-3.3039,-3.4048,-3.351,-3.3275,-3.4019,-3.4099,-3.3972,-3.3657,-3.3495,-3.3259,-3.2979,-3.3532,-3.3809,-3.3565,-3.4969,-3.5771,-3.5692,-3.6404,-3.6728,-3.6643,-3.6523,-3.6339,-3.6144,-3.5778,-3.5281,-3.4691,-3.3965,-3.2951,-3.169,-3.116,-3.0528,-2.9896,-2.9896,-2.9595,-2.9098,-2.9098,-2.8561,-2.7826,-2.7826,-2.7936,-2.8072,-1.1192,-1.1307,-1.1387,-1.1399,-1.1455,-1.1567,-1.1772,-1.2091,-1.2457,-1.2852,-1.3378,-1.4293,-1.587,-1.7009,-1.8053,-1.9033,-1.9171,-1.957,-2.0409,-2.0468,-1.855,-1.4256,-1.4073,-1.2002,-0.7578,-0.7385,-0.7314,-0.7285,-1.0581,-1.223,-1.2324,-1.5697,-1.7586,-1.8167,-1.8547,-1.8922,-1.9325,-1.9575,-1.9506,-1.9228,-1.9162,-1.9647,-2.0461,-2.0719,-2.1501,-2.2299,-2.1177,0.0,0.0,-2.1675,-2.1469,-2.1082,-2.1233,-2.1862,-2.2553,-2.2656,-2.3406,-2.421,-2.4348,-2.5662,-2.7019,-2.7161,-2.8453,-2.9682,-2.9688,-2.97,-2.967,-2.9598,-3.0177,-3.0652,-3.0545,-3.1229,-3.2071,-3.2802,-3.2324,-3.2388,-3.3974,-3.351,-3.3275,-3.4019,-3.4099,-3.4074,-3.3998,-3.3753,-3.3444,-3.3117,-3.3581,-3.3844,-3.3706,-3.5023,-3.5771,-3.5692,-3.6362,-3.6643,-3.6502,-3.6364,-3.6195,-3.5997,-3.5734,-3.5281,-3.465,-3.3215,-3.1713,-3.0267,-3.0251,-2.9817,-2.913,-2.913,-2.913,-2.9098,-2.9098,-2.8277,-2.713,-2.713,-2.7541,-2.8072,-1.1444,-1.1489,-1.1534,-1.1541,-1.1549,-1.1593,-1.1714,-1.1976,-1.2307,-1.2708,-1.3975,0.0,0.0,0.0,0.0,0.0,-1.9705,-2.017,-2.0412,-1.7819,-1.5531,-1.3893,-1.0581,-0.7892,-0.6048,-0.529,-0.5113,-0.554,-0.6686,-0.7773,-0.8798,-1.0019,-1.259,-1.615,-1.6191,-1.7949,-2.0848,-2.0807,-2.1185,-2.1753,-2.1108,-2.1623,-2.2735,-2.2468,-2.2649,-2.3005,0.0,0.0,0.0,-2.1576,-2.1373,-2.1197,-2.0825,-2.1596,-2.2757,-2.3439,-2.3942,-2.4284,-2.4385,-2.5281,-2.6235,-2.6369,-2.7267,-2.8126,-2.8154,-2.8589,-2.8963,-2.8944,-2.9485,-3.0112,-3.0551,-3.0876,-3.1488,-3.2762,-3.2351,-3.2422,-3.3986,-3.351,-3.3287,-3.408,-3.4173,-3.4136,-3.4074,-3.3855,-3.3629,-3.339,-3.3337,-3.3443,-3.374,-3.4513,-3.5133,-3.556,-3.6206,-3.6502,-3.6381,-3.6322,-3.6237,-3.6122,-3.4959,-3.3889,-3.2929,-3.1678,-3.0783,-3.0157,-2.9224,-2.8932,-2.9067,-2.8609,-2.8688,-2.9051,-2.8509,-2.7762,-2.6891,-2.6376,-2.6324,-2.6591,-1.1586,-1.1792,-1.1964,-1.1958,-1.1981,0.0,0.0,0.0,0.0,0.0,0.0,0.0,0.0,0.0,0.0,0.0,0.0,-2.0436,-2.034,-1.6191,-1.306,-1.1518,-0.6597,-0.2929,-0.0869,0.004,0.0407,0.0233,-0.1038,-0.2278,-0.349,-0.4973,-0.7729,-1.147,-1.1678,-1.4616,-1.948,-1.9836,-2.152,-2.3931,-2.3601,-2.4037,-2.4807,-2.4183,-2.4049,0.0,0.0,0.0,0.0,-2.2042,-2.1734,-2.1498,-2.1031,-2.178,-2.2984,-2.3867,-2.4219,-2.433,-2.4402,-2.5102,-2.583,-2.5981,-2.6648,-2.7273,-2.7345,-2.8006,-2.8593,-2.8606,-2.9187,-2.985,-3.0321,-3.0386,-3.0889,-3.2426,-3.2005,-3.2113,-3.3985,-3.3515,-3.3287,-3.4104,-3.4457,-3.4649,-3.4612,-3.4718,-3.4458,-3.3628,-3.3521,-3.3605,-3.3859,-3.4568,-3.5131,-3.5484,-3.5905,-3.6046,-3.5904,-3.5645,-3.5425,-3.527,-3.4074,-3.2921,-3.1789,-3.0906,-3.0147,-2.9476,-2.8512,-2.8347,-2.8704,-2.8284,-2.8505,-2.9028,-2.8479,-2.7852,-2.7155,-2.6348,-2.6055,-2.6139,-1.1656,-1.2176,-1.2633,0.0,0.0,0.0,0.0,0.0,0.0,0.0,0.0,0.0,0.0,0.0,0.0,0.0,0.0,0.0,-2.0218,-1.5765,0.0,-0.7289,-0.2436,0.2521,0.7503,0.8167,0.8816,0.9588,0.6209,0.4246,0.3567,-0.0286,-0.2931,-0.4462,-0.5303,-0.9348,-1.5629,-1.7002,-2.0701,-2.5676,-2.6441,-2.6739,-2.6628,-2.5836,0.0,0.0,0.0,0.0,-2.3431,-2.3056,-2.2496,-2.1953,-2.1901,-2.2418,-2.3208,-2.3989,-2.4248,-2.432,-2.4446,-2.5105,-2.5761,-2.5898,-2.6494,-2.7104,-2.721,-2.7919,-2.855,-2.8599,-2.9304,-2.9907,-2.9912,-2.9851,-3.03,-3.186,-3.1357,-3.1611,-3.3969,-3.3594,-3.3354,-3.4104,-3.4934,-3.5436,-3.5436,-3.6059,-3.571,-3.3849,-3.4141,-3.4319,-3.4079,-3.51,-3.5609,-3.5449,-3.5367,-3.5284,-3.5128,-3.4458,-3.392,-3.356,-3.3152,-3.2358,-3.1243,-3.0797,-2.9762,-2.8287,-2.8098,-2.8031,-2.8094,-2.8063,-2.8451,-2.9075,-2.8896,-2.8442,-2.7792,-2.6929,-2.6642,-2.6642,0.0,0.0,0.0,0.0,0.0,0.0,0.0,0.0,0.0,0.0,0.0,0.0,0.0,0.0,0.0,0.0,0.0,0.0,-2.0218,-1.5978,0.0,0.0,0.0,0.4157,1.0469,1.1329,0.0,0.0,0.0,1.1737,1.0965,0.9592,0.644,0.1904,0.0644,-0.546,-1.4907,-1.6749,-2.1211,-2.7082,0.0,-2.7725,-2.8009,0.0,0.0,0.0,0.0,0.0,-2.4449,-2.3637,-2.3124,-2.286,-2.2839,-2.3325,-2.3934,-2.4146,-2.421,-2.4247,-2.433,-2.4588,-2.4856,-2.4939,-2.5145,-2.5512,-2.6185,-2.7042,-2.7894,-2.8547,-2.9371,-2.9964,-2.9975,-2.9967,-3.045,-3.1929,-3.1974,-3.241,-3.4067,-3.4113,-3.4034,-3.4191,-3.4401,-3.4531,-3.4531,-3.4705,-3.4556,-3.397,-3.4359,-3.4744,-3.5034,-3.4429,-3.4261,-3.4667,-3.4528,-3.4409,-3.4389,-3.4199,-3.3741,-3.2997,-3.2659,-3.1905,-3.0812,-2.9835,-2.8995,-2.8301,-2.7174,-2.7168,-2.7906,-2.741,-2.7884,-2.8803,-2.8179,-2.7821,-2.7502,-2.6158,-2.5666,-2.5666,0.0,0.0,0.0,0.0,0.0,0.0,0.0,0.0,0.0,0.0,0.0,0.0,0.0,0.0,0.0,0.0,0.0,0.0,0.0,-1.5918,0.0,0.0,0.0,0.1923,0.9169,0.984,0.0,0.0,0.0,0.0,0.0,1.5335,1.3188,0.9629,0.5151,-0.1893,-1.0737,-1.5704,0.0,0.0,0.0,0.0,0.0,0.0,0.0,0.0,0.0,-2.5463,-2.4987,-2.4377,-2.4016,-2.381,-2.3814,-2.4042,-2.4331,-2.433,-2.4311,-2.4291,-2.4374,-2.4432,-2.4488,-2.4586,-2.4631,-2.4895,-2.578,-2.6701,-2.7614,-2.8506,-2.9429,-3.0053,-3.0083,-3.0377,-3.0996,-3.2145,-3.26,-3.319,-3.424,-3.4328,-3.4281,-3.4245,-3.4556,-3.4767,-3.4803,-3.5113,-3.5243,-3.5119,-3.4907,-3.4827,-3.4902,-3.4375,-3.4177,-3.4389,-3.3865,-3.3404,-3.3076,-3.3095,-3.2831,-3.2286,-3.2037,-3.139,-3.0312,-2.9461,-2.8546,-2.7563,-2.6605,-2.6678,-2.7422,-2.7052,-2.7659,-2.8763,-2.8241,-2.8039,-2.7868,-2.6332,-2.578,-2.5749,0.0,0.0,0.0,0.0,0.0,0.0,0.0,0.0,0.0,-1.5747,-1.6655,-1.7746,-1.8962,-1.9439,0.0,0.0,0.0,0.0,0.0,0.0,0.0,0.0,-0.846,-0.2786,0.4869,0.5123,0.8573,1.5504,0.0,0.0,0.0,0.0,0.0,0.0,0.0,0.0,0.0,0.0,0.0,0.0,0.0,0.0,0.0,0.0,0.0,0.0,-2.6799,-2.5919,-2.5198,-2.508,-2.4851,-2.4649,-2.4623,-2.4585,-2.4524,-2.4524,-2.4459,-2.4395,-2.4348,-2.4385,-2.4414,-2.4449,-2.4523,-2.4892,-2.5927,-2.6774,-2.7629,-2.8654,-2.9525,-3.0132,-3.0185,-3.0875,-3.1675,-3.2398,-3.3143,-3.3847,-3.4449,-3.4427,-3.4328,-3.4316,-3.4927,-3.5392,-3.5441,-3.6006,-3.6332,-3.6204,-3.5303,-3.4623,-3.4319,-3.4444,-3.4372,-3.4055,-3.3206,-3.2455,-3.18,-3.18,-3.1727,-3.1617,-3.1557,-3.0974,-2.9926,-2.9436,-2.8283,-2.66,-2.6254,-2.6335,-2.6747,-2.671,-2.7411,-2.8482,-2.8357,-2.831,-2.8131,-2.6748,-2.6241,-2.6149,0.0,0.0,0.0,0.0,0.0,0.0,0.0,0.0,0.0,0.0,0.0,0.0,0.0,0.0,0.0,0.0,0.0,0.0,0.0,0.0,0.0,-1.2482,-1.1746,-0.8332,-0.1695,-0.1688,-0.0534,0.1979,0.2038,0.0,0.0,0.0,0.0,0.0,0.0,0.0,0.0,0.0,0.0,0.0,0.0,0.0,0.0,0.0,0.0,0.0,-2.6182,-2.5505,-2.5332,-2.5216,-2.5021,-2.4842,-2.4783,-2.4714,-2.4677,-2.4678,-2.4569,-2.434,-2.369,-2.3985,-2.4341,-2.3742,-2.4155,-2.5103,-2.6704,-2.7281,-2.7896,-2.9459,-2.9996,-3.0178,-3.0194,-3.095,-3.1793,-3.2473,-3.329,-3.4033,-3.4595,-3.4602,-3.4506,-3.4404,-3.4512,-3.4605,-3.4617,-3.467,-3.4673,-3.46,-3.4215,-3.4075,-3.4297,-3.3462,-3.2757,-3.2271,-3.2077,-3.1921,-3.18,-3.18,-3.18,-3.1764,-3.1634,-3.1073,-3.0134,-2.9211,-2.8061,-2.672,-2.5844,-2.5627,-2.5893,-2.5792,-2.6187,-2.6802,-2.6779,-2.6741,-2.6603,-2.5795,-2.5481,-2.5373,0.0,0.0,0.0,0.0,0.0,0.0,0.0,0.0,0.0,0.0,0.0,0.0,0.0,0.0,0.0,0.0,0.0,0.0,0.0,0.0,0.0,0.0,0.0,-1.4532,-0.8022,-0.8636,-0.6889,-0.2546,0.0,-0.055,0.2915,-0.0308,-0.0318,0.2029,-0.5579,-1.0913,-1.4518,0.0,0.0,0.0,-2.8092,-2.8782,0.0,0.0,0.0,0.0,0.0,-2.6152,-2.6047,-2.55,-2.5243,-2.5138,-2.5006,-2.4933,-2.4917,-2.4911,-2.4821,-2.4617,-2.4238,-2.4356,-2.4522,-2.4169,-2.4742,-2.5714,-2.7011,-2.7721,-2.8503,-2.9787,-3.0135,-3.0213,-3.0299,-3.1034,-3.1879,-3.2594,-3.341,-3.4145,-3.4727,-3.4728,-3.4623,-3.4517,-3.445,-3.4397,-3.445,-3.4351,-3.4269,-3.4209,-3.3985,-3.3831,-3.3774,-3.2899,-3.2214,-3.1818,-3.142,-3.1231,-3.1231,-3.0817,-3.061,-3.061,-3.0539,-3.0055,-2.9194,-2.8499,-2.7511,-2.6337,-2.5615,-2.5437,-2.57,-2.5563,-2.5836,-2.6349,-2.638,-2.638,-2.6272,-2.5558,-2.5296,-2.5189,0.0,0.0,0.0,0.0,0.0,0.0,0.0,0.0,-1.8106,-1.827,-1.9157,-1.9868,-2.0099,-2.093,0.0,0.0,0.0,0.0,0.0,0.0,0.0,0.0,0.0,-1.9591,-1.4545,0.0,0.0,-0.8096,-0.7964,0.0,0.0,0.0,0.0,0.0,-1.2294,-1.5854,-1.6792,-2.2647,-2.5265,0.0,0.0,-2.8149,0.0,0.0,0.0,0.0,0.0,-2.7022,-2.6712,-2.5979,-2.5586,-2.539,-2.5245,-2.5179,-2.5149,-2.5145,-2.5044,-2.4905,-2.4713,-2.4705,-2.4704,-2.4512,-2.5243,-2.6246,-2.7134,-2.807,-2.9015,-2.993,-3.0192,-3.0286,-3.0386,-3.112,-3.1973,-3.2712,-3.3522,-3.4263,-3.4895,-3.487,-3.474,-3.4668,-3.455,-3.4484,-3.4528,-3.4427,-3.4316,-3.4245,-3.3844,-3.3479,-3.3214,-3.2412,-3.1864,-3.1578,-3.0835,-3.0437,-3.0437,-2.9817,-2.9506,-2.9506,-2.9506,-2.9093,-2.8286,-2.7911,-2.7102,-2.5974,-2.5489,-2.5342,-2.5451,-2.5288,-2.549,-2.5881,-2.5933,-2.5949,-2.5872,-2.5302,-2.5081,-2.5004,0.0,0.0,0.0,0.0,0.0,0.0,0.0,0.0,-1.8208,-1.829,-1.9685,-2.0734,-2.0873,0.0,0.0,0.0,0.0,0.0,0.0,0.0,0.0,0.0,0.0,0.0,0.0,0.0,0.0,-2.2666,-2.2533,0.0,0.0,0.0,0.0,0.0,0.0,-2.3267,-2.3629,-2.4717,0.0,0.0,0.0,0.0,0.0,0.0,0.0,0.0,0.0,-2.7562,-2.6885,-2.6792,-2.6203,-2.549,-2.547,-2.5387,-2.5272,-2.5283,-2.5183,-2.4905,-2.4119,-2.4378,-2.469,-2.3901,-2.4906,-2.6332,-2.7263,-2.8213,-2.9136,-2.9999,-3.0286,-3.0392,-3.0404,-3.1149,-3.2052,-3.2852,-3.3658,-3.443,-3.5166,-3.5094,-3.4944,-3.487,-3.4751,-3.4676,-3.4676,-3.455,-3.4461,-3.4393,-3.3284,-3.2683,-3.2838,-3.1802,-3.1115,-3.0889,-3.0058,-2.961,-2.961,-2.9541,-2.9506,-2.9506,-2.9506,-2.9093,-2.8286,-2.8015,-2.719,-2.5974,-2.5441,-2.5025,-2.4683,-2.4477,-2.4441,-2.4466,-2.4502,-2.4502,-2.4487,-2.4425,-2.4394,-2.4374,0.0,0.0,0.0,0.0,0.0,0.0,0.0,0.0,-1.828,-1.8348,-1.9777,-2.0872,0.0,0.0,0.0,0.0,0.0,0.0,0.0,0.0,0.0,0.0,0.0,0.0,0.0,0.0,-2.4629,-2.4841,-2.4745,0.0,0.0,0.0,0.0,0.0,0.0,-2.4504,-2.4701,-2.5005,0.0,0.0,0.0,0.0,0.0,0.0,0.0,0.0,0.0,0.0,-2.8442,-2.7869,-2.7424,-2.703,-2.6505,-2.6315,-2.6152,-2.558,-2.5339,-2.5192,-2.481,-2.4828,-2.4878,-2.4528,-2.5703,-2.7058,-2.7476,-2.8658,-2.9791,-3.0177,-3.0336,-3.0411,-3.0504,-3.0835,-3.1502,-3.2836,-3.3337,-3.3983,-3.5244,-3.5711,-3.567,-3.5092,-3.5372,-3.5378,-3.4824,-3.4645,-3.4278,-3.3604,-3.2502,-3.1795,-3.1708,-3.1016,-3.0495,-3.0195,-2.9348,-2.8867,-2.8834,-2.8403,-2.8178,-2.8178,-2.8178,-2.8007,-2.7682,-2.7418,-2.6893,-2.6154,-2.5663,-2.5166,-2.4706,-2.4503,-2.438,-2.4302,-2.4302,-2.4302,-2.4302,-2.4302,-2.4302,-2.4302,0.0,0.0,0.0,0.0,0.0,0.0,0.0,0.0,-1.8408,-1.8485,0.0,0.0,0.0,0.0,0.0,0.0,0.0,0.0,0.0,0.0,0.0,0.0,0.0,0.0,0.0,0.0,-2.467,-2.4819,-2.4754,-2.4636,0.0,0.0,-2.4373,-2.432,0.0,0.0,0.0,0.0,0.0,0.0,0.0,0.0,0.0,0.0,0.0,0.0,0.0,0.0,0.0,0.0,0.0,-2.8113,-2.7503,-2.7301,-2.7086,-2.5886,-2.5487,-2.5417,-2.5313,-2.5193,-2.5139,-2.5355,-2.6508,-2.7632,-2.7942,-2.9173,-3.0279,-3.0354,-3.0417,-3.0495,-3.0578,-3.0619,-3.1179,-3.286,-3.3137,-3.3702,-3.5338,-3.6157,-3.6247,-3.5296,-3.5804,-3.5865,-3.4924,-3.444,-3.3761,-3.2773,-3.1701,-3.0888,-3.0425,-3.0014,-2.9736,-2.9575,-2.8666,-2.8156,-2.8107,-2.7574,-2.7299,-2.7299,-2.7299,-2.7299,-2.7282,-2.7041,-2.6708,-2.6296,-2.583,-2.5339,-2.4806,-2.4584,-2.4421,-2.4302,-2.4302,-2.4302,-2.4302,-2.4302,-2.4302,-2.4302,0.0,0.0,0.0,0.0,0.0,0.0,0.0,0.0,0.0,0.0,0.0,0.0,0.0,0.0,0.0,0.0,0.0,0.0,0.0,0.0,0.0,0.0,0.0,0.0,0.0,0.0,-2.3732,-2.4407,-2.4338,-2.4201,-2.4006,-2.3937,-2.3907,-2.3917,0.0,0.0,0.0,0.0,0.0,0.0,0.0,0.0,0.0,0.0,0.0,0.0,0.0,0.0,0.0,0.0,0.0,0.0,0.0,-2.8281,-2.7933,-2.614,-2.5544,-2.5466,-2.5333,-2.5308,-2.5475,-2.62,-2.7052,-2.7917,-2.8797,-2.9728,-3.0421,-3.0488,-3.0545,-3.0607,-3.0595,-3.0653,-3.1243,-3.2927,-3.3199,-3.3772,-3.5456,-3.6325,-3.646,-3.5501,-3.593,-3.5921,-3.4993,-3.3874,-3.2876,-3.2072,-3.1017,-2.9994,-2.9076,-2.8755,-2.8734,-2.9011,-2.796,-2.7409,-2.7409,-2.7346,-2.7299,-2.7299,-2.7299,-2.7299,-2.7282,-2.7089,-2.6775,-2.6383,-2.5886,-2.5403,-2.4863,-2.4605,-2.4421,-2.4302,-2.4302,-2.4302,-2.4302,-2.4302,-2.4302,-2.4302,0.0,0.0,0.0,0.0,0.0,0.0,0.0,0.0,0.0,0.0,0.0,0.0,0.0,0.0,0.0,0.0,0.0,0.0,0.0,0.0,0.0,0.0,0.0,0.0,0.0,0.0,0.0,-2.4481,-2.4402,-2.4312,-2.4201,-2.4135,-2.4077,-2.4036,-2.4125,-2.4257,0.0,0.0,0.0,0.0,0.0,0.0,-2.9754,0.0,0.0,0.0,0.0,0.0,0.0,0.0,0.0,0.0,0.0,0.0,0.0,-2.7732,-2.732,-2.7131,-2.6435,-2.6657,-2.7132,-2.7363,-2.8049,-2.8744,-2.9052,-2.9836,-3.0495,-3.0554,-3.0586,-3.0613,-3.0657,-3.0684,-3.1266,-3.299,-3.3262,-3.405,-3.6342,-3.7281,-3.7421,-3.653,-3.5875,-3.5312,-3.487,-3.3387,-3.232,-3.2016,-3.053,-2.9485,-2.9096,-2.8863,-2.8608,-2.833,-2.79,-2.7587,-2.7392,-2.7376,-2.7346,-2.7299,-2.7299,-2.7299,-2.7282,-2.7136,-2.6875,-2.6521,-2.6138,-2.5612,-2.5033,-2.4806,-2.4544,-2.4302,-2.4302,-2.4302,-2.4302,-2.4302,-2.4302,-2.4302,0.0,0.0,0.0,0.0,0.0,0.0,0.0,0.0,0.0,0.0,0.0,0.0,0.0,0.0,0.0,0.0,0.0,0.0,0.0,0.0,0.0,0.0,0.0,0.0,0.0,0.0,0.0,0.0,-2.4464,-2.4401,-2.4338,-2.4284,-2.4248,-2.4209,-2.4275,-2.4357,0.0,0.0,0.0,0.0,0.0,0.0,-2.9332,0.0,0.0,0.0,0.0,0.0,0.0,0.0,0.0,0.0,0.0,0.0,0.0,0.0,-2.8897,-2.8834,-2.7578,-2.7586,-2.8024,-2.8343,-2.8797,-2.9265,-2.9637,-3.0158,-3.0554,-3.0625,-3.0645,-3.0642,-3.0687,-3.0976,-3.1647,-3.3063,-3.3833,-3.4913,-3.6824,-3.7754,-3.7887,-3.6897,-3.5814,-3.5044,-3.4812,-3.3171,-3.206,-3.2008,-3.035,-2.9302,-2.9186,-2.901,-2.8725,-2.8308,-2.8014,-2.7745,-2.7542,-2.7454,-2.7376,-2.7346,-2.7315,-2.7299,-2.7299,-2.7217,-2.7006,-2.6691,-2.6314,-2.585,0.0,-2.4926,-2.4641,-2.438,-2.4317,-2.4302,-2.4302,-2.4302,-2.4302,-2.4302,0.0,0.0,0.0,0.0,0.0,0.0,0.0,0.0,0.0,0.0,0.0,0.0,0.0,0.0,0.0,0.0,0.0,0.0,0.0,0.0,0.0,0.0,0.0,0.0,0.0,0.0,0.0,-2.4503,-2.4503,-2.4486,-2.4407,0.0,-2.4409,-2.4421,-2.4479,-2.4524,0.0,0.0,0.0,0.0,-2.8824,-2.9214,0.0,0.0,0.0,0.0,0.0,0.0,0.0,0.0,0.0,0.0,0.0,0.0,0.0,0.0,0.0,0.0,0.0,-2.8239,-2.8388,-2.9194,-2.9392,-2.9605,-3.0415,-3.0602,0.0,-3.069,-3.0697,-3.0727,-3.0775,-3.1442,-3.2318,-3.3232,-3.4694,-3.606,-3.7051,-3.7831,-3.7873,-3.6764,-3.5791,-3.5077,-3.4756,-3.3144,-3.2062,-3.1933,-3.0344,-2.9376,-2.9302,-2.9186,-2.9021,-2.8827,-2.8201,-2.7862,-2.7818,-2.7559,-2.7407,-2.7392,-2.733,-2.7299,-2.7299,-2.7299,-2.7154,-2.6876,-2.6487,-2.6046,-2.5567,-2.5045,-2.4701,-2.4498,-2.4359,-2.4302,-2.4302,-2.4302,-2.4302,-2.4302,0.0,0.0,0.0,0.0,0.0,0.0,0.0,0.0,0.0,0.0,0.0,0.0,0.0,0.0,0.0,0.0,0.0,0.0,0.0,0.0,0.0,0.0,0.0,0.0,0.0,0.0,0.0,-2.4572,-2.4572,-2.4564,-2.4555,-2.4555,0.0,0.0,-2.4547,0.0,0.0,0.0,0.0,0.0,-2.8848,-2.8864,0.0,0.0,0.0,0.0,-2.5915,-2.6323,0.0,0.0,0.0,0.0,0.0,0.0,0.0,0.0,-3.063,-3.0715,-3.0288,0.0,-3.0105,-3.0312,-3.0364,-3.0418,0.0,-3.0685,-3.0682,-3.071,-3.0691,-3.0908,-3.1575,-3.1851,-3.2493,-3.4033,-3.463,-3.5635,-3.7794,-3.8218,-3.7927,-3.6948,-3.5951,-3.5013,-3.4113,-3.2949,-3.191,-3.1082,-3.001,-2.937,-2.9312,-2.9229,-2.91,-2.8952,-2.8021,-2.7624,-2.7869,-2.7659,-2.7498,-2.7392,-2.733,-2.7299,-2.7299,-2.7299,-2.7154,-2.6893,-2.664,-2.6173,-2.5586,-2.5298,-2.4906,-2.4498,-2.4477,-2.438,-2.4302,-2.4302,-2.4302,-2.4302,0.0,0.0,0.0,0.0,0.0,0.0,0.0,0.0,0.0,0.0,0.0,0.0,0.0,0.0,0.0,0.0,0.0,0.0,0.0,0.0,0.0,0.0,0.0,0.0,0.0,0.0,0.0,0.0,0.0,-2.4679,0.0,0.0,0.0,0.0,-2.4684,0.0,0.0,0.0,0.0,0.0,-2.9332,0.0,0.0,0.0,0.0,0.0,-2.5601,-2.5907,0.0,-2.6308,-2.7466,-2.8897,0.0,0.0,0.0,0.0,-3.0791,-3.0792,-3.0802,-3.0743,-3.0698,-3.0703,-3.0694,-3.0707,-3.0707,-3.0694,-3.0706,-3.0739,-3.0739,-3.1015,-3.1899,-3.2369,-3.3067,-3.4386,-3.5272,-3.6268,-3.7611,-3.7771,-3.738,-3.641,-3.5804,-3.5016,-3.3941,-3.2936,-3.1902,-3.0842,-2.99,-2.9372,-2.9355,-2.8899,-2.8621,-2.8544,-2.7479,-2.7127,-2.7571,-2.695,-2.6565,-2.6437,-2.6335,-2.645,-2.6747,-2.6747,-2.6842,-2.6974,-2.6708,-2.6314,-2.5795,-2.5451,-2.5041,-2.462,-2.4539,-2.4421,-2.4302,-2.4302,-2.4302,-2.4302,0.0,0.0,0.0,0.0,0.0,0.0,0.0,0.0,0.0,0.0,0.0,0.0,0.0,0.0,0.0,0.0,0.0,0.0,0.0,0.0,0.0,0.0,0.0,0.0,0.0,0.0,0.0,0.0,0.0,0.0,0.0,0.0,-2.4723,0.0,0.0,0.0,0.0,0.0,0.0,-2.815,-2.9906,0.0,0.0,0.0,0.0,0.0,0.0,0.0,0.0,-2.5601,-2.6765,-2.8207,-2.8209,0.0,0.0,0.0,0.0,0.0,-3.0806,-3.0769,-3.0728,-3.0714,-3.0723,-3.0717,-3.0717,-3.0717,-3.0723,-3.0784,-3.0806,-3.1118,-3.2104,-3.2903,-3.3717,-3.4645,-3.6144,-3.7127,-3.6942,-3.701,-3.6692,-3.5568,-3.5359,-3.4853,-3.3662,-3.2767,-3.1797,-3.0695,-2.9884,-2.9365,-2.9221,-2.8439,-2.7933,-2.7803,-2.6728,-2.6372,-2.6873,-2.5971,-2.5442,-2.5292,-2.5174,-2.5391,-2.5954,-2.6042,-2.6408,-2.6915,-2.6724,0.0,-2.6068,-2.5567,-2.5143,-2.4782,-2.46,-2.4421,-2.4302,-2.4302,-2.4302,-2.4281,0.0,0.0,0.0,0.0,0.0,0.0,0.0,0.0,0.0,0.0,0.0,0.0,0.0,0.0,0.0,0.0,0.0,0.0,0.0,0.0,0.0,0.0,0.0,0.0,0.0,0.0,0.0,0.0,0.0,-2.4787,-2.4779,-2.4779,-2.4801,-2.4908,0.0,0.0,0.0,0.0,-2.7937,-2.8159,-2.9901,0.0,0.0,0.0,0.0,0.0,0.0,0.0,0.0,-2.5601,-2.6751,-2.8193,-2.8199,0.0,0.0,0.0,0.0,0.0,-3.0798,-3.0791,-3.0781,-3.0773,-3.0771,-3.0788,-3.0788,-3.0788,-3.079,-3.0792,-3.0806,-3.1285,-3.2903,-3.3307,-3.3904,-3.5441,-3.6505,-3.6867,-3.6183,-3.6674,-3.65,-3.4859,-3.4613,-3.3873,-3.2122,-3.1702,-3.1054,-2.9861,-2.9645,-2.9202,-2.8347,-2.8106,-2.7656,-2.6925,-2.5952,-2.5426,-2.5348,-2.5495,-2.5482,-2.5292,-2.5174,-2.5115,-2.5195,-2.5833,-2.6132,-2.6193,0.0,-2.6572,-2.6086,-2.5758,-2.5301,-2.4782,-2.4645,-2.4467,-2.4302,-2.4302,-2.4302,-2.4261,0.0,0.0,0.0,0.0,0.0,0.0,0.0,0.0,0.0,0.0,0.0,0.0,0.0,0.0,0.0,0.0,0.0,0.0,0.0,0.0,0.0,0.0,0.0,0.0,0.0,0.0,0.0,0.0,0.0,-2.4195,-2.4176,-2.5144,-2.5394,-2.5056,0.0,-2.5958,-2.5375,0.0,-2.7943,-2.8154,0.0,0.0,0.0,0.0,0.0,0.0,0.0,0.0,0.0,0.0,-2.7152,-2.8279,-2.8751,0.0,0.0,0.0,0.0,0.0,-3.0847,-3.0846,-3.0845,-3.0844,-3.0831,-3.0798,-3.0798,-3.0798,-3.0936,-3.1409,-3.15,-3.2038,-3.3774,-3.4094,-3.4494,-3.5697,-3.6213,-3.6151,-3.5318,-3.5477,-3.5227,-3.3945,-3.3732,-3.3163,-3.18,-3.1492,-3.0925,-2.9783,-2.9232,-2.8699,-2.8124,-2.718,-2.6463,-2.6057,-2.5136,-2.4563,-2.441,-2.449,-2.4382,-2.4121,-2.3994,-2.4067,-2.4353,-2.4698,-2.508,-2.5498,0.0,-2.6033,-2.5678,-2.5702,-2.5397,-2.4902,-2.4686,-2.4487,-2.4302,-2.4302,-2.4276,-2.4193,0.0,0.0,0.0,0.0,0.0,0.0,0.0,0.0,0.0,0.0,0.0,0.0,0.0,0.0,0.0,0.0,0.0,0.0,0.0,0.0,0.0,0.0,0.0,0.0,0.0,0.0,-2.4391,-2.3714,-2.3524,-2.3505,-2.3689,-2.569,-2.6098,-2.5177,-2.63,-2.6232,-2.5419,-2.7157,-2.7913,-2.8111,0.0,0.0,0.0,0.0,0.0,0.0,0.0,0.0,0.0,0.0,0.0,0.0,0.0,0.0,0.0,-3.0801,-3.0813,-3.0836,-3.0892,-3.0893,-3.0894,-3.0894,-3.0865,-3.083,-3.0827,-3.0963,-3.1297,-3.1963,-3.2251,-3.2869,-3.4427,-3.4842,-3.5176,-3.5808,-3.5726,-3.5353,-3.4688,-3.4388,-3.3891,-3.3017,-3.2859,-3.244,-3.1505,-3.1239,-3.07,-2.9614,-2.8836,-2.8147,-2.7586,-2.6254,-2.5401,-2.5217,-2.4521,-2.4064,-2.3917,-2.3718,-2.347,-2.3126,-2.2982,-2.3137,-2.3557,-2.3733,-2.4146,-2.4749,-2.5282,-2.5439,-2.533,-2.5446,-2.5312,-2.5005,-2.471,-2.4487,-2.4302,-2.4302,-2.4234,-2.4124,0.0,0.0,0.0,0.0,0.0,0.0,0.0,0.0,0.0,0.0,0.0,0.0,0.0,0.0,0.0,0.0,0.0,0.0,0.0,0.0,0.0,0.0,0.0,0.0,0.0,-2.4676,-2.3858,-2.3795,-2.2985,-2.2996,-2.3837,-2.639,-2.6733,-2.5277,-2.6949,-2.6814,-2.5414,-2.7156,-2.7873,-2.7977,-2.9783,0.0,0.0,0.0,0.0,0.0,0.0,0.0,0.0,0.0,0.0,0.0,0.0,0.0,-3.0803,-3.0799,-3.0839,-3.0895,-3.0895,-3.0895,-3.0894,-3.0894,-3.0894,-3.0892,-3.0888,-3.1472,-3.2016,-3.2091,-3.2748,-3.3599,-3.4525,-3.5305,-3.5828,-3.5891,-3.5214,-3.4669,-3.4613,-3.3891,-3.306,-3.2182,-3.2031,-3.1626,-3.067,-3.0456,-2.9931,-2.8867,-2.8537,-2.7696,-2.605,-2.5681,-2.5161,-2.4404,-2.4256,-2.4141,-2.3996,-2.3795,-2.3547,-2.3277,-2.3015,-2.2885,-2.2894,-2.3519,-2.3836,-2.3939,-2.4645,-2.5122,-2.5379,-2.501,-2.494,-2.5068,-2.4731,-2.4487,-2.4302,-2.4302,-2.4193,-2.3982,0.0,0.0,0.0,0.0,0.0,0.0,0.0,0.0,0.0,0.0,0.0,0.0,0.0,0.0,0.0,0.0,0.0,0.0,0.0,0.0,0.0,0.0,0.0,-2.6459,-2.6409,-2.4732,-2.3597,-2.3046,-2.2765,-2.2799,-2.3169,-2.5795,0.0,-2.5317,-2.6512,-2.6395,-2.5414,-2.7113,-2.7819,-2.7949,-2.9685,-2.9671,0.0,0.0,0.0,0.0,0.0,0.0,0.0,0.0,-2.7937,-2.8439,-2.9853,-3.0527,-3.0804,-3.0854,-3.0876,-3.0895,-3.0896,-3.0897,-3.0898,-3.0898,-3.0898,-3.0897,-3.0894,-3.1146,-3.1652,-3.2682,-3.3165,-3.3838,-3.5247,-3.531,-3.5139,-3.5104,-3.436,-3.3599,-3.3057,-3.2706,-3.2178,-3.1293,-3.113,-3.0744,-2.9834,-2.9624,-2.9117,-2.8042,-2.7304,-2.6579,-2.5835,-2.5125,-2.4607,-2.4312,-2.4219,-2.4161,-2.4064,-2.3847,-2.3657,-2.347,-2.3126,-2.2906,-2.2803,-2.3018,-2.3129,-2.315,-2.3852,-2.4371,-2.4741,-2.4862,-2.498,-2.5052,-2.4589,-2.4364,-2.4302,-2.4302,-2.4234,-2.4103,0.0,0.0,0.0,0.0,0.0,0.0,0.0,0.0,0.0,0.0,0.0,0.0,0.0,0.0,0.0,0.0,0.0,0.0,0.0,0.0,0.0,0.0,0.0,-2.6115,-2.6079,-2.4673,-2.3627,-2.3015,-2.3093,-2.3149,-2.3217,0.0,-2.6206,-2.5406,-2.6241,-2.614,-2.5416,-2.6838,-2.7574,-2.7925,-2.9329,-2.9569,0.0,0.0,0.0,0.0,0.0,0.0,0.0,0.0,-2.8175,-2.8498,-3.0258,-3.0798,-3.0803,-3.085,-3.0874,-3.0896,-3.0897,-3.0898,-3.0898,-3.0898,-3.0898,-3.0898,-3.0898,-3.1092,-3.1598,-3.2747,-3.3208,-3.3763,-3.4956,-3.469,-3.4265,-3.4205,-3.3462,-3.2584,-3.1709,-3.1342,-3.0854,-2.9985,-2.9846,-2.9566,-2.8943,-2.8765,-2.8254,-2.7235,-2.6472,-2.5855,-2.5468,-2.4762,-2.4348,-2.4294,-2.4238,-2.4171,-2.4123,-2.3927,-2.3742,-2.3598,-2.3235,-2.2982,-2.2829,-2.2738,-2.2699,-2.2733,-2.3196,-2.3633,-2.4049,-2.4497,-2.4801,-2.495,-2.4487,-2.4302,-2.4302,-2.4302,-2.4255,-2.4166,0.0,0.0,0.0,0.0,0.0,0.0,0.0,0.0,0.0,0.0,0.0,0.0,0.0,0.0,0.0,0.0,0.0,0.0,0.0,0.0,0.0,0.0,0.0,-2.5264,-2.5192,-2.4437,-2.3986,-2.388,-2.4038,-2.4142,-2.4249,-2.5975,-2.6335,-2.5546,-2.6327,-2.6203,-2.5447,-2.6261,-2.7058,-2.7856,-2.8653,-2.8991,-2.901,0.0,0.0,0.0,0.0,0.0,0.0,0.0,-2.8164,-2.8513,-3.0242,-3.0809,-3.0803,-3.0791,-3.0854,-3.0897,-3.0898,-3.0898,-3.0898,-3.0898,-3.0898,-3.0898,-3.0897,-3.1523,-3.2088,-3.2108,-3.2783,-3.3392,-3.3397,-3.3382,-3.3361,-3.33,-3.2551,-3.1686,-3.0814,-2.9933,-2.9071,-2.82,-2.8105,-2.8078,-2.7995,-2.787,-2.7407,-2.6453,-2.6189,-2.5676,-2.4754,-2.4568,-2.4429,-2.4294,-2.4229,-2.4201,-2.419,-2.3996,-2.3795,-2.3606,-2.3324,-2.3077,-2.2906,-2.2764,-2.2699,-2.2699,-2.2699,-2.2966,-2.3429,-2.3829,-2.4309,-2.4746,-2.4441,-2.4302,-2.4302,-2.4302,-2.4255,-2.4202,0.0,0.0,0.0,0.0,0.0,0.0,0.0,0.0,0.0,0.0,0.0,0.0,0.0,0.0,0.0,0.0,0.0,0.0,0.0,0.0,0.0,0.0,0.0,0.0,0.0,0.0,-2.501,-2.3191,-2.3844,-2.4203,0.0,-2.5421,-2.5828,-2.5577,-2.5828,-2.577,-2.5519,-2.6334,-2.68,-2.7094,-2.7847,-2.8531,-2.8998,0.0,0.0,0.0,0.0,0.0,0.0,0.0,0.0,0.0,-3.0369,-3.076,-3.081,-3.0799,-3.085,-3.0895,-3.0897,-3.0898,-3.0898,-3.0898,-3.0898,-3.0898,-3.0896,-3.1074,-3.1425,-3.1989,-3.2784,-3.34,-3.3407,-3.2908,-3.2459,-3.2402,-3.1646,-3.0788,-2.992,-2.9564,-2.9087,-2.8205,-2.8097,-2.7826,-2.7155,-2.7007,-2.6577,-2.5636,-2.5406,-2.5137,-2.4718,-2.4572,-2.4436,-2.4294,-2.4229,-2.4201,-2.419,-2.3996,-2.3795,-2.3606,-2.3324,-2.3077,-2.2906,-2.2764,-2.2699,-2.2699,-2.2699,-2.2966,-2.345,-2.3931,-2.4143,-2.419,-2.4261,-2.4302,-2.4302,-2.4302,-2.4297,-2.4255,0.0,0.0,0.0,0.0,0.0,0.0,0.0,0.0,0.0,0.0,0.0,-2.5699,0.0,0.0,0.0,0.0,0.0,0.0,0.0,0.0,0.0,0.0,0.0,0.0,0.0,-2.6452,-2.5989,0.0,0.0,0.0,-2.4871,-2.5394,-2.5645,-2.5644,-2.5634,-2.5598,-2.5571,-2.6067,-2.6423,-2.6736,-2.7189,-2.8078,-2.9091,0.0,0.0,0.0,0.0,0.0,0.0,0.0,0.0,0.0,-3.0362,-3.0713,-3.0777,-3.0783,-3.0824,-3.0874,-3.0896,-3.0898,-3.0898,-3.0898,-3.0898,-3.0897,-3.0896,-3.0897,-3.1035,-3.1521,-3.2045,-3.241,-3.2373,-3.1934,-3.1568,-3.1531,-3.0792,-2.9916,-2.9052,-2.8635,-2.8078,-2.717,-2.7066,-2.6838,-2.6285,-2.6161,-2.5871,-2.5287,-2.5122,-2.4961,-2.4791,-2.4653,-2.4515,-2.4348,-2.4275,-2.421,-2.4161,-2.3986,-2.3813,-2.3602,-2.3342,-2.3077,-2.2906,-2.2764,-2.2699,-2.2699,-2.2596,-2.2813,-2.3249,-2.3335,-2.3546,-2.3856,-2.3889,-2.4071,-2.4302,-2.4302,-2.4302,-2.4281,0.0,0.0,-2.2459,-2.4101,0.0,0.0,0.0,0.0,0.0,-2.5708,-2.5708,-2.5709,0.0,0.0,0.0,-2.5708,0.0,0.0,0.0,0.0,0.0,0.0,0.0,0.0,0.0,0.0,0.0,0.0,0.0,-2.6498,-2.5703,-2.5704,-2.5693,-2.5694,-2.5704,-2.5665,-2.5611,-2.5613,-2.5989,-2.6607,-2.6599,-2.7563,-2.8999,-2.9069,0.0,0.0,0.0,0.0,0.0,0.0,0.0,0.0,-3.033,-3.0632,-3.0709,-3.0782,-3.0794,-3.0811,-3.0876,-3.0898,-3.0897,-3.0897,-3.0896,-3.0894,-3.0896,-3.0895,-3.0897,-3.0898,-3.0837,-3.0754,-3.0689,-3.0624,-3.0574,-3.056,-2.9897,-2.9082,-2.8193,-2.74,-2.6544,-2.5619,-2.5495,-2.5501,-2.5496,-2.5433,-2.5372,-2.5317,-2.5182,-2.505,-2.4905,-2.4791,-2.4609,-2.4412,-2.4339,-2.4247,-2.4094,-2.3966,-2.3792,-2.3611,-2.3319,-2.3095,-2.2906,-2.2764,-2.2699,-2.2685,-2.2422,-2.2521,-2.2884,-2.2312,-2.2702,-2.3594,-2.3394,-2.3671,-2.4225,-2.4287,-2.4302,-2.4297,0.0,0.0,-2.3934,-2.4337,0.0,0.0,0.0,0.0,-2.5693,-2.5693,-2.5696,-2.5698,-2.5698,-2.5698,0.0,-2.5698,-2.4896,0.0,0.0,0.0,0.0,0.0,0.0,0.0,0.0,0.0,0.0,0.0,0.0,-2.6485,-2.5708,-2.5699,-2.5701,-2.5694,-2.5693,-2.5692,-2.5673,-2.5681,-2.5742,-2.584,-2.5836,-2.6433,-2.7373,-2.7952,-2.8566,0.0,0.0,0.0,0.0,0.0,0.0,0.0,-3.0434,-3.0571,-3.0658,-3.0752,-3.0799,-3.0806,-3.0874,-3.0898,-3.0897,-3.0897,-3.0894,-3.0909,-3.089,-3.0892,-3.0897,-3.0897,-3.0367,-2.9855,-2.9797,-2.9262,-2.8821,-2.8777,-2.8595,-2.8185,-2.7298,-2.7012,-2.6569,-2.5674,-2.5522,-2.5505,-2.5495,-2.5441,-2.538,-2.537,-2.5248,-2.5097,-2.4902,-2.4813,-2.4666,-2.4412,-2.4339,-2.4247,-2.4094,-2.3917,-2.375,-2.3611,-2.3271,-2.3028,-2.2906,-2.2764,-2.2699,-2.2685,-2.2422,-2.2279,-2.221,-2.2135,-2.215,-2.2301,-2.3006,-2.3394,-2.3579,-2.4117,-2.4302,-2.4281,0.0,0.0,0.0,0.0,0.0,0.0,0.0,0.0,-2.5697,-2.5697,-2.5699,-2.57,-2.57,-2.5329,0.0,0.0,-2.4529,-2.3943,0.0,0.0,0.0,0.0,0.0,0.0,0.0,0.0,0.0,0.0,-2.6716,-2.652,-2.5707,-2.5709,-2.5708,-2.5705,-2.5702,-2.5701,-2.5701,-2.5693,-2.5681,-2.5646,-2.565,-2.6354,-2.7462,-2.7858,-2.8702,-2.9778,-3.0164,0.0,0.0,0.0,0.0,0.0,0.0,0.0,-3.0611,-3.071,-3.078,-3.082,-3.0831,-3.0879,-3.0895,-3.0853,-3.0849,-3.0865,-3.0888,-3.091,-3.0895,-3.0898,-3.0544,-3.0208,-3.0135,-2.9772,-2.9349,-2.8905,-2.8469,-2.7901,-2.7018,-2.6532,-2.61,-2.5609,-2.5522,-2.5501,-2.5507,-2.5468,-2.5436,-2.5397,-2.5317,-2.5168,-2.5,-2.4875,-2.4714,-2.4498,-2.4375,-2.4257,-2.4151,-2.3917,-2.3739,-2.3611,-2.3259,-2.3008,-2.2803,-2.2725,-2.2699,-2.2685,-2.2422,-2.2163,-2.193,-2.1681,-2.164,-2.1794,-2.2186,-2.2732,-2.3332,-2.3686,-2.4025,-2.4261,0.0,0.0,0.0,0.0,0.0,0.0,0.0,0.0,0.0,-2.57,-2.5701,-2.5701,-2.5701,-2.492,-2.4686,0.0,0.0,0.0,-2.4335,0.0,0.0,0.0,0.0,0.0,0.0,0.0,0.0,0.0,-2.6737,-2.6406,-2.5696,-2.5696,-2.5773,-2.5928,-2.5768,-2.5786,-2.5902,-2.576,-2.5692,-2.5717,-2.5861,-2.6707,-2.7919,-2.8214,-2.9096,-3.0186,-3.026,-3.0266,-3.02,-3.0207,0.0,0.0,0.0,0.0,-3.0572,-3.0656,-3.0728,-3.0786,-3.0804,-3.0859,-3.0891,-3.0824,-3.0822,-3.0823,-3.0866,-3.0888,-3.0891,-3.0897,-3.0781,-3.0659,-3.061,-3.0479,-3.0133,-2.9402,-2.8673,-2.7948,-2.7225,-2.6498,-2.6022,-2.5952,-2.5829,-2.5714,-2.5712,-2.5588,-2.5472,-2.5415,-2.5346,-2.525,-2.5113,-2.4924,-2.4749,-2.4607,-2.4429,-2.4275,-2.419,-2.3955,-2.375,-2.3605,-2.3247,-2.294,-2.2712,-2.2712,-2.2699,-2.2685,-2.2422,-2.2149,-2.1868,-2.1244,-2.1227,-2.1523,-2.135,-2.1981,-2.2978,-2.3209,-2.3656,-2.4107,0.0,0.0,0.0,0.0,0.0,0.0,0.0,0.0,0.0,0.0,-2.5703,-2.5703,-2.5703,-2.4922,-2.4453,-2.4551,-2.3672,-2.3476,0.0,0.0,0.0,0.0,0.0,0.0,0.0,0.0,0.0,-2.5768,-2.5831,-2.5818,-2.5694,-2.57,-2.609,-2.6788,-2.6045,-2.6121,-2.6781,-2.6014,-2.5698,-2.5772,-2.6516,-2.6916,-2.7226,-2.8669,-2.9248,-2.936,-3.0047,-3.0254,-3.0199,-3.02,-3.0214,0.0,0.0,0.0,-3.0446,-3.0589,-3.0662,-3.0733,-3.0785,-3.0859,-3.0902,-3.0886,-3.0887,-3.0866,-3.0822,-3.0865,-3.0908,-3.089,-3.0292,-2.9763,-2.9755,-2.9135,-2.8592,-2.8475,-2.8314,-2.817,-2.8037,-2.7926,-2.7825,-2.775,-2.7092,-2.6629,-2.6626,-2.5948,-2.5472,-2.5415,-2.5384,-2.5297,-2.5119,-2.4961,-2.4801,-2.4615,-2.4455,-2.4331,-2.419,-2.3996,-2.3813,-2.3678,-2.3223,-2.2927,-2.279,-2.2725,-2.2699,-2.2685,-2.2422,-2.2178,-2.194,-2.1275,-2.0957,-2.095,-2.12,-2.1411,-2.172,-2.2871,-2.3363,-2.3497,0.0,0.0,0.0,0.0,0.0,0.0,0.0,0.0,0.0,0.0,0.0,-2.5703,-2.5703,-2.4922,-2.4394,-2.4394,-2.3594,0.0,0.0,0.0,0.0,0.0,0.0,0.0,0.0,0.0,0.0,-2.5593,-2.5632,-2.5665,-2.571,-2.6207,-2.6638,-2.7008,-2.7102,-2.7373,-2.7704,-2.7326,-2.7165,-2.7182,-2.7564,-2.7989,-2.8434,-2.9123,-2.9593,-2.9929,-3.0206,-3.0254,-3.0194,-3.0206,-3.02,-3.0214,-3.0235,0.0,0.0,0.0,-3.0556,-3.0664,-3.077,-3.0818,-3.0838,-3.0834,-3.0871,-3.0887,-3.0822,-3.0822,-3.0845,-3.0888,-3.0603,-3.0332,-3.0329,-2.9985,-2.9541,-2.9044,-2.8946,-2.8766,-2.8271,-2.8199,-2.8178,-2.8103,-2.7755,-2.7524,-2.754,-2.7152,-2.6698,-2.6161,-2.6091,-2.5808,-2.5195,-2.4994,-2.4851,-2.4711,-2.4551,-2.4394,-2.4257,-2.4085,-2.3852,-2.3522,-2.318,-2.2932,-2.2803,-2.3156,-2.3068,-2.2619,-2.2391,-2.2163,-2.1897,-2.134,-2.099,-2.0793,-2.08,-2.1,-2.1411,-2.2378,-2.2978,-2.3374,0.0,0.0,0.0,0.0,0.0,0.0,0.0,0.0,0.0,0.0,0.0,-2.5703,-2.5703,0.0,0.0,0.0,-2.3418,0.0,0.0,0.0,0.0,0.0,0.0,0.0,0.0,0.0,-2.5533,-2.5571,-2.5586,-2.5629,-2.5723,-2.6828,-2.7321,-2.7362,-2.8004,-2.8412,-2.8625,-2.8386,-2.8303,-2.8319,-2.8511,-2.8961,-2.9528,-2.966,-3.0067,-3.0511,-3.0367,-3.0286,-3.0221,-3.0199,-3.0199,-3.02,-3.02,-3.0279,0.0,0.0,0.0,-3.0639,-3.0762,-3.0808,-3.0798,-3.08,-3.0856,-3.0889,-3.0844,-3.0801,-3.0803,-3.0865,-3.0892,-3.0897,-3.0879,-3.0834,-3.0586,-2.9949,-2.9838,-2.9602,-2.8946,-2.8855,-2.8831,-2.8773,-2.8577,-2.8423,-2.8411,-2.8162,-2.7755,-2.7082,-2.6973,-2.6646,-2.5907,-2.5685,-2.552,-2.5408,-2.525,-2.5095,-2.494,-2.4767,-2.4469,-2.4029,-2.3756,-2.3571,-2.3419,-2.3895,-2.3746,-2.3117,-2.2952,-2.2632,-2.2165,-2.1695,-2.1263,-2.0844,-2.0509,-2.068,-2.1152,-2.1797,-2.2455,-2.3132,0.0,0.0,0.0,0.0,0.0,0.0,0.0,0.0,0.0,0.0,0.0,-2.5703,-2.5703,-2.4922,-2.4394,-2.4394,-2.291,0.0,0.0,0.0,0.0,0.0,0.0,0.0,0.0,-2.5561,-2.5561,-2.5502,-2.5571,-2.5634,-2.5731,-2.7447,-2.8237,-2.8222,-2.828,-2.8767,-2.9488,-2.8645,-2.8292,-2.8368,-2.9138,-2.9457,-2.9581,-3.0348,-3.0614,-3.0589,-3.0433,-3.0339,-3.0299,-3.0213,-3.0211,-3.0192,-3.0192,-3.0194,-3.0215,0.0,0.0,0.0,-3.0767,-3.0794,-3.0801,-3.0798,-3.0859,-3.0896,-3.0909,-3.0844,-3.08,-3.0801,-3.0865,-3.0871,-3.0816,-3.08,-3.0788,-3.0743,-3.0737,-3.0723,-3.0667,-3.0653,-3.0631,-3.0561,-2.9841,-2.9311,-2.9233,-2.8543,-2.8057,-2.7932,-2.7927,-2.7856,-2.7672,-2.7529,-2.7347,-2.7081,-2.7003,-2.687,-2.668,-2.6408,-2.6111,-2.5768,-2.5498,-2.5261,-2.506,-2.4974,-2.4815,-2.4599,-2.4509,-2.3936,-2.3008,-2.254,-2.1843,-2.1038,-2.0577,-2.0421,-2.0528,-2.1121,-2.1781,-2.244,0.0,0.0,0.0,0.0,0.0,0.0,0.0,0.0,0.0,0.0,0.0,0.0,0.0,-2.543,-2.5019,-2.4453,-2.334,0.0,0.0,0.0,0.0,0.0,0.0,0.0,0.0,-2.5515,-2.5526,-2.5501,-2.5528,-2.5576,-2.5664,-2.6887,-2.7764,-2.8357,-2.9471,-3.0135,-3.0407,-3.009,-2.9971,-2.999,-3.0235,-3.0325,-3.0375,-3.0655,-3.0722,-3.0649,-3.0516,-3.0422,-3.0356,-3.0246,-3.0206,-3.0211,-3.0211,-3.0199,-3.0226,-3.0336,-3.0455,-3.058,-3.0704,-3.0769,-3.0792,-3.0804,-3.0817,-3.084,-3.0836,-3.085,-3.0845,-3.0801,-3.0845,-3.0889,-3.0871,-3.0859,-3.0857,-3.0813,-3.0805,-3.0809,-3.08,-3.0804,-3.0781,-3.0711,-3.0422,-3.0226,-3.0199,-2.9908,-2.9485,-2.8949,-2.8861,-2.8541,-2.7902,-2.7698,-2.7514,-2.7331,-2.7184,-2.6981,-2.6752,-2.6515,-2.6272,-2.6021,-2.5707,-2.5464,-2.5282,-2.5632,-2.5665,-2.5506,-2.5951,-2.5284,-2.384,-2.3408,-2.2703,-2.1826,-2.1407,-2.0883,-2.0466,-2.1075,-2.1442,-2.1812,0.0,0.0,0.0,-3.0898,0.0,-2.9746,-2.8867,-2.8242,-2.7559,-2.6699,0.0,0.0,0.0,0.0,-2.5664,-2.4492,-2.3867,-2.3789,-2.4355,0.0,0.0,0.0,0.0,0.0,0.0,-2.5495,-2.5499,-2.5495,-2.5499,-2.5526,-2.5612,-2.6538,-2.7441,-2.8352,-2.9821,-3.0624,-3.0898,-3.0894,-3.0891,-3.091,-3.0846,-3.0821,-3.0794,-3.0792,-3.0777,-3.0727,-3.0578,-3.0486,-3.0383,-3.0273,-3.0226,-3.0211,-3.0211,-3.0211,-3.0213,-3.0324,-3.0408,-3.0451,-3.0593,-3.0671,-3.0734,-3.0751,-3.0782,-3.0797,-3.0801,-3.0857,-3.0891,-3.0849,-3.0869,-3.089,-3.089,-3.0896,-3.0898,-3.0839,-3.0834,-3.0822,-3.0798,-3.08,-3.0774,-3.071,-3.0711,-3.071,-3.0704,-3.0665,-3.0401,-2.9834,-2.9767,-2.9457,-2.8821,-2.8626,-2.842,-2.819,-2.7974,-2.7773,-2.7565,-2.7405,-2.7175,-2.6941,-2.6624,-2.6339,-2.6079,-2.6442,-2.6488,-2.6322,-2.6802,-2.6129,-2.4675,-2.4298,-2.3586,-2.2683,-2.2221,-2.1516,-2.0845,-2.117,-2.1304,-2.1458,-3.0807,-3.0855,-3.0897,-3.0898,-3.0898,-3.0605,-2.9726,-2.9609,-2.9297,-2.8418,0.0,0.0,0.0,0.0,0.0,-2.4668,-2.4512,-2.4492,-2.4473,-2.4488,0.0,0.0,0.0,0.0,0.0,-2.5518,-2.5515,-2.5495,-2.5518,-2.5553,-2.5621,-2.6455,-2.7383,-2.8334,-2.9172,-3.0057,-3.0898,-3.0898,-3.0896,-3.0894,-3.091,-3.0865,-3.08,-3.0795,-3.0794,-3.0772,-3.0655,-3.0513,-3.0392,-3.0323,-3.0266,-3.0211,-3.0211,-3.0211,-3.0206,-3.0292,-3.0299,-3.0334,0.0,0.0,0.0,-3.0684,-3.0743,-3.0796,-3.0793,-3.0859,-3.0897,-3.0897,-3.0896,-3.0895,-3.0895,-3.0896,-3.0898,-3.0898,-3.0898,-3.0874,-3.0816,-3.0796,-3.0789,-3.0709,-3.0704,-3.0701,-3.0704,-3.07,-3.0673,-3.061,-3.0606,-3.0576,-3.0501,-3.0436,-3.0174,-2.9726,-2.9513,-2.9361,-2.9302,-2.9175,-2.8952,-2.8601,-2.8335,-2.7993,-2.7602,-2.7469,-2.7296,-2.7103,-2.704,-2.6451,-2.5529,-2.5178,-2.4475,-2.3582,-2.297,-2.229,-2.1621,-2.1391,-2.1319,-2.1396,-3.0854,-3.0897,-3.0898,-3.0898,-3.0898,-3.0605,-2.9726,-2.9609,-2.9297,0.0,0.0,0.0,-2.7969,-2.7949,-2.7754,-2.7266,-2.7226,-2.6953,-2.6328,-2.6284,-2.6095,-2.5655,-2.5564,-2.5525,-2.5499,-2.6075,-2.6062,-2.5437,-2.6103,-2.6139,-2.5534,-2.5819,-2.6771,-2.8239,-2.8537,-2.9466,-3.0838,-3.0877,-3.0896,-3.0894,-3.091,-3.0865,-3.08,-3.0795,-3.0799,-3.0789,-3.0707,-3.0599,-3.0462,-3.0383,-3.0299,-3.0194,-3.0192,-3.0211,-3.0199,-3.0214,-3.0254,-3.0324,-3.0402,0.0,0.0,0.0,0.0,0.0,-3.0737,-3.0781,-3.0832,-3.0835,-3.0838,-3.0839,-3.0839,-3.0839,-3.0837,-3.0831,-3.0873,-3.0873,-3.0801,-3.0799,-3.0789,-3.0709,-3.0704,-3.0704,-3.0706,-3.0703,-3.0683,-3.0676,-3.068,-3.0637,-3.058,-3.0373,-3.0109,-2.9775,-2.9672,-2.9504,-2.9291,-2.9222,-2.9033,-2.8749,-2.8414,-2.8091,-2.773,-2.7557,-2.7341,-2.7103,-2.7086,-2.6854,-2.6471,-2.6047,-2.5304,-2.442,-2.3797,-2.3069,-2.2306,-2.2102,-2.172,-2.1473,-3.0896,-3.0898,-3.0898,-3.0898,-3.0898,-3.0723,-3.0215,-3.0137,-2.9961,0.0,0.0,0.0,-2.8887,-2.8516,-2.8301,-2.8301,-2.8301,-2.8085,-2.7576,-2.7197,-2.6746,-2.6162,-2.5735,-2.5651,-2.599,-2.646,-2.662,-2.6483,-2.702,-2.7032,-2.6542,-2.6608,-2.7387,-2.871,-2.8762,-2.9547,-3.0792,-3.0836,-3.0876,-3.0895,-3.0892,-3.0888,-3.0844,-3.0819,-3.0807,-3.079,-3.072,-3.0625,-3.0528,-3.0433,-3.0305,-3.0194,-3.0192,-3.0211,-3.0192,-3.0206,-3.0233,-3.0279,-3.0311,-3.0373,-3.0428,-3.0492,0.0,0.0,-3.0655,-3.0701,-3.0751,-3.0758,-3.075,-3.0757,-3.0755,-3.0753,-3.0749,-3.0714,-3.0758,-3.0762,-3.0757,-3.0756,-3.0747,-3.0707,-3.0704,-3.0694,-3.0694,-3.0706,-3.0706,-3.0701,-3.069,-3.0665,-3.0597,-3.037,-3.0137,-2.9934,-2.9813,-2.9645,-2.9435,-2.9301,-2.9127,-2.8881,-2.8543,-2.8187,-2.7789,-2.7585,-2.7388,-2.7184,-2.7119,-2.7054,-2.6941,-2.6469,-2.5887,-2.5208,-2.4585,-2.3812,-2.2989,-2.2779,-2.2289,-2.1874,0.0,-3.0898,-3.0898,-3.0898,-3.0898,-3.0898,-3.0898,-3.0898,-3.0898,0.0,-3.0898,-3.0605,-2.9824,-2.9043,-2.8594,-2.8594,-2.8573,-2.8533,-2.8451,-2.7712,-2.7154,-2.6907,-2.6175,-2.6068,-2.6678,-2.6871,-2.7301,-2.7991,-2.8096,-2.8083,-2.7996,-2.807,-2.8579,-2.9398,-2.9479,-2.9987,-3.0799,-3.0793,-3.0837,-3.0897,-3.0895,-3.0892,-3.0888,-3.0823,-3.0798,-3.0788,-3.0728,-3.0668,-3.0583,-3.0446,-3.0305,-3.0211,-3.0211,-3.0211,-3.0211,-3.0211,-3.0211,-3.0192,-3.02,-3.0234,-3.0305,-3.0377,-3.0446,0.0,-3.0557,-3.063,-3.0682,-3.0682,-3.067,-3.0686,-3.0673,-3.067,-3.0642,-3.0584,-3.0571,-3.0594,-3.0673,-3.0681,-3.0675,-3.068,-3.0677,-3.0677,-3.068,-3.0684,-3.0692,-3.0707,-3.0695,-3.0667,-3.0593,-3.0423,-3.0272,-3.0126,-2.9929,-2.9789,-2.9635,-2.9435,-2.9209,-2.9014,-2.8669,-2.8251,-2.7786,-2.7585,-2.7436,-2.7282,-2.7168,-2.7119,-2.707,-2.6624,-2.6226,-2.5862,-2.5278,-2.4508,-2.3706,-2.3509,-2.2998,-2.2501,-3.0898,-3.0898,-3.0898,-3.0898,-3.0898,-3.0898,-3.0898,-3.0898,-3.0898,-3.0898,-3.0898,-3.084,-3.0664,-3.0488,-3.039,-3.039,-3.0349,-3.0033,-2.9381,-2.9138,-2.8355,-2.6882,-2.7268,-2.7239,-2.6635,-2.7991,-2.8442,-2.7928,-2.869,-2.8699,-2.8006,-2.8074,-2.8565,-2.9396,-2.9466,-2.9975,-3.0804,-3.0805,-3.0834,-3.0897,-3.0895,-3.0892,-3.0888,-3.0823,-3.0798,-3.0809,-3.0793,-3.0742,-3.0642,-3.0395,-3.0267,-3.0211,-3.0211,-3.0211,-3.0211,-3.0211,-3.0211,-3.0211,-3.0192,-3.0219,-3.0234,-3.0305,-3.0373,0.0,-3.0449,-3.0487,-3.0549,-3.0549,-3.0533,-3.0535,-3.0531,-3.0498,-3.0442,-3.0434,-3.0385,-3.0414,-3.0591,-3.0576,-3.0535,-3.054,-3.055,-3.054,-3.0548,-3.0593,-3.063,-3.0694,-3.0701,-3.0672,-3.0595,-3.055,-3.0462,-3.0278,-3.0176,-3.0026,-2.9847,-2.9636,-2.9392,-2.9071,-2.8688,-2.8291,-2.7869,-2.763,-2.7436,-2.7299,-2.7266,-2.7201,-2.7086,-2.6775,-2.6401,-2.6013,-2.5454,-2.4965,-2.4538,-2.4337,-2.3767,-2.3194,-3.0898,-3.0898,-3.0898,-3.0898,-3.0898,-3.0898,-3.0898,-3.0898,-3.0898,-3.0898,-3.0898,-3.0898,-3.0898,-3.0898,-3.0898,-3.0897,-3.0876,-3.0657,-3.0233,-2.9769,-2.9077,-2.8139,-2.8035,-2.7966,-2.7904,-2.8716,-2.9151,-2.9142,-2.9613,-2.9646,-2.9255,-2.9319,-2.9574,-3.0001,-3.0076,-3.036,-3.0792,-3.0798,-3.0832,-3.0897,-3.0896,-3.0894,-3.0891,-3.0824,-3.0798,-3.0809,-3.0791,-3.0691,-3.0519,-3.035,-3.026,-3.0211,-3.0211,-3.0211,-3.0211,-3.0211,-3.0211,-3.0185,-3.0164,-3.0145,-3.0159,-3.0185,-3.0226,0.0,0.0,-3.0304,-3.0352,-3.0352,-3.0344,-3.0361,-3.0361,-3.0294,-3.0271,-3.0291,-3.0235,-3.0241,-3.035,-3.0345,-3.0356,-3.0398,-3.0369,-3.0386,-3.0433,-3.0516,-3.0602,-3.0746,-3.0745,-3.0725,-3.0639,-3.0614,-3.0546,-3.0452,-3.0321,-3.0169,-3.0004,-2.9806,-2.9522,-2.9191,-2.8796,-2.8399,-2.8045,-2.7704,-2.7483,-2.7362,-2.7297,-2.7266,-2.7185,-2.6908,-2.664,-2.6332,-2.5607,-2.5182,-2.4926,-2.462,-2.424,-2.3952,-3.0898,-3.0898,-3.0898,-3.0898,-3.0898,-3.0898,-3.0898,-3.0898,-3.0898,-3.0898,-3.0898,-3.0898,-3.0898,-3.0898,-3.0898,-3.0897,-3.0895,-3.0869,-3.0792,-3.0126,-2.9621,-2.9396,-2.8808,-2.8695,-2.917,-2.9292,-2.9698,-3.0404,0.0,0.0,-3.0481,-3.0559,-3.0601,-3.0602,-3.0667,-3.0748,-3.08,-3.0791,-3.0849,-3.0897,-3.0897,-3.0897,-3.0894,-3.0825,-3.0796,-3.0804,-3.0772,-3.0611,-3.0381,-3.0315,-3.026,-3.0211,-3.0211,-3.0211,-3.0211,-3.0211,-3.0211,-3.0197,-3.0116,-3.0101,-3.0094,-3.0102,-3.0098,-3.0094,0.0,0.0,0.0,-3.0147,-3.0121,-3.0114,-3.0114,-3.0059,-3.003,-3.0094,-3.0064,-3.0026,-3.0014,-3.0075,-3.0129,-3.0209,-3.0195,-3.0209,-3.0331,-3.0446,-3.058,-3.0767,-3.0778,-3.0762,-3.0703,-3.0649,-3.0614,-3.0621,-3.0441,-3.0285,-3.0163,-2.9926,-2.9663,-2.9326,-2.8911,-2.8534,-2.8201,-2.7806,-2.7544,-2.7409,-2.733,-2.7282,-2.725,-2.7024,-2.6825,-2.6624,-2.583,-2.5378,-2.5127,-2.4746,-2.458,-2.4477,-3.0898,-3.0898,-3.0898,-3.0898,-3.0898,-3.0898,-3.0898,-3.0898,-3.0898,-3.0898,-3.0898,-3.0898,-3.0898,-3.0898,-3.0898,-3.0897,-3.0854,-3.0804,-3.0801,-3.0647,-3.0185,-2.9353,-2.9897,-2.9866,-2.9132,-2.9852,-3.0308,-3.0404,0.0,0.0,-3.0409,-3.0545,-3.0592,-3.0604,-3.0664,-3.0742,-3.0806,-3.0807,-3.0847,-3.0895,-3.0898,-3.0897,-3.0894,-3.0825,-3.0794,-3.0773,-3.0678,-3.0528,-3.0392,-3.0328,-3.026,-3.0211,-3.0211,-3.0211,-3.0211,-3.0211,-3.0211,-3.0197,-3.0116,-3.0101,-3.0094,-3.0102,-3.0102,-3.0076,-3.0011,0.0,-2.9929,-2.9934,0.0,-2.9841,-2.9841,0.0,0.0,-2.9761,-2.9761,-2.9754,-2.9747,-2.9756,-2.9789,-2.9929,-2.9996,-3.0057,-3.0126,-3.0361,-3.0565,-3.0695,-3.0716,-3.0706,-3.0706,-3.0682,-3.0681,-3.0683,-3.0552,-3.0437,-3.0369,-3.0047,-2.9756,-2.9476,-2.9012,-2.8566,-2.8188,-2.7844,-2.7569,-2.7409,-2.733,-2.7233,-2.7119,-2.7024,-2.6875,-2.6641,-2.6119,-2.5698,-2.5339,-2.5127,-2.4806,-2.4498,-3.0898,-3.0898,-3.0898,-3.0898,-3.0898,-3.0898,-3.0898,-3.0898,-3.0898,-3.0898,-3.0898,-3.0898,-3.0898,-3.1348,-3.164,-3.16,-3.2028,-3.2081,-3.1591,-3.149,-3.1035,-3.0098,-3.0332,-3.0295,-2.9852,-3.0212,-3.0404,-3.0404,-3.0404,0.0,0.0,0.0,-3.0559,-3.0597,-3.0634,-3.0682,-3.0735,-3.0781,-3.0845,-3.0895,-3.0898,-3.0898,-3.0895,-3.0826,-3.0774,-3.0725,-3.0622,-3.0501,-3.0396,-3.0317,-3.026,-3.0211,-3.0211,-3.0211,-3.0211,-3.0211,-3.0171,-3.0142,-3.0106,-3.0076,-3.0026,-2.9983,-2.9943,-2.991,-2.983,-2.978,-2.97,-2.9682,0.0,0.0,0.0,0.0,0.0,0.0,-2.9551,-2.9541,-2.9531,-2.9492,-2.9551,-2.9764,-2.9799,-2.9907,-3.014,-3.0325,-3.051,-3.0637,-3.0685,-3.0704,-3.07,-3.0704,-3.0698,-3.0701,-3.0607,-3.0516,-3.0406,-3.0143,-2.9875,-2.9607,-2.9183,-2.8814,-2.8527,-2.8079,-2.7774,-2.7572,-2.7405,-2.7264,-2.7103,-2.704,-2.6925,-2.6775,-2.6469,-2.6099,-2.5698,-2.5288,-2.5033,-2.4811,-3.0898,-3.0898,-3.0898,-3.0898,-3.0898,-3.0898,-3.0898,-3.0898,-3.0898,-3.0898,-3.0898,-3.0898,-3.0898,-3.168,-3.2187,-3.2128,-3.2908,-3.3138,-3.2494,-3.2173,-3.1685,-3.0986,-3.0674,-3.0495,-3.0404,-3.0404,-3.0404,-3.0404,-3.0404,-3.0396,0.0,0.0,-3.0519,-3.0569,-3.0597,-3.0632,-3.0703,-3.0771,-3.0839,-3.0874,-3.0898,-3.0897,-3.0875,-3.082,-3.0769,-3.069,-3.0597,-3.0491,-3.0385,-3.0318,-3.0253,-3.0199,-3.0192,-3.0211,-3.0211,-3.0211,-3.0164,-3.0116,-3.011,-3.0046,-2.9983,-2.9885,-2.9816,-2.9727,-2.9645,-2.956,-2.9481,-2.9402,-2.931,0.0,0.0,0.0,-2.9228,-2.933,0.0,-2.9267,-2.9238,-2.9217,-2.928,-2.954,-2.9617,-2.9771,-3.0099,-3.0247,-3.0378,-3.0531,-3.0595,-3.0626,-3.0665,-3.0674,-3.0681,-3.0694,-3.0626,-3.0548,-3.0428,-3.0228,-3.0,-2.9744,-2.9375,-2.9068,-2.8803,-2.8321,-2.7986,-2.7742,-2.7511,-2.731,-2.7117,-2.704,-2.6959,-2.6876,-2.6708,-2.6417,-2.6081,-2.5589,-2.5266,-2.5048,-3.0898,-3.0898,-3.0898,-3.0898,-3.0898,-3.0898,-3.0898,-3.0898,-3.0898,-3.0898,-3.0898,-3.0898,-3.0898,-3.168,-3.2207,-3.2207,-3.2928,-3.3388,-3.3352,-3.2502,-3.196,-3.186,-3.1052,-3.0545,-3.0404,-3.0404,-3.0404,-3.0404,-3.0404,-3.0404,0.0,0.0,0.0,-3.052,-3.0577,-3.0642,-3.0706,-3.0767,-3.0806,-3.0811,-3.0876,-3.0855,-3.0808,-3.0799,-3.075,-3.0681,-3.0542,-3.0467,-3.04,-3.0324,-3.026,0.0,0.0,-3.0211,-3.0211,-3.0211,-3.0204,-3.0171,-3.0117,-3.0046,-2.9975,-2.9842,-2.9699,-2.957,-2.9434,-2.9312,-2.9195,-2.9134,-2.9062,-2.9017,-2.9017,-2.8952,-2.891,-2.8929,-2.8929,0.0,0.0,-2.8875,-2.8991,-2.9188,-2.9384,-2.9608,-2.9888,-3.0032,-3.019,-3.0397,-3.0413,-3.0467,-3.06,-3.0604,-3.0622,-3.0691,-3.0638,-3.0565,-3.0496,-3.0303,-3.009,-2.9895,-2.9551,-2.922,-2.8895,-2.8545,-2.8224,-2.7883,-2.7615,-2.7371,-2.7181,-2.7039,-2.6959,-2.6893,-2.6742,-2.6606,-2.6433,-2.6043,-2.5549,-2.5068,-3.0898,-3.0898,-3.0898,-3.0898,-3.0898,-3.0898,-3.0898,-3.0898,-3.0898,-3.0898,-3.0898,-3.0898,-3.0898,-3.168,-3.2402,-3.2949,-3.3768,-3.4253,-3.4261,-3.3952,-3.3505,-3.2847,-3.2501,-3.2003,-3.1346,-3.1334,-3.103,-3.04,-3.0396,-3.0404,0.0,-3.0396,-3.0406,-3.0444,-3.0501,-3.0565,-3.0635,-3.0708,-3.0757,-3.0806,-3.0877,-3.0897,-3.0852,-3.0827,-3.0755,-3.069,-3.0597,-3.0491,0.0,-3.0318,-3.0266,-3.0207,-3.0199,-3.0211,-3.0211,-3.0211,-3.0171,-3.0135,0.0,0.0,-2.9907,-2.9761,-2.9626,-2.9502,-2.9359,-2.92,-2.9044,-2.8917,-2.8846,-2.8798,-2.8737,-2.8712,-2.87,-2.87,-2.8657,-2.8619,0.0,-2.8543,-2.8582,-2.8779,-2.9101,-2.9415,-2.968,-2.9902,-3.0078,-3.019,-3.0278,-3.0367,-3.0451,-3.0544,-3.0606,-3.0637,-3.0661,-3.0613,-3.0492,-3.0297,-3.0118,-2.9967,-2.91,-2.8584,-2.8404,-2.7451,-2.712,-2.7299,-2.6971,-2.6976,-2.7181,-2.7072,-2.6959,-2.6893,-2.6742,-2.6623,-2.645,-2.6099,-2.5735,-2.5359,-3.0898,-3.1152,-3.1269,-3.0957,-3.1152,-3.1465,-3.1758,-3.1543,-3.1367,-3.1367,-3.1094,-3.0898,-3.0898,-3.168,-3.2519,-3.332,-3.4199,-3.4821,-3.5146,-3.4863,-3.4427,-3.3782,-3.3414,-3.2796,-3.1853,-3.183,-3.1372,-3.0444,-3.0406,-3.0396,-3.0404,-3.0404,-3.0402,-3.0398,-3.0465,-3.0549,-3.0607,-3.0667,-3.0745,-3.0803,-3.0877,-3.0897,-3.0894,-3.0836,-3.0769,-3.0691,0.0,-3.053,-3.0419,-3.0324,-3.0273,-3.0227,-3.0206,-3.0211,-3.0211,-3.0211,-3.0171,-3.0135,-3.0106,-3.0011,0.0,-2.9806,-2.9617,-2.9463,-2.9328,-2.9134,-2.897,-2.8822,-2.8749,-2.8669,-2.8587,-2.8549,-2.851,-2.8476,-2.8406,-2.8353,0.0,-2.8259,-2.8259,-2.844,-2.8779,-2.9155,-2.9456,-2.9698,-2.9878,-3.0015,-3.0128,-3.0241,-3.0359,-3.046,-3.0544,-3.0599,-3.0629,-3.061,-3.0467,-3.0285,-3.0133,-2.9988,-2.8878,-2.8315,-2.8184,-2.6962,-2.6683,-2.7122,-2.6747,-2.6865,-2.734,-2.712,-2.6991,-2.6909,-2.6809,-2.6674,-2.6502,-2.6188,-2.5772,-2.5301,-3.0957,-3.166,-3.2012,-3.123,-3.1738,-3.2519,-3.3281,-3.2754,-3.2246,-3.2207,-3.1484,-3.0957,-3.0898,-3.1641,-3.2461,-3.3262,-3.4101,-3.4958,-3.5871,-3.516,-3.469,-3.4664,-3.3879,-3.2975,-3.1984,-3.1975,-3.1477,-3.0501,-3.0449,-3.0406,-3.039,-3.041,-3.0408,-3.0403,-3.0474,-3.054,-3.0607,-3.0665,-3.0733,-3.0804,-3.0875,-3.0897,-3.0896,-3.0823,-3.0753,-3.0698,-3.063,-3.0564,-3.0476,-3.0349,-3.0292,-3.0299,-3.0213,-3.0211,-3.0211,-3.0211,-3.0211,-3.0197,-3.0116,-3.0049,-2.9972,-2.9864,-2.9635,0.0,0.0,-2.9056,-2.8897,-2.8767,-2.8713,-2.8657,-2.8518,-2.8445,-2.8358,-2.8209,-2.814,-2.8071,-2.8,-2.8,-2.8042,-2.8168,-2.8466,-2.8833,-2.9241,-2.9416,-2.9588,-2.9864,-2.9956,-3.0072,-3.0273,-3.0368,-3.0453,-3.0586,-3.0588,-3.053,-3.0402,-3.0273,-3.0133,-2.9988,-2.8984,-2.8432,-2.8268,-2.7133,-2.6896,-2.7393,-2.6934,-2.707,-2.7587,-2.7246,-2.7071,-2.6991,-2.6926,-2.6759,-2.6555,-2.6277,-2.568,-2.4966,-3.1875,-3.2539,-3.3223,-3.3652,-3.3379,-3.3164,-3.3379,-3.3223,-3.2871,-3.2285,-3.2012,-3.1621,-3.0976,-3.1094,-3.1582,-3.2422,-3.2675,-3.3416,-3.4939,-3.4811,-3.4973,-3.5609,-3.5375,-3.4508,-3.2966,-3.2895,-3.2105,-3.058,-3.0511,-3.0472,-3.0465,-3.0469,-3.0474,-3.0476,-3.0545,-3.0619,-3.069,-3.0695,-3.076,-3.0875,-3.0898,-3.0898,-3.0897,0.0,-3.0794,-3.0756,-3.0637,-3.0558,-3.0476,-3.0349,-3.0292,-3.0299,-3.0213,-3.0211,-3.0211,-3.0211,-3.0211,-3.0197,-3.0116,-3.0091,-2.9878,-2.9115,-2.8839,-2.8548,0.0,0.0,0.0,-2.8006,-2.8372,-2.8657,-2.8518,-2.8445,-2.8345,-2.8154,-2.8032,-2.79,-2.7792,-2.7774,-2.785,-2.8042,-2.8164,-2.8453,-2.895,-2.9209,-2.9436,-2.9662,-2.983,-2.9996,-3.0138,-3.0254,-3.0358,-3.046,-3.0491,-3.049,-3.0389,-3.0267,-3.0166,-3.0061,-2.9061,-2.8529,-2.8412,-2.7326,-2.7095,-2.7533,-2.7171,-2.7248,-2.7642,-2.7307,-2.7117,-2.7054,-2.6942,-2.6725,-2.64,-2.5975,-2.5567,-2.5162,-3.2715,-3.3398,-3.4238,-3.5117,-3.4863,-3.4531,-3.4531,-3.4219,-3.3672,-3.2832,-3.2422,-3.1875,-3.0996,-3.0898,-3.125,-3.2129,-3.2168,-3.2714,-3.4042,-3.4488,-3.4929,-3.5407,-3.5765,-3.5316,-3.394,-3.3471,-3.2578,-3.1216,-3.0793,-3.0565,-3.0544,-3.0535,-3.0535,-3.0549,-3.0604,-3.0665,-3.0694,-3.0728,-3.0805,-3.0897,-3.0898,-3.0898,0.0,-3.0833,-3.0801,-3.0796,-3.0675,-3.0602,-3.0516,-3.0385,-3.0311,-3.0279,-3.0226,-3.0199,-3.0211,-3.0211,-3.0211,-3.0185,-3.0157,-2.9861,-2.9436,-2.8833,-2.8353,-2.7853,-2.7183,-2.7251,-2.7428,0.0,-2.78,-2.8209,0.0,-2.8198,-2.8327,-2.814,-2.8,-2.7914,-2.7836,-2.7836,-2.7879,-2.8042,-2.8085,-2.8259,-2.8682,-2.8996,-2.9291,-2.9541,-2.9726,-2.9897,-3.0094,-3.0207,-3.0299,-3.0358,-3.0392,-3.0394,-3.0362,-3.0227,-3.0138,-3.0095,-2.9077,-2.859,-2.85,-2.7437,-2.7226,-2.7676,-2.7278,-2.7339,-2.773,-2.7402,-2.7198,-2.7086,-2.6958,-2.6742,-2.6435,-2.6083,-2.5717,-2.5298,-3.4043,-3.4687,-3.541,-3.6055,-3.6172,-3.6133,-3.6016,-3.5351,-3.4512,-3.3535,-3.2793,-3.1992,-3.1016,-3.0898,-3.1191,-3.1953,-3.2031,-3.2363,-3.3184,-3.3945,-3.4451,-3.4688,-3.5428,-3.5477,-3.4729,-3.3782,-3.2881,-3.2,-3.1145,-3.0687,-3.0607,-3.0603,-3.0603,-3.063,-3.0671,-3.07,-3.0728,-3.0785,-3.0857,-3.0897,-3.0898,-3.0898,-3.0898,-3.0835,-3.0806,-3.0789,-3.0723,-3.066,-3.0582,-3.0442,-3.0355,-3.0292,-3.0227,-3.0194,-3.0192,-3.0211,-3.0211,-3.0192,-3.0051,-2.9477,-2.8831,-2.8541,-2.7865,-2.7184,-2.6957,-2.6827,-2.673,-2.6615,-2.7106,-2.7483,-2.7236,-2.7774,-2.8219,-2.8136,-2.8056,-2.8014,-2.8014,-2.8014,-2.8042,-2.8099,-2.8112,0.0,-2.8466,-2.8791,-2.9097,-2.9453,-2.9608,-2.9794,-3.0079,-3.0157,-3.0226,-3.0292,-3.0298,-3.0299,-3.0286,-3.0159,-3.0106,-3.0095,-2.919,-2.8768,-2.8722,-2.7782,-2.7583,-2.7955,-2.7514,-2.7518,-2.7832,-2.7544,-2.7296,-2.707,-2.6958,-2.6775,-2.6589,-2.6417,-2.5992,-2.5473,-3.7402,-3.7812,-3.7734,-3.7168,-3.707,-3.6836,-3.6113,-3.5879,-3.5195,-3.3613,-3.3281,-3.2617,-3.1074,-3.0898,-3.0957,-3.1113,-3.1133,-3.1484,-3.2344,-3.25,-3.3201,-3.4645,-3.4854,-3.4865,-3.47,-3.3835,-3.2962,-3.208,-3.1205,-3.0742,-3.0686,-3.0671,-3.0671,-3.0686,-3.0689,-3.0726,-3.0783,-3.0855,-3.0897,-3.0898,-3.0898,-3.0898,-3.0898,-3.0897,-3.0853,-3.0804,-3.0786,-3.0707,-3.0585,-3.0455,-3.0383,-3.0355,-3.0241,-3.0207,-3.02,-3.0192,-3.0211,-3.0032,-2.9318,-2.9025,-2.8547,-2.7094,-2.6604,-2.6277,-2.5478,-2.5702,-2.6051,-2.5966,-2.6401,-2.6767,-2.6662,0.0,-2.7587,-2.8088,-2.8126,-2.8071,-2.8014,-2.8014,-2.8056,-2.8168,-2.8168,-2.8277,-2.8479,-2.8688,-2.8973,-2.9304,-2.9513,-2.9725,-2.9996,0.0,-3.0152,0.0,-3.0267,0.0,0.0,0.0,-3.0106,-3.0095,-2.975,-2.9581,-2.9573,-2.9279,-2.9087,-2.8933,-2.8582,-2.8307,-2.8105,-2.7721,-2.7341,-2.7024,-2.6991,-2.6859,-2.6674,-2.6572,-2.6382,-2.6048,-3.8437,-3.8593,-3.8339,-3.7458,-3.7302,-3.7008,-3.613,-3.5622,-3.4861,-3.3574,-3.3007,-3.2265,-3.1034,-3.0898,-3.0898,-3.0898,-3.0898,-3.1074,-3.1504,-3.1914,-3.2714,-3.3963,-3.4469,-3.4915,-3.536,-3.4518,-3.3653,-3.2778,-3.1895,-3.1221,-3.0756,-3.075,-3.075,-3.0756,-3.076,-3.0781,-3.0855,-3.0897,-3.0898,-3.0898,-3.0898,-3.0898,-3.0898,-3.0897,-3.0856,-3.0792,-3.0809,-3.0762,-3.0681,-3.0548,-3.0476,-3.0425,-3.0342,-3.0286,-3.0253,-3.02,-2.9874,-2.9433,-2.9006,-2.8268,-2.7402,-2.6549,-2.6009,-2.5551,-2.5053,-2.5141,-2.53,-2.5192,-2.5662,-2.6154,-2.6399,-2.6944,0.0,-2.7728,-2.8071,-2.8286,-2.8205,-2.8246,-2.8286,-2.834,-2.838,-2.8458,-2.8582,-2.8694,-2.888,-2.9169,-2.9415,-2.9672,-2.994,0.0,-3.0135,0.0,0.0,0.0,-3.0206,0.0,-3.0091,-3.0095,-2.9893,-2.9808,-2.9799,-2.9655,-2.9463,-2.9241,-2.8906,-2.859,-2.8268,-2.7763,-2.7357,-2.7055,-2.7007,-2.6875,-2.6691,-2.6657,-2.6572,-2.6382,-3.8863,-3.8862,-3.8528,-3.7488,-3.7291,-3.6938,-3.5882,-3.4962,-3.4165,-3.3493,-3.2632,-3.1791,-3.0973,-3.0876,-3.0878,-3.0898,-3.0898,-3.0898,-3.0898,-3.1719,-3.2558,-3.3359,-3.4237,-3.5115,-3.5972,-3.5151,-3.4368,-3.3677,-3.262,-3.1755,-3.1061,-3.0882,-3.0806,-3.081,-3.0826,-3.0855,0.0,0.0,-3.0898,-3.0898,-3.0898,-3.0898,-3.0898,-3.0898,-3.0877,-3.0816,-3.0804,-3.0801,-3.0784,-3.0685,-3.0589,-3.051,-3.0444,-3.0383,-3.0324,-3.0254,-2.9602,-2.888,-2.8701,-2.7549,-2.6358,-2.6174,-2.5476,-2.4829,-2.4764,-2.465,-2.4524,-2.4384,-2.4895,-2.5541,-2.6125,-2.6684,0.0,-2.7411,-2.7942,-2.8363,-2.8461,-2.8518,-2.8569,-2.8582,-2.8619,-2.8687,-2.8761,-2.8743,-2.8833,-2.9071,-2.9332,-2.957,-2.9839,-3.0007,0.0,0.0,0.0,-3.0211,-3.0211,0.0,-3.0095,-3.0095,-2.9893,-2.9808,-2.9799,-2.9683,-2.9521,-2.9314,-2.8997,-2.8646,-2.8277,-2.7763,-2.7371,-2.7103,-2.704,-2.6875,-2.6691,-2.6691,-2.6657,-2.6555,-3.9696,-3.9692,-3.918,-3.7576,-3.7258,-3.6664,-3.5073,-3.4023,-3.3427,-3.3406,-3.2643,-3.1763,-3.089,-3.0815,-3.0838,-3.0898,-3.0898,-3.0898,-3.0898,-3.1719,-3.2559,-3.3359,-3.4238,-3.5116,-3.5975,-3.5153,-3.4663,-3.4584,-3.2901,-3.2059,-3.1961,-3.1174,-3.0825,-3.0892,-3.0895,0.0,0.0,-3.0898,-3.0898,-3.0898,-3.0898,-3.0898,-3.0898,-3.0898,-3.0898,-3.0877,-3.0812,-3.0801,-3.0806,-3.08,-3.0704,-3.058,-3.0511,-3.049,-3.0453,-3.0322,-2.9659,-2.8823,-2.8026,-2.7115,-2.6205,-2.5424,-2.4611,-2.3983,-2.3923,-2.3866,-2.3755,-2.3632,-2.4145,-2.4824,-2.5542,-2.5678,-2.6115,0.0,-2.773,-2.8006,-2.867,-2.8779,-2.8803,-2.887,-2.8881,-2.8905,-2.897,-2.8917,-2.8952,-2.9089,-2.9238,-2.9435,-2.9698,-2.9907,0.0,-3.0109,-3.0171,-3.0211,-3.0211,-3.0132,-3.0095,-3.0095,-2.9893,-2.9808,-2.9799,-2.9719,-2.9608,-2.9472,-2.9191,-2.8676,-2.8027,-2.7771,-2.7461,-2.7103,-2.704,-2.6875,-2.6691,-2.6691,-2.6691,-2.6691,-3.8968,-3.8961,-3.8583,-3.7383,-3.7161,-3.6565,-3.4847,-3.3819,-3.3054,-3.2554,-3.1787,-3.1131,-3.0776,-3.0786,-3.0816,-3.0847,-3.0834,-3.0856,-3.0897,-3.1679,-3.2519,-3.3359,-3.4238,-3.5117,-3.5976,-3.5663,-3.5213,-3.4704,-3.4,-3.312,-3.2084,-3.1731,-3.1342,-3.0896,0.0,-3.0898,-3.0898,-3.0898,-3.0898,-3.0898,-3.0898,-3.0898,-3.0898,-3.0898,-3.0898,-3.0898,-3.0876,-3.0832,-3.0803,-3.0792,-3.0743,-3.0655,-3.0638,-3.0585,-3.0545,-3.0455,-2.9773,-2.887,-2.7992,-2.7126,-2.6254,-2.5384,-2.452,-2.4014,-2.4486,-2.4119,-2.3813,-2.4202,-2.4459,-2.4711,-2.4961,-2.5346,-2.5968,-2.7056,-2.7596,-2.8143,-2.889,-2.9012,-2.9045,-2.9075,-2.9119,-2.9152,-2.9174,-2.9115,-2.9112,-2.9207,-2.9217,-2.9365,-2.9626,-2.983,0.0,-3.0101,0.0,-3.0211,-3.0211,-3.0132,-3.0095,-3.0095,-2.9893,-2.9808,-2.9799,-2.9729,-2.9579,-2.9373,-2.9174,-2.8815,-2.8339,-2.8101,-2.7789,-2.7446,-2.731,-2.7087,-2.6875,-2.6825,-2.6758,-2.6691,-3.8059,-3.7983,-3.7716,-3.6841,-3.6697,-3.6102,-3.4349,-3.3576,-3.277,-3.1636,-3.0991,-3.0639,-3.0667,-3.0733,-3.0776,-3.0776,-3.0795,-3.0923,-3.1221,-3.2024,-3.2866,-3.3747,-3.4627,-3.537,-3.5996,-3.5996,-3.5703,-3.5077,-3.4823,-3.4061,-3.2868,-3.2595,-3.2048,0.0,-3.1269,-3.1132,-3.0898,-3.0898,-3.0898,-3.0898,-3.0898,-3.0898,-3.0898,-3.0898,-3.0898,-3.0898,-3.0897,-3.0876,-3.0832,-3.0825,-3.0781,-3.0735,-3.0725,-3.0678,-3.0618,-3.0567,-2.9888,-2.8969,-2.8102,-2.7201,-2.6312,-2.5417,-2.4536,-2.398,-2.4295,-2.4031,-2.3948,-2.4686,-2.4787,-2.4711,-2.466,-2.5064,-2.5676,-2.6488,0.0,-2.8,-2.8767,-2.9103,-2.9301,-2.9301,-2.9353,-2.9384,-2.9384,-2.933,-2.9307,-2.9357,-2.9299,-2.9355,-2.9589,-2.9787,0.0,0.0,0.0,0.0,-3.0211,-3.0132,-3.0095,-3.0095,-2.9893,-2.9808,-2.9799,-2.9729,-2.956,-2.9332,-2.9192,-2.8957,-2.8639,-2.8375,-2.8059,-2.7728,-2.7539,-2.7294,-2.7056,-2.6958,-2.6859,-2.6742,-3.7191,-3.7011,-3.6741,-3.5863,-3.5728,-3.5132,-3.3374,-3.3117,-3.2477,-3.0747,-3.0519,-3.0535,-3.0583,-3.0669,-3.0698,-3.0709,-3.0769,-3.1173,-3.202,-3.29,-3.3766,-3.4656,-3.5516,-3.5989,-3.5995,-3.5995,-3.5995,-3.5976,-3.5117,-3.4686,-3.4647,-3.3788,-3.2928,-3.2089,-3.2148,-3.1719,-3.0898,-3.0898,-3.0898,-3.0898,-3.0898,-3.0898,-3.0898,-3.0898,-3.0898,-3.0898,-3.0897,-3.0897,-3.0896,-3.089,-3.0845,-3.0795,-3.0795,-3.0742,-3.0694,-3.0701,-3.0032,-2.91,-2.8225,-2.7311,-2.637,-2.5439,-2.4533,-2.3687,-2.2821,-2.3236,-2.4005,-2.4742,-2.4849,-2.4794,-2.4794,-2.4753,-2.4981,-2.5772,0.0,-2.7391,-2.8203,-2.8978,-2.9492,-2.9492,-2.955,-2.9598,-2.9598,-2.954,-2.9492,-2.9492,-2.9443,-2.9471,-2.9598,-2.9789,0.0,-3.0095,-3.0169,0.0,-3.0211,-3.0132,-3.0095,-3.0095,-2.9893,-2.9808,-2.9799,-2.9729,-2.9579,-2.9392,-2.927,-2.9045,-2.8791,-2.85,-2.8192,-2.7869,-2.7674,-2.7432,-2.7165,-2.7056,-2.6959,-2.6893,-3.6035,-3.5985,-3.5883,-3.5608,-3.5595,-3.5035,-3.3299,-3.3026,-3.2405,-3.0662,-3.0419,-3.0442,-3.0467,-3.0524,-3.0572,-3.0626,-3.1193,-3.1682,-3.2016,-3.34,-3.433,-3.461,-3.5465,-3.5928,-3.5938,-3.598,-3.6007,-3.5994,0.0,0.0,0.0,-3.3808,-3.2968,-3.2168,-3.2187,-3.1719,-3.0898,-3.0898,-3.0898,-3.0898,-3.0898,-3.0898,-3.0898,-3.0898,-3.0898,-3.0898,-3.0898,-3.0898,-3.0897,-3.0895,-3.0892,-3.0864,-3.0876,-3.0815,-3.076,-3.0714,-3.0484,-2.9911,-2.8415,-2.778,-2.72,-2.5654,-2.4615,-2.4042,-2.4301,-2.4499,-2.4682,-2.4921,-2.4889,-2.4794,-2.4794,-2.4779,-2.5235,-2.6637,-2.7064,0.0,-2.9053,-2.9513,-2.9691,-2.9645,-2.9691,-2.9737,-2.9737,-2.9682,-2.9636,-2.9636,-2.9617,-2.9608,-2.9598,0.0,0.0,0.0,-3.0169,0.0,-3.0211,-3.0132,-3.0095,-3.0095,-2.9934,-2.9825,-2.9726,-2.9718,-2.9617,-2.9463,-2.9332,-2.9174,-2.8987,-2.8755,-2.8531,-2.8291,-2.8091,-2.7792,-2.7448,-2.7214,-2.7039,-2.6893,-3.545,-3.5431,-3.5412,-3.543,-3.5463,-3.5027,-3.3622,-3.3404,-3.2897,-3.1482,-3.1309,-3.1302,-3.1339,-3.1372,0.0,-3.1064,-3.1851,-3.2516,-3.2874,-3.3914,-3.4675,-3.5,-3.5554,-3.5853,-3.5853,-3.5927,0.0,-3.596,-3.5989,-3.572,-3.5175,-3.4628,-3.3925,-3.3144,-3.3144,-3.2656,-3.1816,-3.1523,-3.1387,-3.1367,-3.1035,-3.0898,-3.0898,-3.0898,-3.0898,-3.0898,-3.0898,-3.0898,-3.0898,-3.0897,-3.0895,-3.089,-3.0908,-3.0856,-3.0796,-3.0741,-3.0733,-3.0422,-2.8965,-2.8314,-2.769,-2.6201,-2.5168,-2.4635,-2.5099,-2.4885,-2.4676,-2.4986,-2.4952,-2.4884,-2.4884,-2.4844,-2.5276,-2.6624,-2.7099,-2.7762,-2.9068,-2.9574,-2.9771,-2.9717,-2.978,-2.9842,-2.9832,-2.9798,-2.9789,-2.9779,-2.9753,0.0,0.0,0.0,0.0,-3.0091,-3.0176,-3.0211,-3.0211,-3.0132,-3.0095,-3.0095,-2.997,-2.9834,-2.9708,-2.9708,-2.9626,-2.9492,-2.9384,-2.9267,-2.9112,-2.894,-2.8761,-2.8556,-2.8349,-2.8021,-2.7644,-2.7371,-2.7136,-2.6909,-3.5383,-3.5342,-3.5293,-3.5293,-3.53,-3.5013,-3.4215,-3.4081,-3.3775,-3.2912,-3.2797,-3.2811,-3.289,-3.2948,-3.2712,-3.2014,0.0,0.0,-3.4332,-3.4453,-3.4846,-3.5654,-3.5754,-3.5788,-3.5794,-3.5846,-3.5897,-3.5903,-3.5953,-3.5986,-3.599,-3.6009,-3.5521,-3.4701,-3.4704,-3.4217,-3.3358,-3.2597,-3.2246,-3.2129,-3.1309,-3.0957,-3.0898,-3.0898,-3.0898,-3.0898,-3.0898,-3.0859,-3.082,-3.0878,-3.0857,-3.0816,-3.0871,-3.0845,-3.08,-3.0794,-3.0792,-3.0606,-2.9745,-2.8827,-2.7889,-2.6935,-2.6054,-2.5366,-2.5231,-2.4576,-2.4192,-2.4955,-2.5057,-2.5018,-2.5075,-2.5041,-2.5277,-2.6151,-2.6915,-2.7676,-2.8474,-2.93,-2.978,-2.9726,0.0,0.0,-2.9916,-2.991,-2.991,0.0,-2.9849,0.0,0.0,0.0,-3.0046,-3.0101,-3.0164,-3.0211,-3.0211,-3.014,-3.0095,-3.0095,-2.997,-2.9842,-2.9717,-2.9717,-2.9626,-2.9492,-2.9433,-2.932,-2.9189,-2.9062,-2.8881,-2.87,-2.8484,-2.8174,-2.7789,-2.7509,-2.7247,-2.6991,0.0,0.0,-3.5147,-3.5147,-3.519,-3.4947,-3.4079,-3.3945,-3.3655,-3.2824,-3.2716,-3.2749,-3.283,-3.3412,-3.3752,-3.3576,-3.3795,-3.4042,-3.4303,-3.495,-3.5416,-3.5607,-3.5634,-3.5664,-3.5713,-3.5743,-3.5806,-3.5899,-3.5927,-3.5923,-3.5911,-3.5975,-3.5529,-3.4708,-3.4709,-3.4225,-3.339,-3.3195,-3.2729,-3.2106,-3.1891,-3.1443,-3.0896,-3.0896,-3.0896,-3.0896,-3.0896,-3.0467,-3.0019,-3.0683,-3.0468,-3.0015,-3.0698,-3.0849,-3.08,-3.0794,-3.0803,-3.0613,-2.9739,-2.8854,-2.7959,-2.7013,-2.6087,-2.538,-2.5301,-2.5078,-2.4939,-2.5069,-2.5089,-2.526,-2.5888,-2.5987,-2.6453,-2.7907,-2.8286,-2.8644,-2.9463,-2.9752,-2.9874,0.0,-2.9874,-2.9924,-2.9964,-2.9983,-2.9999,0.0,0.0,-3.0038,-3.0057,-3.0072,-3.0087,-3.0101,-3.0164,-3.0211,-3.0211,-3.0135,-3.0064,-3.0022,-2.9991,-2.9918,-2.9771,-2.9771,-2.9673,-2.9492,-2.9433,-2.932,-2.9189,-2.91,-2.8952,-2.8761,-2.8612,-2.834,-2.7996,-2.7733,-2.743,-2.7135,-3.5092,-3.5091,-3.5089,-3.5089,-3.5134,-3.499,-3.4524,-3.4448,-3.4285,-3.3851,-3.3802,-3.3818,-3.3838,-3.4274,-3.4577,-3.4634,-3.4669,-3.4724,-3.4757,-3.52,-3.5477,-3.5509,-3.554,-3.5577,-3.5612,-3.5648,-3.5708,-3.5818,-3.5833,-3.5644,-3.5271,-3.5714,-3.5466,-3.4664,-3.5039,-3.495,-3.4513,-3.4126,-3.3683,-3.3182,-3.2402,-3.1837,-3.1409,-3.1018,-3.0843,-3.0843,-3.0843,-3.0553,-3.0166,-3.0225,-3.0212,-3.0176,-3.0273,-3.0544,-3.085,-3.0843,-3.0815,-3.0705,-3.0228,-2.9468,-2.8479,-2.7132,-2.6126,-2.5438,-2.5366,-2.5287,-2.5234,-2.5164,-2.546,-2.5856,-2.6276,-2.6644,-2.7314,-2.859,-2.8768,-2.9022,-2.9799,-2.9891,-2.9899,-2.9904,-2.9891,-2.994,-3.003,-3.0022,-3.003,-3.0091,-3.0102,0.0,-3.0101,-3.0101,-3.0109,-3.013,-3.0178,-3.0211,-3.0211,-3.0123,-3.0064,-3.0007,-3.0007,-2.9934,-2.9808,-2.9808,-2.9682,-2.9492,-2.9463,-2.9351,-2.9189,-2.9156,-2.9021,-2.8834,-2.87,-2.8484,-2.8201,-2.7901,-2.7639,-2.74,-3.5048,-3.5048,-3.5048,-3.5048,-3.5048,-3.5039,-3.5039,-3.503,-3.503,-3.5039,-3.5039,-3.5038,-3.5053,-3.5043,-3.5096,-3.5237,-3.5231,-3.5251,-3.5308,-3.5308,-3.5323,-3.5379,-3.5446,-3.5462,-3.5463,-3.5547,-3.5599,-3.5679,-3.5722,-3.5312,-3.4486,-3.5228,-3.5138,-3.4399,-3.5236,-3.5623,-3.5638,-3.5046,-3.4708,-3.4447,-3.2892,-3.2192,-3.1995,-3.112,-3.0788,-3.0788,-3.0788,-3.0698,-3.0473,-2.9751,-2.9902,-3.0287,-2.9607,-2.998,-3.0683,-3.0698,-3.0749,-3.0799,-3.0794,-3.0152,-2.9104,-2.7423,-2.6443,-2.5867,-2.5809,-2.5745,-2.5688,-2.5618,-2.6206,-2.6721,-2.682,-2.7376,-2.8089,-2.8888,-2.9026,-2.9224,-2.9867,0.0,-2.9932,-2.9926,-2.9924,-2.9972,-3.0095,-3.0046,-3.0034,-3.0109,-3.0132,-3.0125,-3.0109,-3.0116,-3.013,-3.0204,-3.0211,-3.0211,-3.0211,-3.013,-3.0079,-3.0022,-3.0022,-2.9943,-2.9808,-2.9808,-2.9682,-2.9502,-2.9502,-2.9382,-2.92,-2.92,-2.9089,-2.8905,-2.8773,-2.8594,-2.8383,-2.811,-2.7901,-2.7745,-3.4849,-3.4849,-3.4849,-3.4849,-3.4809,-3.4759,-3.4759,-3.4718,-3.4708,-3.4749,-3.4759,-3.4771,-3.4851,-3.486,-3.4879,-3.4964,-3.4954,-3.5062,-3.5293,-3.5308,-3.5289,-3.5315,-3.5323,-3.533,-3.5338,-3.54,-3.5463,-3.5527,-3.5544,-3.5135,-3.4322,-3.4468,-3.4095,-3.3359,-3.4235,-3.463,-3.4671,-3.5321,-3.5189,-3.4429,-3.3495,-3.2661,-3.1918,-3.1045,-3.0717,-3.0717,-3.0717,-3.0236,-2.9606,-2.9524,-2.9094,-2.8585,-2.8462,-2.9016,-2.9723,-2.9785,-3.0273,-3.0798,-3.08,-3.0157,-2.9258,-2.8233,-2.7835,-2.7683,-2.7606,-2.7589,-2.7563,-2.7494,-2.7595,-2.7894,-2.8634,-2.8827,-2.9127,-2.9941,-3.0023,-3.0027,-3.013,0.0,-3.0072,-3.0072,-3.0068,-3.0076,-3.0094,-3.0087,-3.0109,-3.0178,-3.0178,-3.0171,-3.0178,-3.0178,-3.0185,-3.0211,-3.0211,-3.0211,-3.0211,-3.0185,-3.0142,-3.0087,-3.0087,-2.9983,-2.9808,-2.9808,-2.9682,-2.9502,-2.9502,-2.9421,-2.9291,-2.9211,-2.9112,-2.8964,-2.8834,-2.87,-2.8562,-2.8453,-2.8295,-2.8091,-3.4572,-3.4572,-3.4572,-3.4572,-3.455,-3.4528,-3.4495,-3.4461,-3.4439,-3.4439,-3.4439,-3.4443,-3.4469,-3.4513,-3.4545,-3.4572,-3.4641,-3.4733,-3.486,-3.4988,-3.5096,-3.5141,-3.5166,-3.5226,-3.5297,-3.5331,-3.5357,-3.5395,-3.543,-3.479,-3.3563,-3.4036,-3.3572,-3.24,-3.3705,-3.4281,-3.4353,-3.5259,-3.5421,-3.4977,-3.4115,-3.3286,-3.2434,-3.1581,-3.0942,-3.0543,-3.0571,-3.0335,-2.9869,-2.8984,-2.874,-2.8632,-2.7727,-2.8078,-2.8816,-2.8833,-2.9764,-3.0798,-3.0804,-3.0185,-2.9452,-2.9002,-2.8517,-2.8145,-2.8103,-2.8074,-2.8046,-2.8016,-2.8349,-2.8773,-2.9192,-2.9583,-2.9967,-3.0292,-3.0334,0.0,-3.0267,-3.0221,-3.0195,-3.0161,-3.014,-3.0159,-3.014,-3.0145,-3.0171,-3.0206,-3.0199,-3.0211,-3.0211,-3.0211,-3.0211,-3.0211,-3.0211,-3.0211,-3.0211,-3.0211,-3.0169,-3.0095,-3.0095,-2.9999,-2.9842,-2.9816,-2.9728,-2.9598,-2.9522,-2.9423,-2.9289,-2.9272,-2.9175,-2.9033,-2.8959,-2.8846,-2.8749,-2.8644,-2.8543,-2.8453,-3.4281,-3.4293,-3.4305,-3.4281,-3.4269,-3.4233,-3.4173,-3.4148,-3.4124,-3.4074,-3.4061,-3.4074,-3.4086,-3.4136,-3.4166,-3.4171,-3.4286,-3.4333,-3.4341,-3.4537,-3.4713,-3.487,-3.4955,-3.5065,-3.5176,-3.5193,-3.5209,-3.5203,-3.5262,-3.4538,-3.3109,-3.3784,-3.3325,-3.1962,-3.3466,-3.4139,-3.4186,-3.5084,-3.545,-3.538,-3.4494,-3.3666,-3.2869,-3.2002,-3.1135,-3.0395,-3.046,-3.0481,-3.0255,-2.8775,-2.8601,-2.8714,-2.7246,-2.7279,-2.7873,-2.787,-2.9106,-3.0527,-3.0735,-3.0356,-2.988,-2.9827,-2.931,-2.8792,-2.8807,-2.8765,-2.8727,-2.8731,-2.9221,-2.9647,-2.9625,-3.0121,-3.0533,-3.0487,0.0,-3.0441,0.0,-3.035,-3.0327,-3.0279,-3.0254,-3.0254,-3.0241,-3.0227,-3.0214,-3.0215,-3.0214,-3.0213,-3.0213,-3.0213,-3.0213,-3.0213,-3.0218,-3.0211,-3.0211,-3.0211,-3.0176,-3.011,-3.0102,-3.0033,-2.9893,-2.9834,-2.9755,-2.9683,-2.9569,-2.9463,-2.9334,-2.9318,-2.9232,-2.9145,-2.9062,-2.8987,-2.894,-2.8803,-2.8755,-2.8718,-3.3934,-3.3985,-3.4011,-3.3947,-3.3881,-3.3815,-3.3753,-3.3684,-3.3643,-3.3629,-3.3629,-3.3657,-3.3726,-3.3739,-3.378,-3.3829,-3.3842,-3.3842,-3.3855,-3.3868,-3.4074,-3.4518,-3.4663,-3.4763,-3.4841,-3.4889,-3.4936,-3.4926,-3.4992,-3.4554,-3.3641,-3.3769,-3.3367,-3.2578,-3.3511,-3.3917,-3.3982,-3.4913,-3.5308,-3.5239,-3.4369,-3.354,-3.2722,-3.193,-3.1059,-3.0322,-3.0385,-3.0416,-3.0273,-2.9398,-2.8627,-2.7851,-2.6974,-2.6796,-2.6895,-2.6909,-2.8145,-2.9691,-3.0565,-3.08,-3.0797,-3.0726,-3.0662,-3.0617,-3.0611,-3.0603,-3.0598,-3.0604,-3.0658,-3.0672,-3.0603,-3.0645,-3.0682,-3.0687,0.0,0.0,-3.0574,-3.0515,-3.0482,-3.0482,-3.0411,-3.0381,-3.0381,-3.0328,-3.0298,-3.0298,-3.0286,-3.0286,-3.0286,-3.0286,-3.0286,-3.0286,-3.0219,-3.0211,-3.0211,-3.0211,-3.0164,-3.0101,-3.0091,-3.003,-2.9907,-2.9823,-2.9755,-2.9701,-2.9617,-2.955,-2.9482,-2.9353,-2.9283,-2.9262,-2.9138,-2.9096,-2.9085,-2.8998,-2.894,-2.8863,-3.3412,-3.3408,-3.3422,-3.3412,-3.3383,-3.3339,-3.328,-3.3235,-3.3223,-3.3162,-3.3162,-3.3178,-3.3208,-3.3235,-3.328,-3.3309,-3.3383,-3.3441,-3.3441,-3.3502,-3.3734,-3.4172,-3.4232,-3.4337,-3.4497,-3.4518,-3.4561,-3.4653,-3.4674,-3.4289,-3.3525,-3.3573,-3.3175,-3.2445,-3.337,-3.3776,-3.3823,-3.4721,-3.5108,-3.5089,-3.4808,-3.4176,-3.3325,-3.2539,-3.1679,-3.0858,-3.0385,-3.0246,-3.0158,-2.9358,-2.8864,-2.8439,-2.7647,-2.7065,-2.6678,-2.6734,-2.72,-2.8057,-2.9531,-3.0373,-3.0839,-3.08,-3.08,-3.0818,-3.0849,-3.0821,-3.0794,-3.0804,-3.0794,-3.0784,-3.0763,-3.075,-3.0755,-3.0756,0.0,-3.072,-3.0667,-3.063,-3.0614,-3.0567,-3.0542,-3.0519,-3.052,-3.0457,-3.0427,-3.0427,-3.0384,-3.0356,-3.0356,-3.0356,-3.0356,-3.0356,-3.0333,-3.0304,-3.0253,-3.026,-3.0234,-3.0154,-3.0159,-3.0116,-3.0015,-2.9999,-2.9926,-2.9815,-2.9755,-2.9701,-2.9626,-2.9531,-2.9404,-2.9293,-2.9249,-2.9192,-2.9145,-2.9096,-2.9051,-2.901,-3.2914,-3.293,-3.2945,-3.2914,-3.293,-3.293,-3.285,-3.2848,-3.2866,-3.2802,-3.282,-3.282,-3.282,-3.285,-3.2864,-3.2864,-3.2959,-3.3021,-3.3021,-3.3101,-3.3357,-3.3815,-3.3855,-3.3954,-3.4117,-3.4141,-3.4189,-3.4284,-3.4277,-3.4031,-3.3582,-3.3647,-3.34,-3.2954,-3.3598,-3.3892,-3.3949,-3.4575,-3.484,-3.485,-3.4917,-3.4424,-3.3552,-3.281,-3.1984,-3.1127,-3.0354,-3.0113,-3.008,-2.9523,-2.918,-2.8874,-2.8319,-2.7587,-2.6902,-2.6699,-2.6826,-2.7264,-2.8274,-2.943,-3.0406,-3.069,-3.0774,-3.0816,-3.0859,-3.0839,-3.0798,-3.0794,-3.0807,-3.082,-3.0837,-3.081,-3.0801,-3.0806,-3.0798,-3.0782,-3.0731,-3.0719,-3.0707,-3.0662,-3.0648,-3.0633,-3.0638,-3.0578,-3.0533,-3.0533,-3.0486,-3.0453,-3.0458,-3.0458,-3.0458,-3.0458,-3.0486,-3.0453,-3.0384,-3.035,-3.0309,-3.026,-3.0254,-3.0234,-3.0187,-3.0157,-3.0072,-2.9958,-2.9888,-2.9832,-2.9792,-2.971,-2.9579,-2.9445,-2.9414,-2.9361,-2.9286,-2.9211,-2.9167,-2.9152,-3.2489,-3.2539,-3.2555,-3.2489,-3.2521,-3.2555,-3.2489,-3.2539,-3.2588,-3.2588,-3.2588,-3.2588,-3.2588,-3.2588,-3.2588,-3.2588,-3.2588,-3.2588,-3.2606,-3.2606,-3.2848,-3.3462,-3.3563,-3.3633,-3.3684,-3.3766,-3.3775,-3.3788,-3.38,-3.3865,-3.3998,-3.4006,-3.4105,-3.4293,-3.4293,-3.4328,-3.4386,-3.4473,-3.4495,-3.4506,-3.4561,-3.4076,-3.3231,-3.2561,-3.1807,-3.1011,-3.027,-3.0057,-3.0102,-3.0094,-2.956,-2.8912,-2.8897,-2.8338,-2.7554,-2.6742,-2.713,-2.7637,-2.6919,-2.7982,-2.9524,-3.046,-3.0746,-3.0795,-3.0807,-3.0793,-3.0797,-3.0799,-3.08,-3.082,-3.0897,-3.0837,-3.0794,-3.0803,-3.0796,-3.0806,-3.0804,-3.0791,-3.0796,-3.0806,-3.0736,-3.0695,-3.0695,-3.0644,-3.0603,-3.0603,-3.0603,-3.0595,-3.0593,-3.0597,-3.0597,-3.0597,-3.0669,-3.0669,-3.0597,-3.0467,-3.0407,-3.0407,-3.04,-3.0404,-3.0404,-3.0254,-3.0169,-3.0109,-3.0037,-2.9996,-2.998,-2.9868,-2.9808,-2.979,-2.9664,-2.956,-2.9492,-2.9345,-2.9299,-2.9302,-3.1411,-3.129,-3.1116,-3.0627,-3.0539,-3.0573,-3.0605,-3.0622,-3.0655,-3.0655,-3.0655,-3.0655,-3.0655,-3.0655,-3.0655,-3.0655,-3.1196,-3.1791,-3.2351,-3.2386,-3.2471,-3.2654,-3.2898,-3.3086,-3.3205,-3.3235,-3.3265,-3.3309,-3.3364,-3.3419,-3.3522,-3.3648,-3.3788,-3.3868,-3.3921,-3.3985,-3.4049,-3.4124,-3.4173,-3.4221,-3.4293,-3.419,-3.3908,-3.3108,-3.236,-3.1626,-3.0904,-3.0307,-2.9901,-2.9943,-2.9796,-2.949,-2.8878,-2.8518,-2.818,-2.7371,-2.7356,-2.7695,-2.8174,-2.8692,-2.9187,-2.9619,-3.023,-3.0734,-3.0721,-3.0728,-3.0728,-3.0737,-3.0766,-3.0812,-3.0836,-3.0817,-3.08,-3.08,-3.0798,-3.0795,-3.0803,-3.0798,-3.0792,-3.0799,-3.0771,-3.0765,-3.0774,-3.0757,-3.0747,-3.0747,-3.0747,-3.073,-3.0735,-3.0745,-3.073,-3.073,-3.0752,-3.0752,-3.073,-3.0649,-3.0591,-3.054,-3.0546,-3.0539,-3.054,-3.0448,-3.0372,-3.0306,-3.0297,-3.0235,-3.0129,-3.0037,-2.9969,-2.9934,-2.9899,-2.9805,-2.9688,-2.957,-2.9522,-2.949,-3.0711,-3.0572,-3.0367,-2.9661,-2.9558,-2.9592,-2.9642,-2.9936,-3.0161,-3.0161,-3.0404,-3.0595,-3.0595,-3.0595,-3.0595,-3.0595,-3.1063,-3.1585,-3.2074,-3.2109,-3.2109,-3.2109,-3.2318,-3.2556,-3.2802,-3.2802,-3.2834,-3.2914,-3.2943,-3.3006,-3.3099,-3.3223,-3.3327,-3.3412,-3.3469,-3.3526,-3.3597,-3.3666,-3.3703,-3.3757,-3.3823,-3.3884,-3.3843,-3.3025,-3.2321,-3.1671,-3.0963,-3.0262,-2.9654,-2.9728,-2.9745,-2.9651,-2.9089,-2.8929,-2.8803,-2.7988,-2.7807,-2.7922,-2.8244,-2.8572,-2.8881,-2.9063,-2.9858,-3.0591,-3.0618,-3.0626,-3.0625,-3.0659,-3.0684,-3.0724,-3.0716,-3.0741,-3.075,-3.075,-3.0754,-3.0779,-3.08,-3.0799,-3.0798,-3.0809,-3.0807,-3.0804,-3.0795,-3.0809,-3.0804,-3.0804,-3.0804,-3.0806,-3.0849,-3.0837,-3.0841,-3.0841,-3.0804,-3.0805,-3.0805,-3.0762,-3.0728,-3.0684,-3.0649,-3.0649,-3.0648,-3.0591,-3.0556,-3.0515,-3.0487,-3.0418,-3.0304,-3.0247,-3.019,-3.0151,-3.0142,-3.0052,-2.9943,-2.9807,-2.9741,-2.9699,-3.0166,-3.0073,-2.9891,-2.9158,-2.9144,-2.9213,-2.923,-2.9952,-3.0504,-3.0504,-3.1106,-3.1519,-3.1519,-3.1519,-3.1519,-3.1519,-3.1571,-3.164,-3.1709,-3.1709,-3.1709,-3.1709,-3.1784,-3.1984,-3.237,-3.2439,-3.2489,-3.2556,-3.2573,-3.264,-3.2758,-3.274,-3.282,-3.2928,-3.2961,-3.2993,-3.3055,-3.3129,-3.316,-3.3175,-3.3232,-3.3288,-3.3285,-3.2615,-3.1981,-3.1385,-3.0683,-3.0024,-2.9436,-2.9451,-2.9453,-2.9443,-2.9382,-2.9395,-2.9297,-2.8587,-2.8409,-2.833,-2.7662,-2.8048,-2.8698,-2.8841,-2.9615,-3.0365,-3.0446,-3.0482,-3.0509,-3.0565,-3.0587,-3.0586,-3.0587,-3.0639,-3.0684,-3.0684,-3.0683,-3.0703,-3.0771,-3.0793,-3.0797,-3.0781,-3.0781,-3.08,-3.0794,-3.0793,-3.0793,-3.0793,-3.0793,-3.0834,-3.0896,-3.0897,-3.0898,-3.0898,-3.082,-3.08,-3.08,-3.08,-3.0797,-3.081,-3.0743,-3.0713,-3.0718,-3.07,-3.0716,-3.0707,-3.0644,-3.0576,-3.0511,-3.0438,-3.0428,-3.0423,-3.0345,-3.0283,-3.0203,-3.0077,-2.9984,-2.992,-2.8862,-2.8317,-2.7771,-2.7072,-2.7425,-2.7847,-2.7901,-2.8558,-2.9065,-2.9065,-2.92,-2.9284,-2.9284,-2.9284,-2.9284,-2.9284,-2.9806,-3.0398,-3.0991,-3.1024,-3.1024,-3.1024,-3.1044,-3.1145,-3.1413,-3.193,-3.2197,-3.2214,-3.2266,-3.2301,-3.2318,-3.2387,-3.242,-3.2454,-3.2556,-3.2657,-3.2721,-3.2836,-3.2916,-3.2961,-3.2977,-3.3039,-3.3081,-3.2901,-3.2433,-3.1781,-3.1096,-3.041,-2.971,-2.9207,-2.9049,-2.9104,-2.9026,-2.9026,-2.9016,-2.889,-2.891,-2.8938,-2.8874,-2.9045,-2.9242,-2.9325,-2.9599,-2.9912,-3.0202,-3.0359,-3.0436,-3.0442,-3.0437,-3.0463,-3.0506,-3.053,-3.0533,-3.0548,-3.0591,-3.0623,-3.0642,-3.0697,-3.0717,-3.0716,-3.072,-3.0745,-3.0797,-3.0799,-3.08,-3.08,-3.0798,-3.0817,-3.0816,-3.0829,-3.0825,-3.0825,-3.0819,-3.0795,-3.0795,-3.08,-3.0836,-3.0872,-3.0811,-3.0786,-3.078,-3.0785,-3.0773,-3.0776,-3.0752,-3.0712,-3.0655,-3.0641,-3.0634,-3.063,-3.0561,-3.0492,-3.0437,-3.0331,-3.0279,-3.0183,-2.7666,-2.7511,-2.7342,-2.6691,-2.717,-2.7649,-2.7687,-2.8318,-2.8781,-2.8781,-2.9132,-2.9343,-2.9287,-2.9287,-2.9287,-2.9287,-2.9617,-3.0017,-3.0381,-3.0435,-3.0377,-3.033,-3.0418,-3.0522,-3.0625,-3.1086,-3.1506,-3.1802,-3.1839,-3.1874,-3.1874,-3.1894,-3.1912,-3.1912,-3.2002,-3.2073,-3.2126,-3.2266,-3.2353,-3.242,-3.2522,-3.2589,-3.2639,-3.269,-3.2273,-3.1635,-3.1339,-3.058,-2.9595,-2.8899,-2.8682,-2.87,-2.8632,-2.8632,-2.8682,-2.8707,-2.8749,-2.8832,-2.8893,-2.8994,-2.9081,-2.9153,-2.9297,-2.9504,-2.9875,-3.0041,-3.0114,-3.0147,-3.0202,-3.0235,-3.0298,-3.0303,-3.0314,-3.0356,-3.0437,-3.0506,-3.0496,-3.056,-3.0595,-3.0594,-3.0625,-3.0686,-3.0749,-3.0744,-3.075,-3.0755,-3.075,-3.0746,-3.0742,-3.0747,-3.0737,-3.0713,-3.0699,-3.0714,-3.0755,-3.0745,-3.0771,-3.0805,-3.0798,-3.0801,-3.08,-3.0797,-3.0792,-3.0801,-3.0792,-3.078,-3.0741,-3.0755,-3.0759,-3.0748,-3.0714,-3.0644,-3.0591,-3.0519,-3.0437,-3.0325,-2.6756,-2.7038,-2.7296,-2.6922,-2.7405,-2.7871,-2.7871,-2.8475,-2.8955,-2.8955,-2.9529,-2.9897,-2.9793,-2.9793,-2.9793,-2.9793,-2.9793,-2.9793,-2.9793,-2.9793,-2.9728,-2.9617,-2.9777,-2.9886,-2.9886,-3.0102,-3.0584,-3.1332,-3.1332,-3.1332,-3.1332,-3.1332,-3.1332,-3.1332,-3.1351,-3.1389,-3.1468,-3.1617,-3.1728,-3.1821,-3.202,-3.209,-3.2108,-3.2249,-3.1933,-3.1387,-3.136,-3.0574,-2.9462,-2.8846,-2.8555,-2.8448,-2.8429,-2.8349,-2.8291,-2.8317,-2.8375,-2.844,-2.8451,-2.8529,-2.8646,-2.8694,-2.8867,-2.9093,-2.9436,-2.9626,-2.9722,-2.9803,-2.9872,-2.9929,-3.0007,-3.0041,-3.0073,-3.0136,-3.0248,-3.0336,-3.0342,-3.0395,-3.0432,-3.0458,-3.0505,-3.0567,-3.0635,-3.0643,-3.0658,-3.0653,-3.0656,-3.0647,-3.0652,-3.0633,-3.062,-3.0547,-3.0548,-3.0579,-3.0633,-3.0641,-3.0639,-3.0655,-3.0726,-3.0761,-3.0776,-3.0797,-3.08,-3.08,-3.0799,-3.0795,-3.0803,-3.0792,-3.0803,-3.0794,-3.081,-3.0772,-3.0712,-3.0642,-3.0543,-3.0443,-2.6427,-2.617,-2.6046,-2.6547,-2.7227,-2.772,-2.772,-2.8292,-2.8739,-2.8739,-2.8833,-2.8896,-2.8873,-2.8873,-2.8873,-2.8873,-2.8873,-2.8873,-2.8873,-2.8873,-2.8873,-2.885,-2.8857,-2.8943,-2.9067,-2.9097,-2.9623,-3.0642,-3.0642,-3.0642,-3.0642,-3.0642,-3.0642,-3.0642,-3.0686,-3.0788,-3.0925,-3.1103,-3.1276,-3.1391,-3.1598,-3.1673,-3.1691,-3.1819,-3.1822,-3.165,-3.1028,-3.0365,-2.9744,-2.9639,-2.923,-2.8747,-2.8813,-2.8397,-2.7904,-2.8025,-2.8095,-2.8164,-2.8228,-2.8309,-2.8362,-2.8362,-2.8479,-2.8601,-2.8719,-2.9056,-2.9389,-2.9447,-2.9523,-2.9616,-2.9725,-2.9796,-2.9857,-2.9934,-2.9996,-3.0072,-3.0126,-3.0155,-3.0196,-3.0315,-3.0334,-3.0334,-3.035,-3.0419,-3.0438,-3.0438,-3.0438,-3.0438,-3.0434,-3.0384,-3.035,-3.0344,-3.0342,-3.0332,-3.0356,-3.0399,-3.0448,-3.0434,-3.0513,-3.0607,-3.0716,-3.0773,-3.0801,-3.0808,-3.0798,-3.08,-3.0801,-3.0798,-3.0793,-3.0792,-3.0795,-3.0799,-3.0786,-3.0711,-3.0662,-3.0668,-2.5714,-2.6134,-2.6594,-2.6917,-2.7612,-2.8077,-2.8077,-2.8348,-2.8534,-2.8534,-2.8534,-2.8494,-2.8422,-2.835,-2.8326,-2.8422,-2.8422,-2.8422,-2.8422,-2.8422,-2.8398,-2.8301,-2.8374,-2.8446,-2.851,-2.8581,-2.885,-2.9341,-2.9579,-2.9711,-2.9711,-2.9711,-2.9711,-2.9711,-2.9755,-2.9848,-3.0026,-3.0272,-3.0522,-3.0784,-3.1044,-3.1142,-3.1162,-3.1295,-3.1295,-3.1155,-3.0447,-3.0064,-2.9848,-2.9471,-2.9179,-2.9005,-2.9089,-2.8683,-2.82,-2.8264,-2.8042,-2.778,-2.7792,-2.7893,-2.7961,-2.7961,-2.8119,-2.8286,-2.8309,-2.852,-2.8778,-2.906,-2.9137,-2.9201,-2.9346,-2.9425,-2.9503,-2.9608,-2.969,-2.9732,-2.9811,-2.9842,-2.9915,-3.0015,-3.0054,-3.0096,-3.0125,-3.0196,-3.0228,-3.0228,-3.0272,-3.0272,-3.0234,-3.0234,-3.0247,-3.0248,-3.0235,-3.0241,-3.0241,-3.0266,-3.0309,-3.034,-3.0369,-3.0458,-3.0587,-3.0652,-3.0681,-3.0691,-3.0737,-3.0734,-3.0745,-3.0776,-3.0799,-3.08,-3.0798,-3.081,-3.0796,-3.0778,-3.0754,-3.075]},{"header":{"parameterUnit":"m.s-1","parameterCategory":1,"la1":30.6,"la2":28.766,"lo1":-90.7593,"lo2":-88.6598,"dy":0.0162,"dx":0.0183,"nx":116,"ny":114,"refTime":"2024-07-03T00:00:00:Z","depth":0,"parameterNumber":3,"parameterNumberName":"V-component_of_WINDS"},"data":[0.0,0.0,0.0,0.0,0.0,0.0,0.0,0.0,0.0,0.0,0.0,0.0,0.0,0.0,0.0,0.0,0.0,0.0,0.0,0.0,0.0,0.0,0.0,0.0,0.0,0.0,0.0,0.0,0.0,0.0,0.0,0.0,0.0,0.0,0.0,0.0,0.0,0.0,0.0,0.0,0.0,0.0,0.0,0.0,0.0,0.0,0.0,0.0,0.0,0.0,0.0,0.0,0.0,0.0,0.0,0.0,0.0,0.0,0.0,0.0,0.0,0.0,0.0,0.0,0.0,0.0,0.0,0.0,0.0,0.0,0.0,0.0,0.0,0.0,0.0,0.0,0.0,0.0,0.0,0.0,0.0,0.0,0.0,0.0,0.0,0.0,0.0,0.0,0.0,0.0,0.0,0.0,0.0,0.0,0.0,0.0,0.0,0.0,0.0,0.0,0.0,0.0,0.0,0.0,0.0,0.0,0.0,0.0,0.0,0.0,0.0,0.0,0.0,0.0,0.0,0.0,0.0,0.0,0.0,0.0,0.0,0.0,0.0,0.0,0.0,0.0,0.0,0.0,0.0,0.0,0.0,0.0,0.0,0.0,0.0,0.0,0.0,0.0,0.0,0.0,0.0,0.0,0.0,0.0,0.0,0.0,0.0,0.0,0.0,0.0,0.0,0.0,0.0,0.0,0.0,0.0,0.0,0.0,0.0,0.0,0.0,0.0,0.0,0.0,0.0,0.0,0.0,0.0,0.0,0.0,0.0,0.0,0.0,0.0,0.0,0.0,0.0,0.0,0.0,0.0,0.0,0.0,0.0,0.0,0.0,0.0,0.0,0.0,0.0,0.0,0.0,0.0,0.0,0.0,0.0,0.0,0.0,0.0,0.0,0.0,0.0,0.0,0.0,0.0,0.0,0.0,0.0,0.0,0.0,0.0,0.0,0.0,0.0,0.0,0.0,0.0,0.0,0.0,0.0,0.0,0.0,0.0,0.0,0.0,0.0,0.0,0.0,0.0,0.0,0.0,0.0,0.0,0.0,0.0,0.0,0.0,0.0,0.0,0.0,0.0,0.0,0.0,0.0,0.0,0.0,0.0,0.0,0.0,0.0,0.0,0.0,0.0,0.0,0.0,0.0,0.0,0.0,0.0,0.0,0.0,0.0,0.0,0.0,0.0,0.0,0.0,0.0,0.0,0.0,0.0,0.0,0.0,0.0,0.0,0.0,0.0,0.0,0.0,0.0,0.0,0.0,0.0,0.0,0.0,0.0,0.0,0.0,0.0,0.0,0.0,0.0,0.0,0.0,0.0,0.0,0.0,0.0,0.0,0.0,0.0,0.0,0.0,0.0,0.0,0.0,0.0,0.0,0.0,0.0,0.0,0.0,0.0,0.0,0.0,0.0,0.0,0.0,0.0,0.0,0.0,0.0,0.0,0.0,0.0,0.0,0.0,0.0,0.0,0.0,0.0,0.0,0.0,0.0,0.0,0.0,0.0,0.0,0.0,0.0,0.0,0.0,0.0,0.0,0.0,0.0,0.0,0.0,0.0,0.0,0.0,0.0,0.0,0.0,0.0,0.0,0.0,0.0,0.0,0.0,0.0,0.0,0.0,0.0,0.0,0.0,0.0,0.0,0.0,0.0,0.0,0.0,0.0,0.0,0.0,0.0,0.0,0.0,0.0,0.0,0.0,0.0,0.0,0.0,0.0,0.0,0.0,0.0,0.0,0.0,0.0,0.0,0.0,0.0,0.0,0.0,0.0,0.0,0.0,0.0,0.0,0.0,0.0,0.0,0.0,0.0,0.0,0.0,0.0,0.0,0.0,0.0,0.0,0.0,0.0,0.0,0.0,0.0,0.0,0.0,0.0,0.0,0.0,0.0,0.0,0.0,0.0,0.0,0.0,0.0,0.0,0.0,0.0,0.0,0.0,0.0,0.0,0.0,0.0,0.0,0.0,0.0,0.0,0.0,0.0,0.0,0.0,0.0,0.0,0.0,0.0,0.0,0.0,0.0,0.0,0.0,0.0,0.0,0.0,0.0,0.0,0.0,0.0,0.0,0.0,0.0,0.0,0.0,0.0,0.0,0.0,0.0,0.0,0.0,0.0,0.0,0.0,0.0,0.0,0.0,0.0,0.0,0.0,0.0,0.0,0.0,0.0,0.0,0.0,0.0,0.0,0.0,0.0,0.0,0.0,0.0,0.0,0.0,0.0,0.0,0.0,0.0,0.0,0.0,0.0,0.0,0.0,0.0,0.0,0.0,0.0,0.0,0.0,0.0,0.0,0.0,0.0,0.0,0.0,0.0,0.0,0.0,0.0,0.0,0.0,0.0,0.0,0.0,0.0,0.0,0.0,0.0,0.0,0.0,0.0,0.0,0.0,0.0,0.0,0.0,0.0,0.0,0.0,0.0,0.0,0.0,0.0,0.0,0.0,0.0,0.0,0.0,0.0,0.0,0.0,0.0,0.0,0.0,0.0,0.0,0.0,0.0,0.0,0.0,0.0,0.0,0.0,0.0,0.0,0.0,0.0,0.0,0.0,0.0,0.0,0.0,0.0,0.0,0.0,0.0,0.0,0.0,0.0,0.0,0.0,0.0,0.0,0.0,0.0,0.0,0.0,0.0,0.0,0.0,0.0,0.0,0.0,0.0,0.0,0.0,0.0,0.0,0.0,0.0,0.0,0.0,0.0,0.0,0.0,0.0,0.0,0.0,0.0,0.0,0.0,0.0,0.0,0.0,0.0,0.0,0.0,0.0,0.0,0.0,0.0,0.0,0.0,0.0,0.0,0.0,0.0,0.0,0.0,0.0,0.0,0.0,0.0,0.0,0.0,0.0,0.0,0.0,0.0,0.0,0.0,0.0,0.0,0.0,0.0,0.0,0.0,0.0,0.0,0.0,0.0,0.0,0.0,0.0,0.0,0.0,0.0,0.0,0.0,0.0,0.0,0.0,0.0,0.0,0.0,0.0,0.0,0.0,0.0,0.0,0.0,0.0,0.0,0.0,0.0,0.0,0.0,0.0,0.0,0.0,0.0,0.0,0.0,0.0,0.0,0.0,0.0,0.0,0.0,0.0,0.0,0.0,0.0,0.0,0.0,0.0,0.0,0.0,0.0,0.0,0.0,0.0,0.0,0.0,0.0,0.0,0.0,0.0,0.0,0.0,0.0,0.0,0.0,0.0,0.0,0.0,0.0,0.0,0.0,0.0,0.0,0.0,0.0,0.0,0.0,0.0,0.0,0.0,0.0,0.0,0.0,0.0,0.0,0.0,0.0,0.0,0.0,0.0,0.0,0.0,0.0,0.0,0.0,0.0,0.0,0.0,0.0,0.0,0.0,0.0,0.0,0.0,0.0,0.0,0.0,0.0,0.0,0.0,0.0,0.0,0.0,0.0,0.0,0.0,0.0,0.0,0.0,0.0,0.0,0.0,0.0,0.0,0.0,0.0,0.0,0.0,0.0,0.0,0.0,0.0,0.0,0.0,0.0,0.0,0.0,0.0,0.0,0.0,0.0,0.0,0.0,0.0,0.0,0.0,0.0,0.0,0.0,0.0,0.0,0.0,0.0,0.0,0.0,0.0,0.0,0.0,0.0,0.0,0.0,0.0,0.0,0.0,0.0,0.0,0.0,0.0,0.0,0.0,0.0,0.0,0.0,0.0,0.0,0.0,0.0,0.0,0.0,0.0,0.0,0.0,0.0,0.0,0.0,0.0,0.0,0.0,0.0,0.0,0.0,0.0,0.0,0.0,0.0,0.0,0.0,0.0,0.0,0.0,0.0,0.0,0.0,0.0,0.0,0.0,0.0,0.0,0.0,0.0,0.0,0.0,0.0,0.0,0.0,0.0,0.0,0.0,0.0,0.0,0.0,0.0,0.0,0.0,0.0,0.0,0.0,0.0,0.0,0.0,0.0,0.0,0.0,0.0,0.0,0.0,0.0,0.0,0.0,0.0,0.0,0.0,0.0,0.0,0.0,0.0,0.0,0.0,0.0,0.0,0.0,0.0,0.0,0.0,0.0,0.0,0.0,0.0,0.0,0.0,0.0,0.0,0.0,0.0,0.0,0.0,0.0,0.0,0.0,0.0,0.0,0.0,0.0,0.0,0.0,0.0,0.0,0.0,0.0,0.0,0.0,0.0,0.0,0.0,0.0,0.0,0.0,0.0,0.0,0.0,0.0,0.0,0.0,0.0,0.0,0.0,0.0,0.0,0.0,0.0,0.0,0.0,0.0,0.0,0.0,0.0,0.0,0.0,0.0,0.0,0.0,0.0,0.0,0.0,0.0,0.0,0.0,0.0,0.0,0.0,0.0,0.0,0.0,0.0,0.0,0.0,0.0,0.0,0.0,0.0,0.0,0.0,0.0,0.0,0.0,0.0,0.0,0.0,0.0,0.0,0.0,0.0,0.0,0.0,0.0,0.0,0.0,0.0,0.0,0.0,0.0,0.0,0.0,0.0,0.0,0.0,0.0,0.0,0.0,0.0,0.0,0.0,0.0,0.0,0.0,0.0,0.0,0.0,0.0,0.0,0.0,0.0,0.0,0.0,0.0,0.0,0.0,0.0,0.0,0.0,0.0,0.0,0.0,0.0,0.0,0.0,0.0,0.0,0.0,0.0,0.0,0.0,0.0,0.0,0.0,0.0,0.0,0.0,0.0,0.0,0.0,0.0,0.0,0.0,0.0,0.0,0.0,0.0,0.0,0.0,0.0,0.0,0.0,0.0,0.0,0.0,0.0,0.0,0.0,0.0,0.0,0.0,0.0,0.0,0.0,0.0,0.0,0.0,0.0,0.0,0.0,0.0,0.0,0.0,0.0,0.0,0.0,0.0,0.0,0.0,0.0,0.0,0.0,0.0,0.0,0.0,0.0,0.0,0.0,0.0,0.0,0.0,0.0,0.0,0.0,0.0,0.0,0.0,0.0,0.0,0.0,0.0,0.0,0.0,0.0,0.0,0.0,0.0,0.0,0.0,0.0,0.0,0.0,0.0,0.0,0.0,0.0,0.0,0.0,0.0,0.0,0.0,0.0,0.0,0.0,0.0,0.0,0.0,0.0,0.0,0.0,0.0,0.0,0.0,0.0,0.0,0.0,0.0,0.0,0.0,0.0,0.0,0.0,0.0,0.0,0.0,0.0,0.0,0.0,0.0,0.0,0.0,0.0,0.0,0.0,0.0,0.0,0.0,0.0,0.0,0.0,0.0,0.0,0.0,0.0,0.0,0.0,0.0,0.0,0.0,0.0,0.0,0.0,0.0,0.0,0.0,0.0,0.0,0.0,0.0,0.0,0.0,0.0,0.0,0.0,0.0,0.0,0.0,0.0,0.0,0.0,0.0,0.0,0.0,0.0,0.0,0.0,0.0,0.0,0.0,0.0,0.0,0.0,0.0,0.0,0.0,0.0,0.0,0.0,0.0,0.0,0.0,0.0,0.0,0.0,0.0,0.0,0.0,0.0,0.0,0.0,0.0,0.0,0.0,0.0,0.0,0.0,0.0,0.0,0.0,0.0,0.0,0.0,0.0,0.0,0.0,0.0,0.0,0.0,0.0,0.0,0.0,0.0,0.0,0.0,0.0,0.0,0.0,0.0,0.0,0.0,0.0,0.0,0.0,0.0,0.0,0.0,0.0,0.0,0.0,0.0,0.0,0.0,0.0,0.0,0.0,0.0,0.0,0.0,0.0,0.0,0.0,0.0,0.0,0.0,0.0,0.0,0.0,0.0,0.0,0.0,0.0,0.0,0.0,0.0,0.0,0.0,0.0,0.0,0.0,0.0,0.0,0.0,0.0,0.0,0.0,0.0,0.0,0.0,0.0,0.0,0.0,0.0,0.0,0.0,0.0,0.0,0.0,0.0,0.0,0.0,0.0,0.0,0.0,0.0,0.0,0.0,0.0,0.0,0.0,0.0,0.0,0.0,0.0,0.0,0.0,0.0,0.0,0.0,0.0,0.0,0.0,0.0,0.0,0.0,0.0,0.0,0.0,0.0,0.0,0.0,0.0,0.0,0.0,0.0,0.0,0.0,0.0,0.0,0.0,0.0,0.0,0.0,0.0,0.0,0.0,0.0,0.0,0.0,0.0,0.0,0.0,0.0,0.0,0.0,0.0,0.0,0.0,0.0,-1.4965,-1.5128,0.0,0.0,0.0,0.0,0.0,0.0,0.0,0.0,0.0,0.0,0.0,0.0,0.0,0.0,0.0,0.0,0.0,0.0,0.0,0.0,0.0,0.0,0.0,-1.1511,-1.1886,-1.2056,-1.209,-1.1982,-1.1634,0.0,0.0,0.0,0.0,0.0,-0.9507,-0.9277,-0.9167,-0.916,-0.9328,-0.9642,-1.0065,-1.0598,-1.1284,-1.2103,0.0,0.0,0.0,0.0,0.0,0.0,0.0,0.0,0.0,0.0,0.0,0.0,0.0,0.0,0.0,0.0,0.0,0.0,0.0,0.0,0.0,0.0,0.0,0.0,0.0,0.0,0.0,0.0,0.0,0.0,0.0,0.0,0.0,0.0,0.0,0.0,0.0,0.0,0.0,0.0,0.0,0.0,0.0,0.0,0.0,0.0,0.0,0.0,0.0,0.0,0.0,0.0,0.0,0.0,0.0,0.0,0.0,0.0,0.0,0.0,0.0,0.0,0.0,0.0,0.0,0.0,0.0,0.0,0.0,0.0,-1.5561,-1.5717,0.0,0.0,0.0,0.0,0.0,0.0,0.0,0.0,0.0,0.0,0.0,0.0,0.0,0.0,0.0,0.0,0.0,0.0,0.0,0.0,0.0,-1.0307,-1.0544,-1.0858,-1.1175,-1.1395,-1.1431,-1.1338,-1.1151,-1.1075,0.0,0.0,0.0,-0.9796,-0.9543,-0.9148,-0.8897,-0.8779,-0.8937,-0.9385,-1.0112,-1.0822,-1.1568,-1.2342,-1.2766,0.0,0.0,0.0,0.0,0.0,0.0,0.0,0.0,0.0,0.0,0.0,0.0,0.0,0.0,0.0,0.0,0.0,0.0,0.0,0.0,0.0,0.0,0.0,0.0,0.0,0.0,0.0,0.0,0.0,0.0,0.0,0.0,0.0,0.0,0.0,0.0,0.0,0.0,0.0,0.0,0.0,0.0,0.0,0.0,0.0,0.0,0.0,0.0,0.0,0.0,0.0,0.0,0.0,0.0,0.0,0.0,0.0,0.0,0.0,0.0,0.0,0.0,0.0,-1.3788,-1.3905,-1.407,-1.4771,-1.5366,-1.5923,-1.659,-1.6723,-1.6486,-1.6789,0.0,0.0,0.0,0.0,0.0,0.0,0.0,0.0,0.0,0.0,0.0,0.0,0.0,0.0,0.0,0.0,0.0,0.0,0.0,-0.9337,-0.995,-0.9846,-1.0033,-1.0673,-1.0725,-1.0659,-1.0448,-1.0409,0.0,0.0,-0.9971,-0.9758,-0.9266,-0.9459,-0.9441,-0.9138,-0.9394,-0.9713,-1.0118,-1.0399,-1.0772,-1.1252,-1.212,-1.2673,-1.3032,0.0,0.0,0.0,0.0,0.0,0.0,0.0,0.0,0.0,0.0,0.0,0.0,0.0,0.0,0.0,0.0,0.0,0.0,0.0,0.0,0.0,0.0,0.0,0.0,0.0,0.0,0.0,0.0,0.0,0.0,0.0,0.0,0.0,0.0,0.0,0.0,0.0,0.0,0.0,0.0,0.0,-1.0486,-1.0902,0.0,0.0,0.0,0.0,0.0,0.0,0.0,0.0,0.0,0.0,0.0,0.0,0.0,-1.376,-1.376,-1.4007,-1.4271,-1.4516,-1.4704,-1.5137,-1.5809,-1.6364,-1.6905,-1.7441,-1.8,0.0,-1.7193,-1.7348,0.0,0.0,0.0,0.0,0.0,0.0,0.0,0.0,0.0,0.0,0.0,0.0,0.0,0.0,0.0,0.0,0.0,0.0,0.0,0.0,0.0,-0.8868,-0.8955,-0.9375,-0.9636,-0.9737,-0.9686,-0.9784,-0.9784,-0.9646,-0.9578,-0.9392,-0.9033,-0.9096,-0.9076,-0.8926,-0.9108,-0.9328,-0.9596,-0.9912,-1.0293,-1.0696,-1.1449,-1.209,-1.2656,-1.3314,0.0,0.0,0.0,0.0,0.0,0.0,0.0,0.0,0.0,0.0,0.0,0.0,0.0,0.0,0.0,0.0,0.0,0.0,0.0,0.0,0.0,0.0,0.0,0.0,0.0,0.0,0.0,0.0,0.0,0.0,0.0,0.0,0.0,0.0,0.0,0.0,0.0,0.0,0.0,-1.0609,-1.0914,-1.1033,-1.1175,-1.1256,0.0,0.0,0.0,0.0,0.0,0.0,0.0,0.0,0.0,-1.3962,-1.4437,-1.4772,-1.4977,-1.5056,-1.5174,-1.5331,-1.5292,-1.5582,-1.6132,-1.676,-1.7348,-1.7896,-1.8438,-1.8517,-1.8293,-1.81,-1.7884,-1.7678,0.0,0.0,0.0,0.0,-1.8232,-1.8611,0.0,0.0,0.0,0.0,0.0,0.0,0.0,0.0,0.0,0.0,0.0,0.0,-0.7982,-0.7879,-0.7894,-0.814,-0.8451,-0.8691,0.0,0.0,-0.9179,-0.9219,-0.9101,-0.8914,-0.8688,-0.8561,-0.85,-0.85,-0.868,-0.8883,-0.9076,-0.9516,-0.9961,-1.0438,-1.1038,-1.1689,-1.2395,-1.3253,-1.3852,0.0,0.0,0.0,0.0,0.0,0.0,0.0,0.0,0.0,0.0,0.0,0.0,0.0,0.0,0.0,0.0,0.0,0.0,0.0,0.0,0.0,0.0,0.0,0.0,0.0,0.0,0.0,0.0,0.0,0.0,0.0,0.0,0.0,0.0,0.0,0.0,0.0,0.0,-1.106,-1.1338,-1.1396,-1.1589,-1.1783,0.0,0.0,0.0,0.0,0.0,0.0,-1.3634,-1.4026,-1.4406,-1.4738,-1.5339,-1.5735,-1.6009,-1.6055,-1.6092,-1.6092,-1.5961,-1.6139,-1.6519,-1.7178,-1.7759,-1.8245,-1.8707,-1.9008,-1.911,-1.8768,-1.8435,-1.8134,-1.8197,-1.8279,-1.8341,-1.8619,-1.8945,-1.926,0.0,0.0,0.0,0.0,0.0,0.0,0.0,0.0,0.0,0.0,0.0,-0.7366,-0.7186,0.0,-0.6827,-0.7237,-0.735,-0.7531,0.0,0.0,-0.8329,-0.8455,-0.8512,-0.837,-0.8049,-0.7974,-0.7933,-0.7933,-0.827,-0.8529,-0.8736,-0.9259,-0.9834,-1.0438,-1.1038,-1.1641,-1.2269,-1.3405,-1.4221,-1.4849,0.0,0.0,0.0,0.0,0.0,0.0,0.0,0.0,0.0,0.0,0.0,0.0,0.0,0.0,0.0,0.0,0.0,0.0,0.0,0.0,0.0,0.0,0.0,0.0,0.0,0.0,0.0,0.0,0.0,0.0,0.0,0.0,0.0,0.0,0.0,0.0,0.0,0.0,0.0,-1.2176,-1.2146,0.0,0.0,0.0,0.0,-1.3302,-1.3477,-1.3779,-1.4326,-1.4903,-1.5372,-1.5736,-1.6242,-1.6556,-1.6573,-1.6733,-1.6855,-1.6846,-1.7022,-1.7297,-1.7628,-1.8036,-1.8438,-1.8774,-1.9119,-1.9285,-1.9274,-1.9253,-1.9233,-1.9203,-1.8945,-1.8977,-1.9156,-1.9292,-1.9563,-1.9961,0.0,0.0,0.0,-1.1047,-1.066,-1.0237,-0.9751,-0.921,-0.856,-0.7757,-0.7124,-0.6568,0.0,-0.5821,-0.5692,-0.565,-0.5919,-0.622,-0.6559,0.0,-0.7228,-0.7495,-0.768,-0.7751,-0.7669,-0.7614,-0.7691,-0.7899,-0.785,-0.7961,-0.8247,-0.8437,-0.9032,-0.9974,-1.0589,-1.1411,-1.2401,-1.3545,-1.429,-1.477,-1.5744,-1.6117,0.0,0.0,0.0,0.0,0.0,0.0,0.0,0.0,0.0,0.0,0.0,0.0,0.0,0.0,0.0,0.0,0.0,0.0,0.0,0.0,0.0,0.0,0.0,0.0,0.0,0.0,0.0,0.0,0.0,0.0,0.0,0.0,0.0,0.0,0.0,0.0,0.0,-1.2564,-1.2684,0.0,-1.3083,-1.3107,-1.3343,-1.3884,-1.4279,-1.4736,-1.5289,-1.5826,-1.6305,-1.669,-1.7008,-1.7264,-1.7511,-1.7359,-1.7278,-1.7308,-1.7486,-1.7779,-1.8182,-1.8958,-1.9535,-1.992,-2.0257,-2.0226,-1.9961,-2.0062,-1.9881,-1.9495,-1.9522,-1.9641,-1.9802,-1.9974,-2.0262,-2.059,-1.1903,-1.1612,0.0,-1.099,-1.0561,-1.0097,-0.9581,-0.8903,-0.8161,-0.7312,-0.6616,-0.5929,-0.521,-0.4923,-0.4728,-0.454,-0.4774,-0.5076,-0.5443,0.0,-0.6185,-0.6537,-0.6863,-0.7063,-0.7168,-0.7202,-0.7321,-0.7482,-0.745,-0.7556,-0.776,-0.797,-0.8573,-0.9528,-1.0326,-1.1243,-1.2277,-1.3561,-1.4405,-1.4969,-1.5935,-1.6399,-1.6469,0.0,0.0,0.0,0.0,0.0,0.0,0.0,0.0,0.0,0.0,0.0,0.0,0.0,0.0,0.0,0.0,0.0,0.0,0.0,0.0,0.0,0.0,0.0,0.0,0.0,0.0,0.0,0.0,0.0,0.0,0.0,0.0,0.0,0.0,-1.2064,-1.2627,-1.3033,-1.3243,-1.3468,-1.3702,-1.3794,-1.4036,-1.4512,-1.5054,-1.5546,-1.5868,-1.6523,-1.7017,-1.7279,-1.7555,-1.7783,-1.7991,-1.7783,-1.7694,-1.7812,-1.8008,-1.8377,-1.8937,-1.9674,-2.0252,-2.068,-2.0963,-2.0882,-2.0522,-2.0681,-2.0553,-2.0182,-2.0096,-2.0161,-2.0313,-2.0485,-2.0711,-2.0967,-1.1822,-1.1578,-1.1263,-1.0875,-1.0472,-0.9995,-0.9394,-0.867,-0.7852,-0.6928,-0.6198,-0.5479,-0.466,-0.4231,-0.3975,-0.3972,-0.3955,-0.4134,-0.4541,-0.4873,-0.5237,-0.5671,-0.6073,-0.6352,-0.6486,-0.6753,-0.6825,-0.6685,-0.7075,-0.7281,-0.7303,-0.7878,-0.8485,-0.912,-1.0257,-1.1126,-1.1876,-1.3398,-1.4547,-1.5443,-1.6523,-1.6932,-1.6908,0.0,0.0,0.0,0.0,0.0,0.0,0.0,0.0,0.0,0.0,0.0,0.0,0.0,0.0,0.0,0.0,0.0,0.0,0.0,0.0,0.0,0.0,0.0,0.0,0.0,0.0,0.0,0.0,0.0,0.0,0.0,0.0,0.0,-1.1476,-1.2276,-1.3006,-1.3526,-1.3779,-1.4174,-1.4835,-1.4802,-1.4841,-1.5171,-1.5749,-1.613,-1.613,-1.7013,-1.7531,-1.7531,-1.7843,-1.8,-1.8,-1.8,-1.8112,-1.8393,-1.8605,-1.9145,-1.9922,-2.0145,-2.0554,-2.1066,-2.1274,-2.1214,-2.0972,-2.1084,-2.1275,-2.1341,-2.0675,-2.0562,-2.0756,-2.0862,-2.0914,-2.1031,-1.1685,-1.1448,-1.1158,-1.0851,-1.0435,-0.9944,-0.9381,-0.8598,-0.7714,-0.6779,-0.5952,-0.5109,-0.4264,-0.3842,-0.3517,-0.3235,-0.3202,-0.335,-0.3704,-0.3948,-0.4461,-0.5303,-0.5671,-0.5949,-0.6127,-0.6249,-0.6362,-0.6418,-0.6475,-0.665,-0.6935,-0.7152,-0.7736,-0.8628,-0.9377,-1.0224,-1.1164,-1.246,-1.3454,-1.428,-1.5546,-1.6342,-1.6715,0.0,0.0,0.0,0.0,0.0,0.0,0.0,0.0,0.0,0.0,0.0,0.0,0.0,0.0,0.0,0.0,0.0,0.0,0.0,0.0,0.0,0.0,0.0,0.0,0.0,0.0,0.0,0.0,0.0,0.0,0.0,-1.0693,-1.1379,-1.1728,-1.2472,-1.3142,-1.369,-1.4135,-1.454,-1.4883,-1.4988,-1.5176,-1.5382,-1.6057,-1.6539,-1.666,-1.7436,-1.7837,-1.7837,-1.794,-1.8,-1.8,-1.8,-1.8112,-1.8393,-1.9073,-1.9713,-2.0361,-2.1213,-2.1908,-2.2451,-2.2644,-2.2587,-2.2345,-2.2369,-2.2306,-2.2071,-2.1408,-2.1261,-2.1416,-2.147,-2.1383,-2.1368,-1.1608,-1.1382,-1.1141,-1.0815,-1.0422,-0.9957,-0.9381,-0.8568,-0.7666,-0.6719,-0.5798,-0.4919,-0.4129,-0.3646,-0.3253,-0.2937,-0.2805,-0.2847,-0.3082,-0.3504,-0.4111,-0.4913,-0.5241,-0.5542,-0.5823,-0.5868,-0.5946,-0.605,-0.6117,-0.6314,-0.6602,-0.6827,-0.7369,-0.8183,-0.9008,-0.9833,-1.068,-1.2021,-1.2904,-1.3503,-1.4623,-1.559,-1.6315,-1.5894,-1.5678,-1.5484,-1.4856,-1.4113,-1.3416,-1.3236,0.0,0.0,0.0,0.0,0.0,0.0,0.0,0.0,0.0,0.0,0.0,0.0,0.0,0.0,0.0,0.0,0.0,0.0,0.0,0.0,0.0,0.0,0.0,0.0,-1.0738,-1.1302,-1.1633,-1.2339,-1.3028,-1.347,-1.4173,-1.4677,-1.4872,-1.5221,-1.5505,-1.5611,-1.6306,-1.6796,-1.688,-1.759,-1.8,-1.8,-1.8,-1.8,-1.8,-1.8,-1.8161,-1.8523,-1.9253,-2.0031,-2.0808,-2.1787,-2.2553,-2.315,-2.3335,-2.324,-2.296,-2.296,-2.2908,0.0,0.0,0.0,0.0,0.0,-2.1443,-2.1451,-1.1553,-1.1396,-1.1155,-1.0765,-1.0435,-1.0021,-0.9408,-0.8584,-0.7685,-0.6764,-0.5767,-0.4877,-0.4167,-0.356,-0.3105,-0.2871,-0.2606,-0.2517,0.0,-0.3371,-0.401,-0.4536,-0.4827,-0.5146,-0.5508,-0.5548,-0.5582,-0.5624,-0.5909,-0.6138,-0.6291,-0.6762,-0.727,-0.7841,-0.8922,-0.9698,-1.0288,-1.1857,-1.267,-1.2986,-1.3856,-1.4846,-1.5788,-1.5715,-1.5308,-1.474,-1.4636,-1.4031,-1.3317,-1.3422,0.0,0.0,0.0,0.0,0.0,0.0,0.0,0.0,0.0,0.0,0.0,0.0,0.0,0.0,0.0,0.0,0.0,0.0,0.0,0.0,0.0,0.0,0.0,0.0,-1.0893,-1.11,-1.1335,-1.2003,-1.2673,-1.3119,-1.3992,-1.4641,-1.4872,-1.5443,-1.5778,-1.5857,-1.6524,-1.6898,-1.6978,-1.7615,0.0,0.0,0.0,-1.8,-1.8,-1.804,-1.8282,-1.8732,-1.9381,-2.0226,-2.1242,-2.2052,-2.2777,-2.3335,-2.3567,-2.3492,-2.3239,-2.3239,-2.3276,-2.3326,-2.2708,-2.224,-2.1825,-2.1385,-2.1273,-2.1431,-1.1548,-1.1353,-1.1108,-1.0753,-1.046,-1.0097,-0.9541,-0.8714,-0.7862,-0.7032,-0.5998,-0.502,-0.4183,-0.356,-0.3027,-0.261,-0.2328,-0.2307,0.0,0.0,-0.3882,-0.4263,-0.4689,-0.4955,-0.503,-0.5198,-0.526,-0.5216,-0.5589,-0.5893,-0.6152,-0.668,-0.7196,-0.7753,-0.8464,-0.904,-0.9607,-1.1307,-1.2162,-1.2462,-1.3758,-1.4637,-1.5166,-1.5096,-1.513,-1.5182,-1.5157,-1.4619,-1.391,-1.3775,-1.3543,-1.3269,-1.2815,0.0,0.0,0.0,0.0,0.0,0.0,0.0,0.0,0.0,0.0,0.0,0.0,0.0,0.0,0.0,0.0,0.0,0.0,0.0,0.0,-1.0701,-1.0894,-1.1088,-1.1143,-1.1558,-1.215,-1.2863,-1.3695,-1.4389,-1.4864,-1.5292,-1.5774,-1.6261,-1.6661,-1.7047,-1.7385,-1.7792,-1.8,-1.8,-1.8,-1.8,-1.8,-1.8193,-1.8523,-1.8962,-1.9736,0.0,-2.1464,-2.2289,-2.2964,-2.3556,-2.3751,-2.3913,-2.3979,-2.3979,-2.3774,-2.3361,-2.2846,-2.2341,-2.1825,-2.1385,-2.1221,-2.1285,-1.1447,-1.1296,-1.1073,-1.0705,-1.0486,-1.0173,-0.9632,-0.8901,-0.809,-0.7262,-0.6213,-0.5228,-0.4392,-0.3642,-0.301,-0.2543,-0.2219,0.0,0.0,-0.2972,-0.3475,-0.3874,-0.4228,-0.4512,-0.4742,-0.4904,-0.5032,-0.5099,-0.5505,-0.5834,-0.6106,-0.6686,-0.7225,-0.7729,-0.8326,-0.9029,-0.9835,-1.1255,-1.2177,-1.2787,-1.3871,-1.4427,-1.4597,-1.4445,-1.4398,-1.4428,-1.4632,-1.4303,-1.3822,-1.395,-1.3729,-1.3305,-1.2876,-1.2618,-1.2338,0.0,0.0,0.0,0.0,0.0,0.0,0.0,0.0,0.0,0.0,0.0,0.0,0.0,0.0,-1.0778,-1.0598,0.0,-1.1014,-1.104,-1.1064,-1.1111,-1.1111,-1.1372,-1.1818,-1.2526,-1.3397,-1.4129,-1.4613,-1.507,-1.5501,-1.591,-1.6444,-1.6881,-1.7184,-1.7732,-1.8,-1.8,-1.8,-1.8,-1.8,-1.8282,-1.8603,-1.9002,-1.9814,-2.0673,-2.154,-2.244,-2.3113,-2.3641,-2.3934,-2.4116,-2.4177,-2.3925,-2.3338,-2.2628,-2.2398,-2.2145,-2.1825,-2.1385,-2.119,-2.1265,-1.1307,-1.1192,-1.1003,-1.0656,-1.0498,-1.0224,-0.9697,-0.9062,-0.8336,-0.7477,-0.6448,-0.5472,-0.4632,-0.3756,-0.2988,0.0,0.0,0.0,0.0,-0.2623,-0.304,-0.3467,-0.3723,-0.4041,-0.4457,-0.4636,-0.4832,-0.5042,-0.5404,-0.5749,-0.6052,-0.6617,-0.7142,-0.7656,-0.8349,-0.9197,-1.019,-1.1392,-1.2375,-1.3183,-1.3928,-1.4238,-1.4216,-1.3965,-1.3762,-1.3649,-1.3954,-1.3854,-1.3628,-1.3976,-1.3718,-1.3218,-1.2774,-1.2393,-1.2051,-1.1502,-1.1074,0.0,0.0,0.0,0.0,0.0,0.0,0.0,0.0,-1.0134,-1.0438,-1.0588,-1.0779,-1.0928,-1.0945,-1.1047,-1.1192,-1.1372,-1.1223,-1.1111,-1.1111,-1.126,-1.1595,-1.215,-1.3032,-1.376,-1.4245,-1.474,-1.5166,-1.5535,-1.622,-1.6708,-1.6983,-1.7632,-1.8,-1.8,-1.8031,-1.808,-1.808,-1.8362,-1.8723,-1.9121,-1.9893,-2.075,-2.1655,-2.259,-2.3224,-2.3666,-2.394,-2.3994,-2.3867,-2.343,-2.2719,-2.1894,-2.1894,-2.1768,-2.1562,-2.1305,-2.119,-2.1265,-1.1181,-1.0968,-1.0789,-1.062,-1.0498,-1.0237,-0.9762,-0.9182,-0.8501,-0.7748,-0.6773,-0.576,-0.4786,-0.3839,-0.2888,-0.1882,0.0,0.0,-0.217,-0.2523,-0.2832,-0.3053,-0.3429,-0.374,-0.3968,-0.428,-0.4581,-0.4838,-0.5065,-0.539,-0.5835,-0.626,-0.6783,-0.7388,-0.8405,-0.9202,-0.9868,-1.1547,-1.2475,-1.292,-1.3654,-1.4126,-1.433,-1.3954,-1.3875,-1.3944,-1.4001,-1.3951,-1.385,-1.3715,-1.3314,-1.2774,-1.2181,-1.1794,-1.1477,-1.0947,-1.0598,-1.0265,-0.9803,-0.9461,-0.9175,-0.9035,-0.9135,-0.9475,0.0,-1.0047,-0.9806,-1.0446,-1.0976,-1.1273,-1.1114,-1.1377,-1.1557,-1.1403,-1.1223,-1.1111,-1.1111,-1.126,-1.1558,-1.1966,-1.2445,-1.3032,-1.3796,-1.4194,-1.476,-1.572,-1.6296,-1.6818,-1.7389,-1.7809,-1.8,-1.8,-1.8233,-1.8362,-1.8362,-1.8763,-1.9121,-1.9527,-2.0216,-2.1059,-2.2063,-2.2703,-2.3335,-2.3838,-2.3611,-2.3235,-2.2846,-2.2788,-2.2432,-2.1894,-2.1894,-2.1344,-2.063,-2.1052,-2.119,-2.1265,-1.0979,-1.0825,-1.0681,-1.0511,-1.0399,-1.0211,-0.9815,-0.9316,-0.8709,-0.7964,-0.7032,-0.6052,-0.5042,-0.357,-0.2349,-0.1595,-0.1425,-0.146,-0.1657,-0.1922,-0.2183,-0.2462,-0.2755,-0.3057,-0.3375,-0.3707,-0.4104,-0.4576,-0.4812,-0.5227,-0.5813,-0.6253,-0.6781,-0.7397,-0.8243,-0.9149,-1.0124,-1.1251,-1.23,-1.3241,-1.3667,-1.4042,-1.4285,-1.3857,-1.3681,-1.3719,-1.3801,-1.3586,0.0,0.0,-1.2541,-1.2122,-1.1152,-1.099,-1.1007,-1.0266,-1.005,-0.9855,-0.9197,-0.9098,-0.9119,-0.8786,-0.9041,-0.9485,-0.9867,-0.956,-0.9352,-0.9856,-1.0437,-1.0932,-1.1123,-1.1346,-1.1479,-1.157,-1.1169,-1.0936,-1.1087,-1.1052,-1.1162,-1.1613,-1.1781,-1.2298,-1.3331,-1.3775,-1.4307,-1.5037,-1.5626,-1.6196,-1.6761,-1.7381,-1.7746,-1.7873,-1.8209,-1.8442,-1.8571,-1.8843,-1.9201,-1.9606,-2.0294,-2.1146,-2.2101,-2.274,-2.3216,-2.3587,-2.3178,-2.2708,-2.2237,-2.2237,-2.1939,-2.1479,-2.1479,-2.1043,-2.0435,-2.0641,-2.0722,-2.0753,-1.0789,-1.0668,-1.0572,-1.0424,-1.0337,-1.0199,-0.988,-0.9436,-0.8899,-0.8202,-0.7292,-0.6221,-0.4913,-0.3281,-0.2046,-0.1417,-0.1089,-0.0927,-0.1003,-0.1089,-0.0891,-0.0271,-0.0467,-0.0331,0.0212,-0.0072,-0.0471,-0.0981,-0.2175,-0.3097,-0.3762,-0.5174,-0.6238,-0.6992,-0.7828,-0.8913,-1.0137,-1.099,-1.2073,-1.3217,-1.3402,-1.3674,-1.3921,-1.343,-1.3195,-1.3163,-1.334,-1.3019,0.0,0.0,-1.1581,-1.1132,-1.0124,-1.0131,-1.0339,-0.9648,-0.9448,-0.9328,-0.8679,-0.8747,-0.8886,-0.8439,-0.8755,-0.9201,-0.9121,-0.8823,-0.8694,-0.9128,-0.9774,-1.0363,-1.0795,-1.0959,-1.1167,-1.1474,-1.1002,-1.0695,-1.1063,-1.0888,-1.0852,-1.1341,-1.1409,-1.1781,-1.2709,-1.3236,-1.3819,-1.4425,-1.5105,-1.572,-1.6235,-1.7055,-1.7592,-1.7796,-1.825,-1.8563,-1.8772,-1.8962,-1.9271,-1.9676,-2.0294,-2.1146,-2.2101,-2.2748,-2.3019,-2.2972,-2.2639,-2.218,-2.172,-2.172,-2.1502,-2.119,-2.119,-2.0799,-2.0217,-2.0217,-2.0297,-2.0442,-1.0621,-1.0498,-1.0412,-1.0399,-1.0337,-1.0211,-0.9944,-0.9554,-0.9071,-0.8467,-0.7569,-0.6215,-0.416,-0.3076,-0.2177,-0.1373,-0.0586,-0.0171,-0.0223,-0.0112,0.1277,0.4274,0.4135,0.5359,0.8288,0.8148,0.7895,0.7627,0.4101,0.206,0.1391,-0.2398,-0.4774,-0.5903,-0.7166,-0.84,-0.9609,-1.0934,-1.1866,-1.2457,-1.2593,-1.2851,-1.3067,-1.2541,-1.2289,-1.2265,-1.2536,0.0,0.0,-1.1193,-1.0471,-0.9691,-0.926,-0.928,-0.94,-0.9096,-0.8839,-0.8573,-0.8295,-0.8369,-0.8422,-0.7949,-0.8192,-0.8441,-0.8129,-0.7785,-0.7742,-0.8382,-0.9046,-0.9628,-0.9962,-1.026,-1.0575,-1.0975,-1.062,-1.0485,-1.1039,-1.0888,-1.0852,-1.1341,-1.1409,-1.1484,-1.1706,-1.2452,-1.3258,-1.4057,-1.4995,-1.5692,-1.6077,-1.6988,-1.7592,-1.7796,-1.8378,-1.8772,-1.9002,-1.9183,-1.9499,-1.9902,-2.0372,-2.1146,-2.2128,-2.2775,-2.2673,-2.194,-2.1929,-2.1663,-2.1213,-2.1213,-2.1213,-2.119,-2.119,-2.0592,-1.9711,-1.9711,-2.001,-2.0442,-1.0349,-1.0299,-1.0249,-1.0211,-1.0173,-1.0122,-0.9983,-0.9698,-0.9274,-0.8612,-0.7372,0.0,0.0,0.0,0.0,0.0,-0.0279,0.0462,0.0847,0.2603,0.4143,0.5281,0.6692,0.7824,0.8617,0.8486,0.8182,0.7732,0.7091,0.6537,0.6061,0.5285,0.3271,0.0264,-0.0795,-0.3367,-0.7001,-0.8249,-0.9655,-1.1084,-1.1223,-1.171,-1.228,-1.1572,-1.1169,-1.0973,0.0,0.0,0.0,-0.9833,-0.9377,-0.8997,-0.8414,-0.8643,-0.9108,-0.9027,-0.8744,-0.8421,-0.8248,-0.8214,-0.8178,-0.7873,-0.8142,-0.8198,-0.7052,-0.7161,-0.7592,-0.7891,-0.842,-0.8991,-0.9559,-0.9698,-0.9966,-1.0724,-1.0472,-1.0378,-1.1002,-1.0888,-1.0816,-1.1156,-1.1186,-1.1298,-1.1484,-1.2114,-1.2783,-1.3448,-1.4237,-1.5065,-1.5868,-1.6787,-1.7517,-1.7972,-1.8597,-1.9002,-1.9192,-1.9262,-1.942,-1.9715,-2.0541,-2.1176,-2.1589,-2.1976,-2.2059,-2.186,-2.1183,-2.102,-2.1167,-2.0833,-2.0891,-2.1155,-2.0904,-2.0403,-1.9807,-1.9518,-1.9523,-1.9721,-1.0161,-1.0341,-1.0469,-1.0418,-1.0392,0.0,0.0,0.0,0.0,0.0,0.0,0.0,0.0,0.0,0.0,0.0,0.0,0.116,0.1914,0.4471,0.6547,0.7861,0.9874,1.1428,1.2431,1.2226,1.2024,1.1853,1.1163,1.0718,1.0469,0.9786,0.7986,0.5303,0.4674,0.1633,-0.3107,-0.4284,-0.6502,-0.9216,-0.9625,-1.0203,-1.0786,-1.011,-0.9716,0.0,0.0,0.0,0.0,-0.8738,-0.8507,-0.8252,-0.7942,-0.8279,-0.8794,-0.8834,-0.8606,-0.8289,-0.8135,-0.8005,-0.7835,-0.7603,-0.7894,-0.7917,-0.666,-0.6918,-0.7461,-0.7565,-0.7889,-0.8278,-0.8766,-0.8893,-0.9187,-1.0107,-1.0014,-1.0125,-1.0879,-1.0809,-1.0816,-1.1081,-1.1196,-1.13,-1.1413,-1.1954,-1.2457,-1.2951,-1.3799,-1.4699,-1.552,-1.6673,-1.7564,-1.808,-1.8542,-1.8864,-1.9091,-1.8953,-1.9034,-1.94,-2.0272,-2.0771,-2.0941,-2.1341,-2.1404,-2.1268,-2.0668,-2.0595,-2.0902,-2.0549,-2.071,-2.1187,-2.0977,-2.061,-2.014,-1.972,-1.9589,-1.9608,-1.011,-1.0584,-1.0981,0.0,0.0,0.0,0.0,0.0,0.0,0.0,0.0,0.0,0.0,0.0,0.0,0.0,0.0,0.0,0.2932,0.5448,0.0,1.1751,1.3473,1.5915,1.9233,1.8896,1.8905,1.9335,1.6069,1.4509,1.4509,1.1403,0.9663,0.9123,0.9094,0.6365,0.1712,0.0575,-0.2565,-0.688,-0.7769,-0.8335,-0.862,-0.8146,0.0,0.0,0.0,0.0,-0.6996,-0.7911,-0.7856,-0.7452,-0.7782,-0.8132,-0.8418,-0.8554,-0.8408,-0.8196,-0.8002,-0.7735,-0.7448,-0.7182,-0.7441,-0.758,-0.6879,-0.7026,-0.7317,-0.7363,-0.7442,-0.7526,-0.7666,-0.7824,-0.8261,-0.9136,-0.9326,-0.9702,-1.067,-1.0754,-1.0797,-1.1081,-1.1309,-1.1471,-1.1471,-1.189,-1.2252,-1.253,-1.3621,-1.4523,-1.5173,-1.6648,-1.7657,-1.8062,-1.8264,-1.8466,-1.8678,-1.8274,-1.8369,-1.8939,-1.9528,-1.9975,-2.0241,-2.0773,-2.0695,-2.0177,-2.0274,-2.0366,-2.0412,-2.0389,-2.0718,-2.1221,-2.1333,-2.1094,-2.0659,-2.0247,-2.0076,-2.0076,0.0,0.0,0.0,0.0,0.0,0.0,0.0,0.0,0.0,0.0,0.0,0.0,0.0,0.0,0.0,0.0,0.0,0.0,0.3067,0.6334,0.0,0.0,0.0,1.6073,1.7952,1.7445,0.0,0.0,0.0,1.6841,1.7006,1.726,1.6041,1.3657,1.4048,1.0545,0.4275,0.3085,0.0046,-0.4047,0.0,-0.6147,-0.6821,0.0,0.0,0.0,0.0,0.0,-0.6323,-0.6918,-0.7263,-0.7511,-0.7697,-0.8088,-0.8476,-0.8521,-0.8573,-0.8646,-0.8586,-0.8197,-0.7748,-0.7476,-0.7329,-0.7255,-0.7169,-0.7214,-0.7279,-0.725,-0.7255,-0.7297,-0.7335,-0.7368,-0.7769,-0.8892,-0.9093,-0.9485,-1.0619,-1.0797,-1.0853,-1.1068,-1.1178,-1.122,-1.122,-1.1318,-1.152,-1.1905,-1.306,-1.4214,-1.5233,-1.6192,-1.6989,-1.7616,-1.7974,-1.8199,-1.8237,-1.8136,-1.8082,-1.8103,-1.8666,-1.9029,-1.9207,-1.9468,-1.9742,-1.9955,-1.9383,-1.9693,-2.0602,-2.019,-2.0633,-2.1557,-2.1282,-2.1108,-2.0913,-2.0163,-1.9873,-1.9873,0.0,0.0,0.0,0.0,0.0,0.0,0.0,0.0,0.0,0.0,0.0,0.0,0.0,0.0,0.0,0.0,0.0,0.0,0.0,0.5833,0.0,0.0,0.0,1.5113,1.6713,1.6622,0.0,0.0,0.0,0.0,0.0,1.8644,1.8278,1.6678,1.6847,1.358,0.7783,0.6068,0.0,0.0,0.0,0.0,0.0,0.0,0.0,0.0,0.0,-0.5238,-0.5683,-0.6446,-0.7085,-0.7622,-0.7737,-0.8103,-0.8467,-0.8586,-0.8699,-0.8811,-0.8811,-0.8353,-0.7809,-0.7429,-0.7208,-0.7139,-0.724,-0.728,-0.727,-0.7173,-0.7099,-0.7007,-0.6876,-0.6908,-0.7263,-0.8238,-0.8659,-0.9243,-1.0387,-1.07,-1.085,-1.0962,-1.1145,-1.1254,-1.1141,-1.1324,-1.1621,-1.205,-1.2878,-1.3851,-1.495,-1.5938,-1.6808,-1.7475,-1.7723,-1.7761,-1.7587,-1.7551,-1.7548,-1.753,-1.7942,-1.8169,-1.8304,-1.8678,-1.8939,-1.9033,-1.8802,-1.9338,-2.0337,-2.0017,-2.0607,-2.1675,-2.1523,-2.1466,-2.1336,-2.0481,-2.0141,-2.0117,0.0,0.0,0.0,0.0,0.0,0.0,0.0,0.0,0.0,-0.9092,-0.8739,-0.8204,-0.7445,-0.6222,0.0,0.0,0.0,0.0,0.0,0.0,0.0,0.0,1.0565,1.2966,1.4929,1.5421,1.6124,1.7106,0.0,0.0,0.0,0.0,0.0,0.0,0.0,0.0,0.0,0.0,0.0,0.0,0.0,0.0,0.0,0.0,0.0,0.0,-0.4215,-0.4512,-0.5069,-0.6137,-0.7009,-0.7624,-0.7705,-0.8018,-0.8385,-0.8624,-0.8631,-0.8579,-0.8652,-0.8307,-0.7786,-0.7271,-0.709,-0.7079,-0.7221,-0.7237,-0.721,-0.7144,-0.6952,-0.6749,-0.6416,-0.6457,-0.6733,-0.7443,-0.811,-0.8911,-0.9959,-1.0443,-1.07,-1.0738,-1.1138,-1.1287,-1.1132,-1.1482,-1.1936,-1.2378,-1.2762,-1.3464,-1.4523,-1.5742,-1.6718,-1.7399,-1.7424,-1.7257,-1.6908,-1.6908,-1.7003,-1.7166,-1.7358,-1.748,-1.754,-1.8127,-1.8236,-1.7984,-1.8384,-1.9046,-1.9837,-1.9855,-2.0515,-2.1561,-2.1661,-2.1723,-2.1635,-2.0804,-2.0502,-2.043,0.0,0.0,0.0,0.0,0.0,0.0,0.0,0.0,0.0,0.0,0.0,0.0,0.0,0.0,0.0,0.0,0.0,0.0,0.0,0.0,0.0,0.5721,0.6919,0.8516,1.0627,1.0965,1.1374,1.1907,1.2016,0.0,0.0,0.0,0.0,0.0,0.0,0.0,0.0,0.0,0.0,0.0,0.0,0.0,0.0,0.0,0.0,0.0,-0.4118,-0.4268,-0.4467,-0.5274,-0.6296,-0.7182,-0.696,-0.7409,-0.7988,-0.8048,-0.7747,-0.7499,-0.7926,-0.7967,-0.7821,-0.7514,-0.7098,-0.6903,-0.7343,-0.7151,-0.6955,-0.7141,-0.6822,-0.6449,-0.628,-0.6086,-0.6252,-0.7199,-0.7571,-0.8171,-0.9513,-0.9922,-1.018,-1.0519,-1.0634,-1.0663,-1.0625,-1.0848,-1.1099,-1.1326,-1.2032,-1.3038,-1.4426,-1.5118,-1.5932,-1.6979,-1.7011,-1.6972,-1.6908,-1.6908,-1.6908,-1.6934,-1.7176,-1.7224,-1.718,-1.7292,-1.7492,-1.777,-1.7845,-1.8491,-1.9512,-1.9613,-2.0094,-2.0799,-2.0828,-2.0846,-2.0737,-2.0153,-1.9953,-1.9868,0.0,0.0,0.0,0.0,0.0,0.0,0.0,0.0,0.0,0.0,0.0,0.0,0.0,0.0,0.0,0.0,0.0,0.0,0.0,0.0,0.0,0.0,0.0,0.5415,0.7319,0.8036,0.8545,0.888,0.0,0.8987,0.928,0.8823,0.9096,0.9971,0.895,0.7361,0.5338,0.0,0.0,0.0,-0.1718,-0.2455,0.0,0.0,0.0,0.0,0.0,-0.3037,-0.3256,-0.3925,-0.4736,-0.5544,-0.5859,-0.6245,-0.6618,-0.6938,-0.6825,-0.6682,-0.695,-0.7243,-0.7439,-0.7188,-0.7036,-0.704,-0.7332,-0.7169,-0.6942,-0.6945,-0.6646,-0.6284,-0.5855,-0.5752,-0.5908,-0.6631,-0.7025,-0.7687,-0.8941,-0.9468,-0.9846,-1.0143,-1.0368,-1.0475,-1.0368,-1.0625,-1.0887,-1.1074,-1.1744,-1.2691,-1.3903,-1.5036,-1.6061,-1.6874,-1.6707,-1.6606,-1.6606,-1.6386,-1.6276,-1.6276,-1.6366,-1.6318,-1.6182,-1.6537,-1.6859,-1.7144,-1.7523,-1.8354,-1.9411,-1.9527,-2.0005,-2.0586,-2.061,-2.061,-2.0526,-2.0013,-1.9808,-1.9724,0.0,0.0,0.0,0.0,0.0,0.0,0.0,0.0,-0.9754,-0.9359,-0.9682,-0.9744,-0.9212,-0.8777,0.0,0.0,0.0,0.0,0.0,0.0,0.0,0.0,0.0,0.2471,0.3897,0.0,0.0,0.5735,0.555,0.0,0.0,0.0,0.0,0.0,0.3165,0.2405,0.1672,0.0642,-0.0634,0.0,0.0,-0.2525,0.0,0.0,0.0,0.0,0.0,-0.1919,-0.2132,-0.2645,-0.317,-0.3738,-0.4508,-0.4866,-0.5117,-0.5603,-0.5782,-0.5864,-0.6076,-0.6504,-0.688,-0.6769,-0.6912,-0.7094,-0.7175,-0.7064,-0.6899,-0.667,-0.6383,-0.6024,-0.5495,-0.5382,-0.5494,-0.5915,-0.6364,-0.7049,-0.8176,-0.8856,-0.9349,-0.9614,-1.003,-1.0255,-1.0105,-1.0443,-1.0738,-1.0962,-1.1612,-1.2517,-1.3673,-1.5157,-1.6192,-1.6702,-1.6352,-1.6184,-1.6184,-1.5854,-1.5689,-1.5689,-1.5689,-1.5551,-1.5318,-1.5953,-1.6365,-1.6627,-1.7396,-1.8285,-1.9222,-1.9404,-1.9781,-2.0266,-2.0261,-2.0273,-2.0213,-1.9768,-1.964,-1.9579,0.0,0.0,0.0,0.0,0.0,0.0,0.0,0.0,-0.9478,-0.9319,-0.9761,-0.9973,-0.9678,0.0,0.0,0.0,0.0,0.0,0.0,0.0,0.0,0.0,0.0,0.0,0.0,0.0,0.0,0.0668,0.0541,0.0,0.0,0.0,0.0,0.0,0.0,-0.0813,-0.1419,-0.2081,0.0,0.0,0.0,0.0,0.0,0.0,0.0,0.0,0.0,-0.1746,-0.1615,-0.1844,-0.212,-0.2426,-0.2817,-0.3483,-0.4116,-0.4174,-0.4412,-0.4841,-0.5624,-0.605,-0.6328,-0.6488,-0.6586,-0.6687,-0.6829,-0.6643,-0.6459,-0.6445,-0.5921,-0.5462,-0.5395,-0.4968,-0.4754,-0.5203,-0.5482,-0.5955,-0.6915,-0.774,-0.8389,-0.8775,-0.9311,-0.9657,-0.9657,-1.003,-1.0331,-1.0556,-1.1501,-1.2792,-1.4406,-1.5169,-1.5726,-1.608,-1.5856,-1.5744,-1.5744,-1.5707,-1.5689,-1.5689,-1.5689,-1.5551,-1.5318,-1.581,-1.6257,-1.6627,-1.7363,-1.8057,-1.8684,-1.8952,-1.9095,-1.9158,-1.9143,-1.9143,-1.9131,-1.9083,-1.9059,-1.9086,0.0,0.0,0.0,0.0,0.0,0.0,0.0,0.0,-0.9339,-0.9248,-0.9753,-0.9956,0.0,0.0,0.0,0.0,0.0,0.0,0.0,0.0,0.0,0.0,0.0,0.0,0.0,0.0,-0.3106,-0.3298,-0.356,0.0,0.0,0.0,0.0,0.0,0.0,-0.4652,-0.4662,-0.4297,0.0,0.0,0.0,0.0,0.0,0.0,0.0,0.0,0.0,0.0,-0.1397,-0.1522,-0.1767,-0.2068,-0.2261,-0.2621,-0.3037,-0.3368,-0.3815,-0.4357,-0.5019,-0.5589,-0.6059,-0.6172,-0.6468,-0.6684,-0.6533,-0.6452,-0.6298,-0.5968,-0.5554,-0.5123,-0.4797,-0.4436,-0.4322,-0.4651,-0.4871,-0.5306,-0.6175,-0.6982,-0.7663,-0.8102,-0.8778,-0.9232,-0.9413,-0.9771,-1.0194,-1.0595,-1.1311,-1.2165,-1.3174,-1.4175,-1.4956,-1.551,-1.5318,-1.5268,-1.5331,-1.5102,-1.4983,-1.4983,-1.4983,-1.4931,-1.4835,-1.5316,-1.5801,-1.6343,-1.7067,-1.7826,-1.8491,-1.8759,-1.8919,-1.8987,-1.8987,-1.8987,-1.8987,-1.8987,-1.8987,-1.8987,0.0,0.0,0.0,0.0,0.0,0.0,0.0,0.0,-0.9128,-0.9016,0.0,0.0,0.0,0.0,0.0,0.0,0.0,0.0,0.0,0.0,0.0,0.0,0.0,0.0,0.0,0.0,-0.5752,-0.6217,-0.6546,-0.6977,0.0,0.0,-0.8037,-0.8196,0.0,0.0,0.0,0.0,0.0,0.0,0.0,0.0,0.0,0.0,0.0,0.0,0.0,0.0,0.0,0.0,0.0,-0.1689,-0.1742,-0.1849,-0.2102,-0.2778,-0.3327,-0.3827,-0.4463,-0.5097,-0.5631,-0.5912,-0.6211,-0.6379,-0.6163,-0.6101,-0.5954,-0.5455,-0.509,-0.4728,-0.4298,-0.3997,-0.3932,-0.418,-0.4326,-0.4662,-0.536,-0.6172,-0.6882,-0.7261,-0.8143,-0.8818,-0.9113,-0.9632,-1.0081,-1.0372,-1.0877,-1.1357,-1.1755,-1.2818,-1.3826,-1.4745,-1.4724,-1.4774,-1.4866,-1.4623,-1.4515,-1.4515,-1.4515,-1.4515,-1.4506,-1.495,-1.5459,-1.6075,-1.6814,-1.7579,-1.8356,-1.8652,-1.8866,-1.8987,-1.8987,-1.8987,-1.8987,-1.8987,-1.8987,-1.8987,0.0,0.0,0.0,0.0,0.0,0.0,0.0,0.0,0.0,0.0,0.0,0.0,0.0,0.0,0.0,0.0,0.0,0.0,0.0,0.0,0.0,0.0,0.0,0.0,0.0,0.0,-0.7284,-0.7871,-0.8203,-0.8659,-0.9185,-0.9309,-0.9387,-0.9361,0.0,0.0,0.0,0.0,0.0,0.0,0.0,0.0,0.0,0.0,0.0,0.0,0.0,0.0,0.0,0.0,0.0,0.0,0.0,-0.1049,-0.1403,-0.2402,-0.2854,-0.3183,-0.3984,-0.4491,-0.4981,-0.5718,-0.575,-0.5616,-0.5598,-0.551,-0.5296,-0.4897,-0.4531,-0.4233,-0.4028,-0.373,-0.356,-0.3788,-0.3819,-0.396,-0.4353,-0.5226,-0.5897,-0.618,-0.7473,-0.8417,-0.8684,-0.9553,-0.9973,-0.9729,-1.0153,-1.0438,-1.0511,-1.1146,-1.2234,-1.376,-1.4131,-1.4306,-1.4306,-1.4426,-1.4515,-1.4515,-1.4515,-1.4515,-1.4506,-1.4862,-1.5342,-1.5931,-1.6691,-1.7418,-1.8147,-1.8625,-1.8866,-1.8987,-1.8987,-1.8987,-1.8987,-1.8987,-1.8987,-1.8987,0.0,0.0,0.0,0.0,0.0,0.0,0.0,0.0,0.0,0.0,0.0,0.0,0.0,0.0,0.0,0.0,0.0,0.0,0.0,0.0,0.0,0.0,0.0,0.0,0.0,0.0,0.0,-0.7895,-0.8135,-0.8401,-0.8659,-0.8784,-0.8942,-0.9106,-0.8811,-0.8501,0.0,0.0,0.0,0.0,0.0,0.0,-0.3983,0.0,0.0,0.0,0.0,0.0,0.0,0.0,0.0,0.0,0.0,0.0,0.0,-0.1514,-0.212,-0.2702,-0.3304,-0.3984,-0.4601,-0.4979,-0.5135,-0.5133,-0.4959,-0.4892,-0.4728,-0.4328,-0.4095,-0.3894,-0.3696,-0.3462,-0.3355,-0.3577,-0.3606,-0.3767,-0.4181,-0.4867,-0.5426,-0.5704,-0.7055,-0.8193,-0.8856,-0.9337,-0.965,-0.9712,-0.9883,-1.0116,-1.0339,-1.0863,-1.1777,-1.3098,-1.3458,-1.383,-1.4297,-1.4327,-1.4426,-1.4515,-1.4515,-1.4515,-1.4506,-1.4695,-1.5128,-1.5739,-1.6293,-1.7073,-1.7979,-1.8356,-1.8706,-1.8987,-1.8987,-1.8987,-1.8987,-1.8987,-1.8987,-1.8987,0.0,0.0,0.0,0.0,0.0,0.0,0.0,0.0,0.0,0.0,0.0,0.0,0.0,0.0,0.0,0.0,0.0,0.0,0.0,0.0,0.0,0.0,0.0,0.0,0.0,0.0,0.0,0.0,-0.7949,-0.8076,-0.8203,-0.8302,-0.8468,-0.8692,-0.8388,-0.8209,0.0,0.0,0.0,0.0,0.0,0.0,-0.458,0.0,0.0,0.0,0.0,0.0,0.0,0.0,0.0,0.0,0.0,0.0,0.0,0.0,-0.1293,-0.2048,-0.2747,-0.354,-0.4219,-0.4331,-0.4464,-0.4504,-0.4396,-0.4339,-0.4192,-0.3794,-0.3627,-0.3491,-0.3259,-0.3119,-0.3082,-0.3256,-0.3407,-0.3593,-0.3911,-0.4552,-0.5198,-0.5885,-0.6962,-0.805,-0.8922,-0.9238,-0.9497,-0.9671,-0.9678,-0.9804,-1.0085,-1.0523,-1.117,-1.2089,-1.2803,-1.342,-1.392,-1.4178,-1.4327,-1.4426,-1.4485,-1.4515,-1.4515,-1.4586,-1.4931,-1.5488,-1.6007,-1.6747,0.0,-1.8193,-1.861,-1.8919,-1.8999,-1.8987,-1.8987,-1.8987,-1.8987,-1.8987,0.0,0.0,0.0,0.0,0.0,0.0,0.0,0.0,0.0,0.0,0.0,0.0,0.0,0.0,0.0,0.0,0.0,0.0,0.0,0.0,0.0,0.0,0.0,0.0,0.0,0.0,0.0,-0.7696,-0.7696,-0.775,-0.7871,0.0,-0.799,-0.8141,-0.7836,-0.7762,0.0,0.0,0.0,0.0,-0.5245,-0.5283,0.0,0.0,0.0,0.0,0.0,0.0,0.0,0.0,0.0,0.0,0.0,0.0,0.0,0.0,0.0,0.0,0.0,-0.3186,-0.3737,-0.3746,-0.3739,-0.3766,-0.3903,-0.3825,0.0,-0.3226,-0.3159,-0.306,-0.276,-0.2751,-0.2827,-0.2907,-0.3226,-0.3512,-0.3608,-0.4227,-0.5154,-0.6441,-0.7079,-0.7817,-0.8827,-0.9192,-0.9421,-0.9649,-0.9567,-0.958,-0.9804,-1.0085,-1.0491,-1.0958,-1.2189,-1.2992,-1.3268,-1.3929,-1.4267,-1.4297,-1.4455,-1.4515,-1.4515,-1.4515,-1.4743,-1.5244,-1.5797,-1.6513,-1.7245,-1.803,-1.853,-1.8798,-1.8946,-1.8987,-1.8987,-1.8987,-1.8987,-1.8987,0.0,0.0,0.0,0.0,0.0,0.0,0.0,0.0,0.0,0.0,0.0,0.0,0.0,0.0,0.0,0.0,0.0,0.0,0.0,0.0,0.0,0.0,0.0,0.0,0.0,0.0,0.0,-0.7542,-0.7542,-0.7568,-0.7595,-0.7595,0.0,0.0,-0.7622,0.0,0.0,0.0,0.0,0.0,-0.4763,-0.4539,0.0,0.0,0.0,0.0,-0.2495,-0.2332,0.0,0.0,0.0,0.0,0.0,0.0,0.0,0.0,-0.0936,-0.2013,-0.2251,0.0,-0.2998,-0.3086,-0.3158,-0.3197,0.0,-0.309,-0.2921,-0.2822,-0.282,-0.2806,-0.2797,-0.2787,-0.2843,-0.294,-0.3068,-0.3235,-0.3639,-0.4101,-0.4741,-0.5687,-0.6218,-0.6885,-0.7915,-0.8483,-0.8962,-0.9429,-0.939,-0.9472,-0.9772,-0.9958,-1.0269,-1.0681,-1.125,-1.2047,-1.307,-1.364,-1.4049,-1.4297,-1.4455,-1.4515,-1.4515,-1.4515,-1.4743,-1.5215,-1.5575,-1.6275,-1.7217,-1.7673,-1.822,-1.8798,-1.8825,-1.8919,-1.8987,-1.8987,-1.8987,-1.8987,0.0,0.0,0.0,0.0,0.0,0.0,0.0,0.0,0.0,0.0,0.0,0.0,0.0,0.0,0.0,0.0,0.0,0.0,0.0,0.0,0.0,0.0,0.0,0.0,0.0,0.0,0.0,0.0,0.0,-0.7252,0.0,0.0,0.0,0.0,-0.7166,0.0,0.0,0.0,0.0,0.0,-0.4449,0.0,0.0,0.0,0.0,0.0,-0.2691,-0.258,0.0,-0.2273,-0.2252,-0.2243,0.0,0.0,0.0,0.0,-0.1344,-0.1715,-0.1884,-0.2183,-0.2517,-0.2686,-0.2787,-0.2855,-0.2855,-0.2787,-0.2653,-0.2487,-0.2487,-0.2475,-0.244,-0.2441,-0.253,-0.2706,-0.2892,-0.3173,-0.3704,-0.4053,-0.4548,-0.532,-0.5791,-0.645,-0.7525,-0.8136,-0.8697,-0.9209,-0.9284,-0.9402,-0.9644,-0.9775,-0.9925,-1.0143,-1.0548,-1.1271,-1.2312,-1.2819,-1.3209,-1.3507,-1.3746,-1.399,-1.4222,-1.4222,-1.4499,-1.499,-1.542,-1.6046,-1.6832,-1.7451,-1.8068,-1.8637,-1.8744,-1.8866,-1.8987,-1.8987,-1.8987,-1.8987,0.0,0.0,0.0,0.0,0.0,0.0,0.0,0.0,0.0,0.0,0.0,0.0,0.0,0.0,0.0,0.0,0.0,0.0,0.0,0.0,0.0,0.0,0.0,0.0,0.0,0.0,0.0,0.0,0.0,0.0,0.0,0.0,-0.7031,0.0,0.0,0.0,0.0,0.0,0.0,-0.4301,-0.417,0.0,0.0,0.0,0.0,0.0,0.0,0.0,0.0,-0.2691,-0.2636,-0.253,-0.2282,0.0,0.0,0.0,0.0,0.0,-0.1446,-0.1781,-0.2115,-0.2316,-0.2452,-0.2519,-0.2519,-0.2519,-0.2452,-0.2153,-0.212,-0.2142,-0.2034,-0.2084,-0.221,-0.2385,-0.2765,-0.3207,-0.372,-0.4012,-0.4383,-0.4999,-0.5482,-0.6146,-0.7155,-0.7753,-0.8334,-0.8947,-0.9137,-0.9294,-0.9424,-0.955,-0.9584,-0.954,-0.9993,-1.0588,-1.1269,-1.187,-1.2306,-1.261,-1.2931,-1.3359,-1.38,-1.3883,-1.4152,-1.4652,-1.5274,0.0,-1.6368,-1.7245,-1.7893,-1.8422,-1.8664,-1.8866,-1.8987,-1.8987,-1.8987,-1.9013,0.0,0.0,0.0,0.0,0.0,0.0,0.0,0.0,0.0,0.0,0.0,0.0,0.0,0.0,0.0,0.0,0.0,0.0,0.0,0.0,0.0,0.0,0.0,0.0,0.0,0.0,0.0,0.0,0.0,-0.6729,-0.6756,-0.6756,-0.6674,-0.65,0.0,0.0,0.0,0.0,-0.4644,-0.424,-0.3605,0.0,0.0,0.0,0.0,0.0,0.0,0.0,0.0,-0.2691,-0.237,-0.1971,-0.2157,0.0,0.0,0.0,0.0,0.0,-0.1176,-0.1344,-0.1546,-0.1714,-0.1747,-0.1782,-0.1782,-0.1782,-0.1748,-0.1715,-0.1817,-0.1982,-0.2084,-0.2183,-0.2334,-0.2478,-0.2913,-0.3266,-0.3245,-0.3652,-0.3997,-0.4087,-0.4634,-0.5251,-0.599,-0.6702,-0.7527,-0.8527,-0.8781,-0.8963,-0.9142,-0.9438,-0.9489,-0.9271,-0.9446,-0.9792,-1.0306,-1.1451,-1.2223,-1.261,-1.2931,-1.3214,-1.3396,-1.3736,-1.4005,-1.4222,0.0,-1.5652,-1.634,-1.6888,-1.7634,-1.8422,-1.8572,-1.8774,-1.8987,-1.8987,-1.8987,-1.904,0.0,0.0,0.0,0.0,0.0,0.0,0.0,0.0,0.0,0.0,0.0,0.0,0.0,0.0,0.0,0.0,0.0,0.0,0.0,0.0,0.0,0.0,0.0,0.0,0.0,0.0,0.0,0.0,0.0,-0.637,-0.6365,-0.6444,-0.6332,-0.6073,0.0,-0.5636,-0.5278,0.0,-0.4363,-0.4271,0.0,0.0,0.0,0.0,0.0,0.0,0.0,0.0,0.0,0.0,-0.2018,-0.1854,-0.2105,0.0,0.0,0.0,0.0,0.0,-0.0875,-0.0909,-0.0942,-0.0976,-0.1312,-0.1614,-0.1614,-0.1614,-0.1587,-0.1509,-0.1651,-0.1819,-0.1918,-0.2123,-0.2299,-0.2457,-0.289,-0.3163,-0.3051,-0.3455,-0.378,-0.383,-0.4291,-0.4845,-0.5464,-0.6264,-0.714,-0.8155,-0.8451,-0.874,-0.907,-0.9127,-0.9112,-0.8972,-0.9118,-0.9368,-0.9708,-1.0585,-1.1305,-1.1895,-1.2193,-1.2562,-1.2983,-1.3167,-1.3405,-1.37,0.0,-1.522,-1.5813,-1.6652,-1.7496,-1.8259,-1.8518,-1.8747,-1.8987,-1.8987,-1.9052,-1.9158,0.0,0.0,0.0,0.0,0.0,0.0,0.0,0.0,0.0,0.0,0.0,0.0,0.0,0.0,0.0,0.0,0.0,0.0,0.0,0.0,0.0,0.0,0.0,0.0,0.0,0.0,-0.5912,-0.5967,-0.592,-0.5915,-0.5906,-0.6108,-0.5995,-0.5639,-0.553,-0.5277,-0.4855,-0.4332,-0.4296,-0.4547,0.0,0.0,0.0,0.0,0.0,0.0,0.0,0.0,0.0,0.0,0.0,0.0,0.0,0.0,0.0,-0.1076,-0.0672,-0.0505,-0.0607,-0.0573,-0.0506,-0.0506,-0.0909,-0.1346,-0.1413,-0.142,-0.1401,-0.1361,-0.1479,-0.1651,-0.1767,-0.2055,-0.2344,-0.2543,-0.2851,-0.3093,-0.3073,-0.3349,-0.36,-0.3689,-0.4035,-0.4523,-0.5096,-0.5931,-0.6806,-0.7728,-0.8133,-0.8471,-0.883,-0.8816,-0.8777,-0.8714,-0.8864,-0.9087,-0.9361,-0.9855,-1.048,-1.1217,-1.1553,-1.198,-1.2525,-1.2652,-1.2873,-1.3194,-1.4014,-1.4687,-1.5295,-1.6328,-1.7274,-1.8084,-1.8452,-1.8747,-1.8987,-1.8987,-1.9105,-1.9275,0.0,0.0,0.0,0.0,0.0,0.0,0.0,0.0,0.0,0.0,0.0,0.0,0.0,0.0,0.0,0.0,0.0,0.0,0.0,0.0,0.0,0.0,0.0,0.0,0.0,-0.5725,-0.5536,-0.5548,-0.5412,-0.5362,-0.5366,-0.576,-0.5652,-0.5171,-0.5575,-0.5455,-0.4882,-0.4575,-0.4789,-0.5312,-0.5319,0.0,0.0,0.0,0.0,0.0,0.0,0.0,0.0,0.0,0.0,0.0,0.0,0.0,-0.1042,-0.0302,-0.0269,-0.0472,-0.0438,-0.0472,-0.0506,-0.0506,-0.0539,-0.064,-0.0809,-0.0893,-0.0978,-0.1086,-0.1287,-0.1504,-0.1772,-0.2159,-0.2545,-0.2746,-0.2887,-0.3071,-0.3257,-0.3413,-0.3475,-0.3418,-0.372,-0.4129,-0.4618,-0.5439,-0.6294,-0.7097,-0.7747,-0.8138,-0.8182,-0.8562,-0.8694,-0.8433,-0.8679,-0.8936,-0.9211,-0.9614,-1.0208,-1.0947,-1.1444,-1.1787,-1.1981,-1.2472,-1.2707,-1.2762,-1.3347,-1.4141,-1.5061,-1.5704,-1.6743,-1.7963,-1.8425,-1.8747,-1.8987,-1.8987,-1.9158,-1.942,0.0,0.0,0.0,0.0,0.0,0.0,0.0,0.0,0.0,0.0,0.0,0.0,0.0,0.0,0.0,0.0,0.0,0.0,0.0,0.0,0.0,0.0,0.0,-0.5534,-0.5674,-0.5483,-0.5366,-0.5321,-0.4969,-0.4716,-0.4556,-0.4868,0.0,-0.455,-0.4854,-0.4952,-0.4882,-0.4598,-0.5093,-0.6036,-0.6039,-0.56,0.0,0.0,0.0,0.0,0.0,0.0,0.0,0.0,-0.1984,-0.2082,-0.1336,-0.1099,-0.1008,-0.0572,-0.0438,-0.0438,-0.0371,-0.027,-0.0202,-0.0202,-0.0202,-0.027,-0.0539,-0.0646,-0.0725,-0.0927,-0.1122,-0.1403,-0.1809,-0.2082,-0.2303,-0.2532,-0.278,-0.2976,-0.311,-0.3293,-0.3453,-0.3462,-0.3685,-0.3945,-0.4259,-0.509,-0.5891,-0.6603,-0.722,-0.7715,-0.8084,-0.8376,-0.8503,-0.8401,-0.8666,-0.8883,-0.9087,-0.9484,-0.995,-1.048,-1.1217,-1.1703,-1.1902,-1.2207,-1.233,-1.2374,-1.2883,-1.3683,-1.4683,-1.546,-1.6613,-1.7952,-1.8614,-1.8907,-1.8987,-1.8987,-1.9105,-1.9302,0.0,0.0,0.0,0.0,0.0,0.0,0.0,0.0,0.0,0.0,0.0,0.0,0.0,0.0,0.0,0.0,0.0,0.0,0.0,0.0,0.0,0.0,0.0,-0.5165,-0.5247,-0.5104,-0.5049,-0.5102,-0.4541,-0.4134,-0.3859,0.0,-0.4092,-0.4024,-0.4362,-0.4609,-0.4768,-0.4582,-0.5235,-0.6415,-0.6401,-0.6117,0.0,0.0,0.0,0.0,0.0,0.0,0.0,0.0,-0.2217,-0.2087,-0.1453,-0.1176,-0.1042,-0.0774,-0.0573,-0.0371,-0.0236,-0.0101,0.0,0.0,0.0,-0.0034,-0.0202,-0.0339,-0.0483,-0.0679,-0.0978,-0.1327,-0.1755,-0.197,-0.2208,-0.2504,-0.2744,-0.2922,-0.3053,-0.319,-0.3345,-0.3383,-0.3566,-0.3761,-0.4003,-0.4781,-0.5524,-0.61,-0.6692,-0.7261,-0.7817,-0.8105,-0.8295,-0.8395,-0.8613,-0.8798,-0.8929,-0.9335,-0.9744,-1.0138,-1.0989,-1.1553,-1.1852,-1.2026,-1.2101,-1.2119,-1.2496,-1.3201,-1.4202,-1.5085,-1.6494,-1.8127,-1.8747,-1.8987,-1.8987,-1.8987,-1.9078,-1.9223,0.0,0.0,0.0,0.0,0.0,0.0,0.0,0.0,0.0,0.0,0.0,0.0,0.0,0.0,0.0,0.0,0.0,0.0,0.0,0.0,0.0,0.0,0.0,-0.4625,-0.4897,-0.4584,-0.4554,-0.4886,-0.4157,-0.3635,-0.33,-0.3362,-0.3467,-0.3619,-0.4199,-0.4473,-0.4487,-0.4483,-0.5229,-0.6367,-0.6385,-0.6394,-0.6398,0.0,0.0,0.0,0.0,0.0,0.0,0.0,-0.2774,-0.215,-0.175,-0.1379,-0.1042,-0.0773,-0.0572,-0.0337,-0.0067,0.0,0.0,0.0,0.0,0.0067,0.027,0.0,-0.0315,-0.0315,-0.0787,-0.1312,-0.1641,-0.1932,-0.226,-0.2804,-0.2848,-0.2877,-0.3171,-0.3146,-0.312,-0.3182,-0.3326,-0.3541,-0.3872,-0.457,-0.5172,-0.5562,-0.6288,-0.688,-0.7274,-0.7687,-0.8055,-0.8395,-0.8521,-0.8659,-0.8804,-0.9211,-0.9614,-1.002,-1.0753,-1.1318,-1.1703,-1.1977,-1.2101,-1.2101,-1.2101,-1.2632,-1.3561,-1.4531,-1.6281,-1.8437,-1.8839,-1.8987,-1.8987,-1.8987,-1.9078,-1.9208,0.0,0.0,0.0,0.0,0.0,0.0,0.0,0.0,0.0,0.0,0.0,0.0,0.0,0.0,0.0,0.0,0.0,0.0,0.0,0.0,0.0,0.0,0.0,0.0,0.0,0.0,-0.4382,-0.3777,-0.3643,-0.3348,0.0,-0.2896,-0.2772,-0.2547,-0.2772,-0.3107,-0.353,-0.376,-0.4335,-0.5144,-0.6046,-0.6391,-0.6362,0.0,0.0,0.0,0.0,0.0,0.0,0.0,0.0,0.0,-0.269,-0.2218,-0.1749,-0.1143,-0.074,-0.0438,-0.027,-0.0101,0.0,0.0,0.0,0.0067,0.0371,0.0169,-0.0171,-0.0454,-0.0751,-0.1093,-0.1422,-0.1653,-0.1985,-0.2515,-0.2664,-0.2829,-0.3079,-0.3107,-0.3153,-0.3307,-0.3388,-0.3509,-0.3816,-0.4277,-0.4716,-0.507,-0.5778,-0.6472,-0.7117,-0.7542,-0.7969,-0.8395,-0.8521,-0.8659,-0.8804,-0.9211,-0.9614,-1.002,-1.0753,-1.1318,-1.1703,-1.1977,-1.2101,-1.2101,-1.2101,-1.2632,-1.3641,-1.5578,-1.6905,-1.7777,-1.8658,-1.8987,-1.8987,-1.8987,-1.9025,-1.9078,0.0,0.0,0.0,0.0,0.0,0.0,0.0,0.0,0.0,0.0,0.0,-0.1094,0.0,0.0,0.0,0.0,0.0,0.0,0.0,0.0,0.0,0.0,0.0,0.0,0.0,-0.416,-0.3826,0.0,0.0,0.0,-0.234,-0.2194,-0.199,-0.1737,-0.1877,-0.2099,-0.2406,-0.274,-0.3244,-0.3847,-0.4733,-0.5299,-0.5622,0.0,0.0,0.0,0.0,0.0,0.0,0.0,0.0,0.0,-0.3359,-0.2788,-0.2253,-0.1512,-0.0975,-0.0573,-0.0371,-0.0101,0.0135,0.0135,0.0169,0.0236,0.0371,0.0303,0.0068,-0.0378,-0.0629,-0.0884,-0.1378,-0.1569,-0.1827,-0.2378,-0.2559,-0.2716,-0.2925,-0.2978,-0.3044,-0.3246,-0.3293,-0.3384,-0.3694,-0.3997,-0.4329,-0.4715,-0.534,-0.605,-0.6788,-0.7273,-0.7788,-0.8295,-0.8448,-0.8633,-0.8883,-0.9237,-0.9621,-1.0079,-1.0761,-1.1318,-1.1703,-1.1977,-1.2101,-1.2101,-1.2332,-1.2907,-1.3866,-1.5665,-1.6834,-1.7572,-1.8372,-1.8806,-1.8987,-1.8987,-1.8987,-1.9013,0.0,0.0,-0.2311,-0.1685,0.0,0.0,0.0,0.0,0.0,-0.087,-0.087,-0.0842,0.0,0.0,0.0,-0.087,0.0,0.0,0.0,0.0,0.0,0.0,0.0,0.0,0.0,0.0,0.0,0.0,0.0,-0.2115,-0.1741,-0.1403,-0.1234,-0.1206,-0.1403,-0.1401,-0.1314,-0.1623,-0.2102,-0.265,-0.2913,-0.3568,-0.4431,-0.5093,0.0,0.0,0.0,0.0,0.0,0.0,0.0,0.0,-0.3791,-0.322,-0.2619,-0.1883,-0.1277,-0.074,-0.0404,0.0,0.0303,0.0303,0.0404,0.0506,0.0371,0.0438,0.0337,-0.0202,-0.0404,-0.0705,-0.1441,-0.1571,-0.177,-0.2271,-0.2484,-0.2608,-0.2684,-0.2759,-0.2878,-0.306,-0.3102,-0.3216,-0.3555,-0.3716,-0.399,-0.4436,-0.4952,-0.5582,-0.6354,-0.6933,-0.7553,-0.8168,-0.8321,-0.8586,-0.9008,-0.929,-0.9673,-1.0205,-1.0812,-1.1326,-1.1703,-1.1977,-1.2101,-1.2126,-1.2686,-1.3332,-1.4092,-1.5085,-1.6268,-1.7499,-1.7991,-1.8494,-1.8927,-1.8975,-1.8987,-1.9025,0.0,0.0,-0.1831,-0.1355,0.0,0.0,0.0,0.0,-0.0729,-0.0729,-0.0617,-0.0505,-0.0505,-0.0533,0.0,-0.0505,-0.0543,0.0,0.0,0.0,0.0,0.0,0.0,0.0,0.0,0.0,0.0,0.0,0.0,-0.1417,-0.1319,-0.1094,-0.1066,-0.1206,-0.1234,-0.1262,-0.1233,-0.1458,-0.1744,-0.2005,-0.2289,-0.2807,-0.3513,-0.4552,-0.5133,0.0,0.0,0.0,0.0,0.0,0.0,0.0,-0.4345,-0.3754,-0.3155,-0.2319,-0.158,-0.0941,-0.0573,-0.0101,0.0303,0.0303,0.0506,0.0742,0.0708,0.0607,0.0303,-0.0337,-0.0464,-0.0684,-0.1268,-0.1438,-0.1637,-0.2012,-0.2345,-0.2559,-0.2598,-0.272,-0.2822,-0.2925,-0.3049,-0.3188,-0.3413,-0.366,-0.3935,-0.4245,-0.4708,-0.5363,-0.6209,-0.6707,-0.7365,-0.8168,-0.8321,-0.8586,-0.9008,-0.9361,-0.9777,-1.0205,-1.0913,-1.1418,-1.1703,-1.1977,-1.2101,-1.2126,-1.2686,-1.309,-1.351,-1.493,-1.5799,-1.6389,-1.7693,-1.8277,-1.8422,-1.8843,-1.8987,-1.9013,0.0,0.0,0.0,0.0,0.0,0.0,0.0,0.0,-0.0561,-0.0561,-0.0477,-0.0393,-0.0393,-0.0387,0.0,0.0,-0.0294,-0.0313,0.0,0.0,0.0,0.0,0.0,0.0,0.0,0.0,0.0,0.0,-0.1488,-0.11,-0.0898,-0.0842,-0.087,-0.0954,-0.1038,-0.1066,-0.1066,-0.1234,-0.1458,-0.1709,-0.1934,-0.2422,-0.3099,-0.4008,-0.4803,-0.5452,-0.5932,0.0,0.0,0.0,0.0,0.0,0.0,0.0,-0.3589,-0.2822,-0.1916,-0.111,-0.074,-0.0135,0.0438,0.064,0.0808,0.0909,0.0809,0.0708,0.0472,-0.0135,-0.04,-0.0659,-0.1118,-0.1397,-0.1634,-0.1863,-0.2209,-0.2441,-0.2453,-0.2613,-0.2801,-0.2974,-0.3049,-0.3216,-0.3471,-0.3608,-0.383,-0.4079,-0.455,-0.512,-0.5887,-0.6549,-0.7203,-0.7842,-0.8215,-0.856,-0.891,-0.9361,-0.9803,-1.0205,-1.0939,-1.1502,-1.1902,-1.2051,-1.2101,-1.2126,-1.2686,-1.3055,-1.3406,-1.4624,-1.5471,-1.609,-1.7062,-1.776,-1.8229,-1.8506,-1.877,-1.904,0.0,0.0,0.0,0.0,0.0,0.0,0.0,0.0,0.0,-0.0364,-0.0336,-0.0336,-0.0336,-0.0326,-0.0296,0.0,0.0,0.0,-0.0159,0.0,0.0,0.0,0.0,0.0,0.0,0.0,0.0,0.0,-0.146,-0.1009,-0.0617,-0.0617,-0.0647,-0.0707,-0.0815,-0.0872,-0.0905,-0.104,-0.1262,-0.1517,-0.1723,-0.219,-0.2873,-0.3558,-0.4446,-0.5391,-0.5848,-0.6123,-0.6247,-0.6214,0.0,0.0,0.0,0.0,-0.4059,-0.3357,-0.2385,-0.1445,-0.1008,-0.0168,0.0674,0.0975,0.1043,0.1009,0.0876,0.0809,0.0674,0.0236,-0.0168,-0.0569,-0.0969,-0.1331,-0.1612,-0.1734,-0.2099,-0.2353,-0.2322,-0.2552,-0.2792,-0.3072,-0.3114,-0.3243,-0.3556,-0.3596,-0.3722,-0.3968,-0.4384,-0.4908,-0.5567,-0.6359,-0.7009,-0.7494,-0.8055,-0.8507,-0.8804,-0.9316,-0.9777,-1.0172,-1.0964,-1.1594,-1.2076,-1.2076,-1.2101,-1.2126,-1.2686,-1.3079,-1.3433,-1.4329,-1.5176,-1.5963,-1.6419,-1.7135,-1.7953,-1.8133,-1.8482,-1.8919,0.0,0.0,0.0,0.0,0.0,0.0,0.0,0.0,0.0,0.0,-0.0112,-0.0056,-0.0056,-0.0054,-0.0053,-0.0027,-0.0026,-0.0026,0.0,0.0,0.0,0.0,0.0,0.0,0.0,0.0,0.0,-0.2169,-0.158,-0.1071,-0.0673,-0.0393,-0.0427,-0.0701,-0.071,-0.0798,-0.0906,-0.1051,-0.1122,-0.121,-0.1564,-0.203,-0.2532,-0.3203,-0.4078,-0.5012,-0.5501,-0.5984,-0.635,-0.6247,-0.6181,0.0,0.0,0.0,-0.4788,-0.3925,-0.3121,-0.2318,-0.1479,-0.0135,0.0978,0.0876,0.0843,0.0876,0.1043,0.0909,0.0776,0.0708,0.0198,-0.0357,-0.0779,-0.1208,-0.153,-0.1523,-0.1918,-0.2279,-0.2453,-0.2597,-0.2832,-0.3162,-0.3237,-0.3329,-0.3505,-0.356,-0.3722,-0.3968,-0.4162,-0.466,-0.554,-0.605,-0.6674,-0.7467,-0.7975,-0.8407,-0.8804,-0.9211,-0.9621,-1.0051,-1.1015,-1.1619,-1.1927,-1.2051,-1.2101,-1.2126,-1.2686,-1.3031,-1.3314,-1.4283,-1.4914,-1.5326,-1.623,-1.6691,-1.6931,-1.7869,-1.8253,-1.8399,0.0,0.0,0.0,0.0,0.0,0.0,0.0,0.0,0.0,0.0,0.0,0.0,0.0,0.0,0.0,0.0,0.0,0.0,0.0,0.0,0.0,0.0,0.0,0.0,0.0,0.0,0.0,-0.238,-0.1905,-0.1401,-0.0814,-0.0457,-0.0349,-0.0442,-0.0621,-0.0747,-0.0786,-0.0984,-0.1097,-0.1157,-0.1354,-0.1804,-0.2394,-0.2997,-0.3863,-0.4807,-0.5394,-0.5881,-0.628,-0.6317,-0.6247,-0.6181,-0.598,0.0,0.0,0.0,-0.3718,-0.2683,-0.1377,-0.037,0.037,0.0572,0.0707,0.0843,0.1043,0.1043,0.0942,0.0809,0.0401,-0.0033,-0.043,-0.0949,-0.1322,-0.149,-0.1834,-0.2169,-0.2473,-0.2622,-0.2837,-0.3171,-0.3285,-0.341,-0.3595,-0.3695,-0.3841,-0.3997,-0.4191,-0.458,-0.5183,-0.5828,-0.6485,-0.7144,-0.7741,-0.8221,-0.856,-0.8975,-0.9577,-1.0411,-1.115,-1.1653,-1.1902,-1.228,-1.2362,-1.2249,-1.27,-1.3055,-1.3386,-1.4292,-1.4834,-1.5176,-1.5853,-1.6297,-1.6691,-1.7484,-1.7953,-1.8303,0.0,0.0,0.0,0.0,0.0,0.0,0.0,0.0,0.0,0.0,0.0,0.0,0.0,0.0,0.0,0.0,0.0,0.0,0.0,0.0,0.0,0.0,0.0,0.0,0.0,0.0,-0.3276,-0.2603,-0.2238,-0.168,-0.0983,-0.0644,-0.0387,-0.0209,-0.0458,-0.0589,-0.0656,-0.0836,-0.0988,-0.1082,-0.1182,-0.1581,-0.2194,-0.2725,-0.3525,-0.4492,-0.515,-0.5716,-0.6148,-0.635,-0.635,-0.6247,-0.6247,-0.5954,0.0,0.0,0.0,-0.295,-0.1545,-0.0874,-0.0403,0.0168,0.0471,0.0741,0.0976,0.1076,0.1042,0.0909,0.064,0.0303,-0.0034,-0.0605,-0.1101,-0.1373,-0.1629,-0.1973,-0.2373,-0.2524,-0.2776,-0.3151,-0.3319,-0.3458,-0.3709,-0.3801,-0.3901,-0.4047,-0.4242,-0.4549,-0.5007,-0.5694,-0.6392,-0.7046,-0.766,-0.8154,-0.8557,-0.9045,-0.9824,-1.0856,-1.1395,-1.1816,-1.2158,-1.2638,-1.2793,-1.2682,-1.3018,-1.3298,-1.3583,-1.4393,-1.482,-1.504,-1.5525,-1.5976,-1.6452,-1.6991,-1.7544,-1.8073,0.0,0.0,0.0,0.0,0.0,0.0,0.0,0.0,0.0,0.0,0.0,0.0,0.0,0.0,0.0,0.0,0.0,0.0,0.0,0.0,0.0,0.0,0.0,0.0,0.0,-0.3365,-0.3365,-0.2877,-0.2406,-0.1877,-0.1264,-0.0869,-0.0524,-0.0216,-0.0216,-0.0345,-0.0515,-0.0656,-0.071,-0.0774,-0.1145,-0.1447,-0.168,-0.2222,-0.3015,-0.3925,-0.4616,-0.5315,-0.5958,-0.6284,-0.6387,-0.6383,-0.6383,-0.628,-0.6079,0.0,0.0,0.0,-0.2388,-0.1681,-0.1076,-0.0437,0.0034,0.0404,0.0742,0.0976,0.1109,0.1076,0.0909,0.0707,0.0504,-0.0235,-0.0873,-0.1074,-0.1241,-0.1543,-0.2144,-0.2345,-0.2613,-0.3145,-0.3268,-0.3437,-0.3751,-0.3758,-0.385,-0.4174,-0.4205,-0.4537,-0.5347,-0.5663,-0.6314,-0.7447,-0.7935,-0.844,-0.8959,-0.9677,-1.045,-1.1271,-1.1822,-1.2321,-1.2768,-1.3105,-1.3403,-1.3635,-1.3796,-1.3854,-1.3927,-1.4672,-1.4873,-1.48,-1.5435,-1.5705,-1.5823,-1.6428,-1.6979,-1.7532,0.0,0.0,0.0,0.0,0.0,0.0,0.0,0.0,0.0,0.0,0.0,0.0,0.0,0.0,0.0,0.0,0.0,0.0,0.0,0.0,0.0,0.0,0.0,0.0,0.0,-0.3416,-0.3474,-0.3216,-0.2824,-0.235,-0.1738,-0.1203,-0.0727,-0.034,-0.0289,-0.0296,-0.0398,-0.0657,-0.0752,-0.0785,-0.1056,-0.1258,-0.1459,-0.2043,-0.2688,-0.3424,-0.4323,-0.5057,-0.566,-0.6119,-0.6317,-0.6387,-0.6387,-0.635,-0.6218,-0.5657,-0.4858,-0.3992,-0.3092,-0.2354,-0.1715,-0.1008,-0.0437,0.0034,0.0505,0.0774,0.0942,0.1076,0.0942,0.0775,0.0707,0.0168,-0.037,-0.0672,-0.0975,-0.1379,-0.1918,-0.2154,-0.2456,-0.3025,-0.3164,-0.3344,-0.3574,-0.3705,-0.3784,-0.3811,-0.4024,-0.4329,-0.4732,-0.5415,-0.6194,-0.7037,-0.7731,-0.841,-0.9114,-0.9782,-1.0415,-1.0978,-1.1648,-1.2214,-1.2674,-1.3237,-1.3718,-1.4174,-1.4459,-1.4488,-1.4324,-1.4984,-1.517,-1.5071,-1.566,-1.5808,-1.5775,-1.6392,-1.6715,-1.7003,0.0,0.0,0.0,-0.0034,0.0,0.0,0.0,0.0,0.0,0.0,0.0,0.0,0.0,0.0,0.0,0.0,0.0,0.0,0.0,0.0,0.0,0.0,0.0,0.0,0.0,-0.3413,-0.3527,-0.3413,-0.3074,-0.2655,-0.2156,-0.1536,-0.1048,-0.065,-0.0423,-0.0267,-0.0202,-0.0506,-0.0674,-0.0708,-0.0909,-0.1076,-0.1277,-0.1715,-0.2253,-0.2857,-0.3856,-0.4658,-0.5289,-0.5885,-0.6218,-0.6387,-0.6387,-0.6387,-0.6284,-0.5723,-0.5259,-0.4755,-0.3892,-0.3224,-0.2554,-0.1746,-0.1075,-0.0504,0.0034,0.0404,0.0674,0.0808,0.0775,0.0708,0.0708,0.0371,0.0,-0.0269,-0.0605,-0.1043,-0.1614,-0.1918,-0.2287,-0.2822,-0.3025,-0.3228,-0.3464,-0.3629,-0.3699,-0.3663,-0.3886,-0.414,-0.4436,-0.5241,-0.6171,-0.7225,-0.8021,-0.8757,-0.9391,-0.9907,-1.0466,-1.1056,-1.175,-1.2422,-1.3002,-1.3582,-1.4084,-1.4515,-1.4857,-1.4859,-1.4717,-1.5294,-1.5464,-1.5408,-1.6034,-1.6103,-1.5923,-1.6429,-1.6607,-1.6727,-0.0908,-0.0505,-0.0236,-0.0034,0.0,0.0,0.0,0.0,0.0,0.0,0.0,0.0,0.0,0.0,0.0,0.0,0.0,0.0,0.0,-0.0454,0.0,0.0,0.0,0.0,0.0,-0.3388,-0.3557,-0.3413,-0.3077,-0.277,-0.2495,-0.1908,-0.1465,-0.1206,-0.0668,-0.0262,-0.0034,-0.0202,-0.0371,-0.0506,-0.0708,-0.0909,-0.1109,-0.1244,-0.1681,-0.2321,-0.3188,-0.4051,-0.4882,-0.562,-0.6123,-0.6387,-0.6387,-0.6387,-0.6317,-0.5991,-0.5752,-0.5451,0.0,0.0,0.0,-0.2684,-0.188,-0.121,-0.0672,-0.0135,0.027,0.027,0.0371,0.0472,0.0472,0.0371,0.0202,0.0,-0.0202,-0.0539,-0.1211,-0.1648,-0.2085,-0.2619,-0.2889,-0.3125,-0.3464,-0.3498,-0.3563,-0.3758,-0.3792,-0.4025,-0.4558,-0.5093,-0.6276,-0.8139,-0.8882,-0.9434,-0.9804,-1.0117,-1.0681,-1.1483,-1.2174,-1.2942,-1.3799,-1.4148,-1.4437,-1.4715,-1.4911,-1.5004,-1.5038,-1.5581,-1.5743,-1.5682,-1.6498,-1.6569,-1.6256,-1.6526,-1.6619,-1.6679,-0.0572,-0.0236,-0.0067,0.0,0.0,0.0,0.0,0.0,0.0,0.0,0.0,0.0,0.0,0.0,0.0,0.0,0.0,-0.0029,-0.0144,-0.0487,-0.0968,-0.1569,-0.2265,-0.2852,-0.3385,-0.3781,-0.3866,-0.3688,-0.3437,-0.3152,-0.2768,-0.2259,-0.1872,-0.1542,-0.0997,-0.0611,-0.037,-0.0303,-0.0371,-0.0506,-0.0708,-0.0909,-0.1109,-0.1244,-0.158,-0.2085,-0.2855,-0.3689,-0.4553,-0.5289,-0.5855,-0.628,-0.6383,-0.6387,-0.635,-0.6181,-0.5984,-0.5723,-0.5292,0.0,0.0,0.0,0.0,0.0,-0.1644,-0.1109,-0.0673,-0.0538,-0.0336,-0.0235,-0.0235,-0.0269,-0.0404,-0.074,-0.0606,-0.0606,-0.1076,-0.158,-0.2085,-0.2619,-0.2889,-0.3092,-0.3261,-0.3295,-0.3293,-0.336,-0.3496,-0.3694,-0.3992,-0.5117,-0.64,-0.7804,-0.8264,-0.8844,-0.9588,-0.9919,-1.046,-1.1216,-1.1988,-1.2728,-1.345,-1.389,-1.4309,-1.4715,-1.4745,-1.4924,-1.5206,-1.5883,-1.6043,-1.5972,-1.6818,-1.6993,-1.6808,-1.7075,-1.6931,-1.6739,-0.0404,-0.0135,0.0,0.0,0.0,0.0,0.0,0.0,0.0,0.0,0.0,0.0,0.0,0.0,0.0,0.0,-0.0062,-0.0184,-0.0331,-0.0742,-0.1285,-0.1887,-0.2535,-0.3121,-0.3682,-0.3984,-0.4097,-0.3958,-0.3797,-0.3559,-0.323,-0.2826,-0.2486,-0.2134,-0.1633,-0.1161,-0.0739,-0.0471,-0.0404,-0.0438,-0.0607,-0.0809,-0.0976,-0.1144,-0.1412,-0.1748,-0.2485,-0.3286,-0.4087,-0.499,-0.5719,-0.628,-0.6383,-0.6387,-0.6383,-0.6317,-0.6185,-0.6057,-0.5789,-0.5458,-0.5024,-0.4489,0.0,0.0,-0.2783,-0.2214,-0.1746,-0.1612,-0.1376,-0.1208,-0.1276,-0.1309,-0.141,-0.171,-0.1612,-0.1545,-0.1646,-0.1982,-0.2386,-0.2855,-0.3092,-0.3192,-0.3192,-0.3261,-0.3261,-0.3125,-0.3226,-0.346,-0.3859,-0.5014,-0.6166,-0.7256,-0.7814,-0.8431,-0.9069,-0.9556,-1.0136,-1.087,-1.1677,-1.2513,-1.3329,-1.3791,-1.4219,-1.4606,-1.4686,-1.4804,-1.5049,-1.5826,-1.6216,-1.6409,-1.7295,-1.75,-1.7362,-1.7637,-1.7375,-1.7051,0.0,-0.0135,0.0,0.0,0.0,0.0,0.0,0.0,0.0,0.0,0.0,0.0,0.0,0.0,0.0,-0.0031,-0.0218,-0.0374,-0.0559,-0.1119,-0.1691,-0.2147,-0.2838,-0.3403,-0.3838,-0.4136,-0.4294,-0.4308,-0.4136,-0.3947,-0.3717,-0.3447,-0.313,-0.2798,-0.232,-0.1768,-0.1143,-0.0706,-0.0437,-0.0303,-0.0438,-0.0607,-0.0809,-0.1009,-0.1176,-0.1412,-0.2115,-0.2852,-0.3654,-0.4788,-0.5719,-0.6387,-0.6387,-0.6387,-0.6387,-0.6387,-0.6387,-0.6383,-0.6247,-0.6083,-0.5822,-0.5322,-0.4788,0.0,-0.4023,-0.3422,-0.2921,-0.2921,-0.2616,-0.2415,-0.2582,-0.2616,-0.2714,-0.2911,-0.3045,-0.3013,-0.2582,-0.2718,-0.2987,-0.3326,-0.3529,-0.3529,-0.3326,-0.3462,-0.3395,-0.3058,-0.2989,-0.3257,-0.3892,-0.4683,-0.5576,-0.6507,-0.7358,-0.7982,-0.8393,-0.9069,-0.9773,-1.0453,-1.1365,-1.232,-1.329,-1.3791,-1.4169,-1.4506,-1.4636,-1.4686,-1.4775,-1.5526,-1.6189,-1.6835,-1.77,-1.797,-1.7904,-1.8161,-1.7928,-1.758,-0.0169,-0.0034,0.0,0.0,0.0,0.0,0.0,0.0,0.0,0.0,0.0,0.0,0.0,0.0,-0.0066,-0.0232,-0.0364,-0.059,-0.0898,-0.1559,-0.2169,-0.2648,-0.3409,-0.3919,-0.4129,-0.4559,-0.4823,-0.4925,-0.4512,-0.4193,-0.3936,-0.3572,-0.3255,-0.3025,-0.2481,-0.1965,-0.148,-0.0975,-0.0572,-0.0303,-0.0438,-0.0607,-0.0809,-0.1009,-0.1176,-0.1379,-0.2018,-0.269,-0.3491,-0.4984,-0.5918,-0.6387,-0.6387,-0.6387,-0.6387,-0.6387,-0.6387,-0.6387,-0.6383,-0.6251,-0.6083,-0.5822,-0.5458,0.0,-0.4891,-0.4522,-0.4225,-0.4225,-0.4054,-0.3885,-0.3918,-0.4015,-0.4143,-0.4345,-0.4541,-0.4342,-0.3418,-0.3551,-0.3885,-0.4292,-0.4361,-0.4292,-0.409,-0.3892,-0.3591,-0.3192,-0.2922,-0.3021,-0.3553,-0.392,-0.4553,-0.5543,-0.6174,-0.6863,-0.7684,-0.8533,-0.9338,-1.0117,-1.1264,-1.2228,-1.307,-1.37,-1.4169,-1.4515,-1.4536,-1.4616,-1.4745,-1.5264,-1.5864,-1.6492,-1.7412,-1.7972,-1.8324,-1.859,-1.8402,-1.8121,-0.0101,0.0,0.0,0.0,0.0,0.0,0.0,0.0,0.0,0.0,0.0,0.0,0.0,0.0,-0.0067,-0.027,-0.0438,-0.0669,-0.1122,-0.1821,-0.2448,-0.302,-0.3722,-0.4211,-0.4482,-0.4838,-0.5075,-0.5237,-0.4922,-0.4596,-0.4307,-0.399,-0.3697,-0.3418,-0.2896,-0.2323,-0.1715,-0.1176,-0.0706,-0.0303,-0.0371,-0.0506,-0.0674,-0.0975,-0.1176,-0.1379,-0.2052,-0.3023,-0.4154,-0.5249,-0.5951,-0.6387,-0.6387,-0.6387,-0.6387,-0.6387,-0.6387,-0.6416,-0.6515,-0.6511,-0.6445,-0.6416,-0.6218,0.0,0.0,-0.5617,-0.5352,-0.5352,-0.5282,-0.5183,-0.5183,-0.5342,-0.5474,-0.558,-0.5774,-0.5741,-0.5249,-0.5044,-0.4978,-0.5087,-0.5253,-0.5153,-0.4616,-0.4323,-0.3825,-0.2859,-0.2656,-0.2654,-0.295,-0.3387,-0.3954,-0.4619,-0.5415,-0.6207,-0.6961,-0.7917,-0.885,-0.9767,-1.0874,-1.1872,-1.2781,-1.3549,-1.4079,-1.4396,-1.4476,-1.4536,-1.4645,-1.5108,-1.5536,-1.5979,-1.7151,-1.7838,-1.8193,-1.8637,-1.8684,-1.8546,-0.0067,0.0,0.0,0.0,0.0,0.0,0.0,0.0,0.0,0.0,0.0,0.0,0.0,0.0,-0.0067,-0.027,-0.0472,-0.0775,-0.1311,-0.2041,-0.2722,-0.3382,-0.3985,-0.4481,-0.4849,-0.5066,-0.5237,-0.5395,0.0,0.0,-0.4691,-0.4431,-0.4131,-0.3825,-0.3257,-0.2622,-0.1918,-0.1344,-0.0808,-0.0337,-0.027,-0.0337,-0.0539,-0.0942,-0.121,-0.148,-0.2321,-0.3589,-0.4948,-0.5448,-0.5951,-0.6387,-0.6387,-0.6387,-0.6387,-0.6387,-0.6387,-0.6453,-0.6642,-0.6708,-0.6741,-0.6881,-0.6811,-0.6741,0.0,0.0,0.0,-0.6408,-0.6437,-0.647,-0.647,-0.6629,-0.6761,-0.6741,-0.6872,-0.7036,-0.7171,-0.6736,-0.6301,-0.6009,-0.6178,-0.6009,-0.5246,-0.4788,-0.3992,-0.2624,-0.249,-0.2455,-0.245,-0.3052,-0.3556,-0.3828,-0.4821,-0.5613,-0.6137,-0.7288,-0.8366,-0.9352,-1.0451,-1.1492,-1.2482,-1.3338,-1.3959,-1.4306,-1.4455,-1.4506,-1.4565,-1.498,-1.5254,-1.5526,-1.6814,-1.7523,-1.7881,-1.8437,-1.8691,-1.8825,-0.0034,0.0,0.0,0.0,0.0,0.0,0.0,0.0,0.0,0.0,0.0,0.0,0.0,0.0,-0.0067,-0.027,-0.0572,-0.1008,-0.1547,-0.2412,-0.3173,-0.3734,-0.4368,-0.4831,-0.5071,-0.5264,-0.5378,-0.5395,0.0,0.0,-0.502,-0.4531,-0.4197,-0.3961,-0.3291,-0.269,-0.212,-0.1412,-0.0875,-0.0438,-0.0169,-0.0236,-0.0539,-0.0942,-0.1277,-0.1714,-0.2954,-0.4087,-0.512,-0.5484,-0.5951,-0.6387,-0.6387,-0.6387,-0.6387,-0.6387,-0.6387,-0.6453,-0.6642,-0.6708,-0.6741,-0.6881,-0.6881,-0.6909,-0.7101,0.0,-0.7358,-0.7498,0.0,-0.7787,-0.7787,0.0,0.0,-0.8009,-0.8009,-0.8112,-0.8284,-0.8252,-0.7982,-0.7358,-0.7167,-0.6905,-0.6507,-0.5183,-0.3956,-0.2989,-0.2755,-0.2653,-0.2653,-0.2921,-0.3123,-0.3293,-0.4056,-0.4719,-0.5253,-0.6593,-0.78,-0.8801,-1.0167,-1.1361,-1.2366,-1.3169,-1.3821,-1.4306,-1.4455,-1.4556,-1.4686,-1.4941,-1.5167,-1.5497,-1.6361,-1.705,-1.7579,-1.7881,-1.8356,-1.8798,-0.0034,0.0,0.0,0.0,0.0,0.0,0.0,0.0,0.0,0.0,0.0,0.0,0.0,0.0,-0.0069,-0.0276,-0.0419,-0.077,-0.1379,-0.2133,-0.292,-0.3762,-0.4364,-0.4866,-0.5264,-0.5361,-0.5395,-0.5395,-0.5395,0.0,0.0,0.0,-0.4431,-0.4164,-0.3558,-0.2921,-0.2284,-0.1546,-0.0942,-0.0472,-0.0135,-0.0169,-0.0438,-0.0908,-0.168,-0.2654,-0.3489,-0.4422,-0.5326,-0.5653,-0.6053,-0.6387,-0.6387,-0.6387,-0.6387,-0.6387,-0.6482,-0.6613,-0.6778,-0.6909,-0.7036,-0.7302,-0.7466,-0.7596,-0.7749,-0.8014,-0.8306,-0.8441,0.0,0.0,0.0,0.0,0.0,0.0,-0.8753,-0.8856,-0.8958,-0.9017,-0.8823,-0.8149,-0.8019,-0.7526,-0.6441,-0.5279,-0.422,-0.3355,-0.309,-0.2889,-0.272,-0.2889,-0.2956,-0.2922,-0.3623,-0.4323,-0.4918,-0.6235,-0.7414,-0.842,-0.9729,-1.0773,-1.1562,-1.2612,-1.3359,-1.386,-1.4228,-1.4497,-1.4715,-1.4911,-1.5117,-1.5342,-1.5865,-1.6467,-1.705,-1.7584,-1.7979,-1.8317,-0.0034,0.0,0.0,0.0,0.0,0.0,0.0,0.0,0.0,0.0,0.0,0.0,0.0,0.0,-0.007,-0.021,-0.0323,-0.0651,-0.1277,-0.1862,-0.2668,-0.3736,-0.4175,-0.4728,-0.5395,-0.5395,-0.5395,-0.5395,-0.5395,-0.5326,0.0,0.0,-0.4697,-0.4364,-0.3859,-0.322,-0.245,-0.1747,-0.1111,-0.0539,-0.0202,-0.0236,-0.0505,-0.111,-0.2084,-0.3226,-0.3859,-0.4625,-0.5392,-0.5756,-0.6086,-0.635,-0.6383,-0.6387,-0.6387,-0.6387,-0.6515,-0.6642,-0.6848,-0.704,-0.7302,-0.7694,-0.7954,-0.8209,-0.8431,-0.8791,-0.9119,-0.9306,-0.9594,0.0,0.0,0.0,-0.9779,-0.953,0.0,-0.9722,-0.9748,-0.9811,-0.962,-0.8926,-0.8738,-0.8047,-0.6535,-0.5708,-0.4845,-0.3918,-0.3723,-0.3456,-0.3088,-0.319,-0.3123,-0.2787,-0.3456,-0.409,-0.4649,-0.591,-0.7064,-0.8074,-0.9262,-1.0186,-1.0912,-1.2058,-1.2864,-1.3381,-1.398,-1.4369,-1.4647,-1.4911,-1.5098,-1.5244,-1.5498,-1.5951,-1.6495,-1.7179,-1.765,-1.7991,0.0,0.0,0.0,0.0,0.0,0.0,0.0,0.0,0.0,0.0,0.0,0.0,0.0,0.0,0.0,0.0,-0.0359,-0.0838,-0.1347,-0.1917,-0.2656,-0.3665,-0.3847,-0.4395,-0.5395,-0.5395,-0.5395,-0.5395,-0.5395,-0.5395,0.0,0.0,0.0,-0.4561,-0.4161,-0.3491,-0.2653,-0.2118,-0.1446,-0.0773,-0.0438,-0.0505,-0.0874,-0.158,-0.2353,-0.3123,-0.3987,-0.4655,-0.519,-0.5723,-0.6053,0.0,0.0,-0.6387,-0.6387,-0.6387,-0.642,-0.6482,-0.6815,-0.704,-0.7335,-0.7857,-0.8236,-0.8619,-0.9139,-0.9524,-0.9875,-1.0174,-1.0434,-1.0561,-1.0561,-1.0681,-1.0737,-1.0744,-1.0744,0.0,0.0,-1.0832,-1.0516,-0.9837,-0.93,-0.849,-0.7279,-0.6658,-0.5903,-0.4848,-0.4749,-0.4519,-0.3995,-0.3961,-0.3658,-0.3023,-0.3525,-0.3956,-0.432,-0.5514,-0.6671,-0.7731,-0.8823,-0.9741,-1.0553,-1.1569,-1.2382,-1.3039,-1.3731,-1.421,-1.4529,-1.4872,-1.5098,-1.5215,-1.5362,-1.5633,-1.6,-1.6591,-1.7273,-1.7963,0.0,0.0,0.0,0.0,0.0,0.0,0.0,0.0,0.0,0.0,0.0,0.0,0.0,0.0,0.0,0.0,-0.0258,-0.0598,-0.1047,-0.1482,-0.2159,-0.3054,-0.3559,-0.4107,-0.472,-0.5173,-0.5332,-0.519,-0.5326,-0.5395,0.0,-0.5326,-0.5156,-0.4924,-0.4558,-0.3956,-0.3186,-0.2383,-0.1646,-0.0941,-0.0337,-0.0303,-0.0673,-0.1413,-0.2285,-0.3226,-0.3859,-0.4625,0.0,-0.5756,-0.602,-0.6214,-0.635,-0.6387,-0.6387,-0.6387,-0.6482,-0.6646,0.0,0.0,-0.7526,-0.8009,-0.8495,-0.8985,-0.9504,-0.9983,-1.0428,-1.0776,-1.0965,-1.109,-1.1247,-1.131,-1.1341,-1.1341,-1.1397,-1.149,0.0,-1.1677,-1.1584,-1.0975,-1.0091,-0.9134,-0.8161,-0.7386,-0.6634,-0.5903,-0.5543,-0.515,-0.4755,-0.4259,-0.3792,-0.3355,-0.3493,-0.3894,-0.4489,-0.5547,-0.6539,-0.7368,-0.8276,-0.8978,-0.947,-1.04,-1.1338,-1.2297,-1.3046,-1.3782,-1.4529,-1.4852,-1.5098,-1.5215,-1.5362,-1.5604,-1.5972,-1.6467,-1.6994,-1.7551,0.0,0.0,0.0,0.0,0.0,0.0,0.0,0.0,0.0,0.0,0.0,0.0,0.0,0.0,0.0,0.0,-0.0187,-0.0456,-0.0844,-0.1179,-0.1767,-0.2659,-0.307,-0.3556,-0.4052,-0.4651,-0.4934,-0.4924,-0.5156,-0.5326,-0.5395,-0.5395,-0.5292,-0.5087,-0.4791,-0.4225,-0.3453,-0.2649,-0.1847,-0.1042,-0.0371,-0.0236,-0.0506,-0.1212,-0.2084,-0.3023,0.0,-0.4495,-0.5193,-0.5723,-0.5987,-0.6115,-0.6317,-0.6387,-0.6387,-0.6387,-0.6482,-0.6646,-0.6778,-0.7101,0.0,-0.7917,-0.8528,-0.9113,-0.96,-1.0174,-1.0688,-1.1028,-1.1216,-1.1365,-1.1622,-1.1716,-1.1809,-1.1941,-1.2058,-1.2182,0.0,-1.2398,-1.2398,-1.1926,-1.0975,-0.9932,-0.8935,-0.8166,-0.7484,-0.6826,-0.6404,-0.5947,-0.5422,-0.4824,-0.4259,-0.3689,-0.3761,-0.4064,-0.4655,-0.5613,-0.6474,-0.7199,-0.7907,-0.8387,-0.8751,-0.9581,-1.0545,-1.1583,-1.2472,-1.3395,-1.427,-1.4725,-1.5,-1.5147,-1.5284,-1.5517,-1.5885,-1.6324,-1.6937,-1.7634,0.0,0.0,0.0,0.0,0.0,0.0,0.0,0.0,0.0,0.0,0.0,0.0,0.0,0.0,0.0,0.0,-0.0186,-0.0419,-0.0744,-0.1036,-0.159,-0.2386,-0.2406,-0.2704,-0.3432,-0.3855,-0.4214,-0.4558,-0.4891,-0.5156,-0.5359,-0.5362,-0.5259,-0.5054,-0.4861,-0.4292,-0.3453,-0.2885,-0.2048,-0.1008,-0.0505,-0.0303,-0.0371,-0.1009,-0.1713,-0.2517,-0.3591,-0.4261,-0.4725,-0.5591,-0.5888,-0.5958,-0.6284,-0.6387,-0.6387,-0.6387,-0.6387,-0.6453,-0.6642,-0.6937,-0.7265,-0.7619,-0.8323,0.0,0.0,-1.004,-1.0661,-1.1007,-1.1202,-1.1397,-1.174,-1.1965,-1.222,-1.256,-1.2713,-1.2867,-1.3019,-1.3019,-1.2928,-1.2652,-1.1864,-1.0888,-0.9678,-0.9064,-0.8415,-0.7619,-0.733,-0.6839,-0.5987,-0.5594,-0.4994,-0.4095,-0.4231,-0.4495,-0.4815,-0.5679,-0.6474,-0.7199,-0.7665,-0.8052,-0.8407,-0.9145,-0.9989,-1.0929,-1.2062,-1.3021,-1.383,-1.4449,-1.4813,-1.5,-1.5156,-1.541,-1.5759,-1.6181,-1.7078,-1.8139,0.0,0.0,0.0,0.0,0.0,0.0,0.0,0.0,0.0,0.0,0.0,0.0,0.0,0.0,0.0,0.0,-0.0178,-0.0328,-0.0419,-0.095,-0.1374,-0.1594,-0.197,-0.2375,-0.2812,-0.3167,-0.3587,-0.3992,-0.4356,-0.4622,-0.4791,-0.4894,-0.4861,-0.4725,-0.4531,-0.3997,-0.3226,-0.2551,-0.1578,-0.0472,-0.0202,-0.0169,-0.0337,0.0,-0.1277,-0.1982,-0.3355,-0.4159,-0.4725,-0.5591,-0.5888,-0.5958,-0.6284,-0.6387,-0.6387,-0.6387,-0.6387,-0.6453,-0.6642,-0.6843,-0.707,-0.7394,-0.7829,-0.8287,0.0,0.0,0.0,-1.0367,-1.0891,-1.1397,-1.174,-1.1965,-1.2251,-1.2683,-1.2997,-1.3233,-1.3368,-1.3359,-1.3246,-1.2928,-1.2613,-1.1895,-1.0573,-0.9773,-0.9,-0.8296,-0.7749,-0.7167,-0.6544,-0.5881,-0.5319,-0.4824,-0.4625,-0.4761,-0.5256,-0.5815,-0.6412,-0.6975,-0.7448,-0.7778,-0.798,-0.8616,-0.9495,-1.0569,-1.1568,-1.2598,-1.3631,-1.4291,-1.4647,-1.4804,-1.5088,-1.5469,-1.5941,-1.6588,-1.7245,-1.7865,0.0,0.0,0.0,0.0,0.0,0.0,0.0,0.0,0.0,0.0,0.0,0.0,0.0,0.0,0.0,0.0,-0.0105,-0.0178,-0.0186,-0.0527,-0.0915,-0.1275,-0.1601,-0.1967,-0.2373,-0.2634,-0.2993,-0.3453,-0.3713,-0.3956,-0.4259,-0.4325,-0.4325,-0.4225,-0.3961,-0.346,-0.2787,-0.1812,-0.0975,-0.027,-0.0067,-0.0067,0.0,-0.0639,-0.1076,-0.1648,-0.2987,-0.3825,-0.4459,-0.5392,-0.5789,-0.5954,-0.6218,-0.635,-0.6387,-0.6387,-0.6387,-0.6416,-0.6548,-0.662,-0.6728,-0.6989,-0.73,-0.7659,-0.8084,-0.8723,-0.931,0.0,-1.036,-1.1041,0.0,-1.1897,-1.2243,-1.2713,-1.3019,-1.3202,-1.3277,-1.3277,-1.3186,-1.2928,-1.2836,-1.2398,-1.1334,-1.0446,-0.9588,-0.8786,-0.8139,-0.7489,-0.6741,-0.6214,-0.5752,-0.5319,-0.512,-0.5223,-0.5627,-0.6115,-0.6544,-0.6913,-0.7385,-0.7627,-0.7737,-0.8323,-0.9176,-1.0245,-1.1264,-1.2351,-1.345,-1.4151,-1.4538,-1.4745,-1.5059,-1.5439,-1.5884,-1.6418,-1.7022,-1.7673,0.0,0.0,0.0,0.0,0.0,0.0,0.0,0.0,0.0,0.0,0.0,0.0,0.0,0.0,0.0,0.0,0.0,0.0,0.0,-0.0037,-0.0376,-0.1136,-0.1237,-0.1471,-0.1972,-0.2103,-0.2407,-0.287,-0.2999,-0.3259,-0.3623,-0.3656,-0.3656,-0.3591,-0.3224,-0.272,-0.2115,-0.0974,-0.0404,-0.0236,-0.0067,0.0,-0.0067,-0.0538,-0.0941,-0.1378,-0.2452,-0.3324,-0.4128,-0.506,-0.5557,-0.5888,-0.6115,-0.628,-0.6383,-0.6387,-0.6387,-0.6383,-0.6388,-0.6366,-0.6392,-0.6524,-0.6754,-0.7062,-0.7381,-0.7978,-0.8556,-0.897,-0.9699,-1.0481,-1.1108,-1.1647,-1.2197,-1.2674,-1.2897,-1.2989,-1.2989,-1.2989,-1.2928,-1.2805,-1.2775,0.0,-1.1864,-1.1052,-1.0161,-0.9145,-0.856,-0.7809,-0.6806,-0.6548,-0.6218,-0.5683,-0.565,-0.5752,-0.5921,-0.6445,-0.6778,-0.6913,-0.7413,-0.7641,-0.7662,-0.8262,-0.9029,-0.9934,-1.1046,-1.2144,-1.3238,-1.3959,-1.4437,-1.4775,-1.5059,-1.5381,-1.5701,-1.5951,-1.6599,-1.7385,0.0,0.0,0.0,0.0,0.0,0.0,0.0,0.0,0.0,0.0,0.0,0.0,0.0,0.0,0.0,0.0,0.0,0.0,0.0,-0.0142,-0.0326,-0.0454,-0.0799,-0.1103,-0.1363,-0.1477,-0.1727,-0.2103,-0.2285,-0.2453,-0.2651,-0.2818,-0.2818,-0.2651,-0.2382,-0.1846,-0.1041,-0.0539,-0.0236,-0.0034,0.0,0.0,-0.0034,-0.0303,-0.0606,-0.1008,-0.1816,-0.2855,-0.3959,-0.4858,-0.5289,-0.5557,-0.605,-0.6214,-0.6247,-0.6383,-0.6387,-0.6384,-0.6265,-0.6236,-0.6231,-0.6193,-0.6234,-0.6339,-0.6559,-0.7158,-0.7779,-0.8125,-0.8994,-0.9775,-1.0168,0.0,-1.1888,-1.2543,-1.2744,-1.2867,-1.2989,-1.2989,-1.2897,-1.2652,-1.2652,-1.2406,-1.1833,-1.1264,-1.051,-0.9486,-0.8812,-0.8069,-0.7167,0.0,-0.6478,0.0,-0.5918,0.0,0.0,0.0,-0.6778,-0.6913,-0.759,-0.7926,-0.7959,-0.85,-0.9136,-0.9857,-1.0722,-1.1689,-1.2697,-1.3558,-1.4309,-1.4941,-1.5,-1.5196,-1.5478,-1.5691,-1.6009,-1.6475,0.0252,0.0253,0.0293,0.0449,0.0448,0.0484,0.0473,0.0466,0.038,0.0183,0.0216,0.0246,0.0203,0.0169,0.0101,0.0,0.0,0.0,0.0,-0.0104,-0.0178,-0.0296,-0.0489,-0.0686,-0.0887,-0.0942,-0.1138,-0.1503,-0.1567,-0.1739,-0.1982,-0.2083,-0.2083,-0.1982,-0.1578,-0.1109,-0.0539,-0.027,-0.0101,0.0,0.0,0.0,-0.0034,-0.0236,-0.0438,-0.0739,-0.1379,-0.2185,-0.3123,-0.409,-0.4725,-0.516,-0.5521,-0.5818,-0.6086,-0.6247,-0.6282,-0.629,-0.6232,-0.6041,-0.5887,-0.5947,-0.5945,-0.6016,-0.6246,-0.6766,-0.7285,-0.7582,-0.8369,-0.9229,-0.987,-1.0682,0.0,-1.1806,-1.2097,-1.2336,-1.2521,-1.2428,-1.2336,-1.2212,-1.212,-1.1934,-1.1584,-1.1303,-1.0762,-0.9831,-0.9134,-0.8333,-0.7396,0.0,-0.6646,0.0,0.0,0.0,-0.6317,0.0,-0.6843,-0.6913,-0.7661,-0.7987,-0.8019,-0.8538,-0.9113,-0.9678,-1.0521,-1.1406,-1.2328,-1.3428,-1.4279,-1.4843,-1.497,-1.5167,-1.541,-1.5507,-1.5691,-1.6009,0.0594,0.0636,0.0757,0.0941,0.1017,0.1048,0.1096,0.1145,0.1007,0.0475,0.0534,0.059,0.0473,0.0404,0.0236,0.0034,0.0,0.0,0.0,0.0,-0.0071,-0.0218,-0.0261,-0.0383,-0.0549,-0.0575,-0.0712,-0.0992,-0.1032,-0.1178,-0.1424,-0.1483,-0.1446,-0.1345,-0.0908,-0.0539,0.0,0.0,0.0,0.0,0.0,0.0,-0.0034,-0.0169,-0.0337,-0.0538,-0.1008,-0.1547,-0.2153,-0.309,-0.3925,-0.4628,-0.4924,-0.5289,-0.5723,-0.5984,-0.6056,-0.6073,-0.6068,-0.5856,-0.5633,-0.5743,-0.5735,-0.5761,-0.6031,-0.6404,-0.6801,-0.7078,-0.7819,-0.867,-0.9541,-1.011,0.0,-1.0936,-1.1289,-1.1603,-1.1825,-1.174,-1.1615,-1.1584,-1.149,-1.1373,-1.1185,-1.1178,-1.0888,-1.0117,-0.946,-0.8689,-0.7717,-0.7204,0.0,0.0,0.0,-0.6387,-0.6387,0.0,-0.6913,-0.6913,-0.7661,-0.7987,-0.8019,-0.8511,-0.899,-0.9454,-1.0268,-1.1212,-1.2259,-1.3428,-1.421,-1.4715,-1.4911,-1.5167,-1.541,-1.541,-1.5507,-1.572,0.0953,0.1083,0.124,0.1271,0.1423,0.1601,0.1761,0.2006,0.1825,0.0875,0.0926,0.0936,0.0708,0.0572,0.0336,0.0034,0.0,0.0,0.0,0.0,0.0,-0.0036,-0.0187,-0.0306,-0.0314,-0.0499,-0.0605,-0.0641,-0.0754,-0.084,-0.0872,-0.1055,-0.0942,-0.0607,-0.0438,0.0,0.0,0.0,0.0,0.0,0.0,0.0,0.0,-0.0034,-0.0135,-0.0371,-0.0706,-0.1076,-0.1446,-0.1918,-0.2889,-0.3992,-0.4492,-0.4761,-0.4994,-0.5517,-0.5664,-0.5668,-0.567,-0.564,-0.56,-0.5607,-0.5484,-0.5427,-0.5688,-0.5923,-0.6199,-0.6581,-0.7267,-0.7976,-0.8608,-0.8873,-0.928,0.0,-1.0437,-1.0645,-1.1041,-1.1083,-1.1021,-1.0902,-1.087,-1.0807,-1.0688,-1.0776,-1.0681,-1.0301,-0.9748,-0.9069,-0.8166,-0.7526,0.0,-0.6675,-0.6482,-0.6387,-0.6387,-0.6749,-0.6913,-0.6913,-0.7661,-0.7987,-0.8019,-0.8382,-0.87,-0.9081,-0.9767,-1.108,-1.2773,-1.3321,-1.3992,-1.4715,-1.4911,-1.5167,-1.541,-1.541,-1.541,-1.5449,0.2085,0.2212,0.2318,0.2409,0.2517,0.2637,0.2819,0.2922,0.2928,0.2812,0.2362,0.1938,0.1647,0.1445,0.1211,0.0875,0.0605,0.0438,0.0303,0.0242,0.0177,0.0182,0.0,-0.0115,-0.0118,-0.0195,-0.0307,-0.0416,-0.0482,-0.0542,-0.063,-0.0692,-0.0615,-0.0371,0.0,-0.0202,0.0,0.0,0.0,0.0,0.0,0.0,0.0,0.0,-0.0034,-0.0169,-0.0404,-0.0706,-0.1042,-0.1311,-0.2183,-0.3188,-0.3525,-0.3959,-0.4395,-0.4858,-0.5149,-0.5318,-0.5441,-0.5488,-0.5461,-0.5424,-0.5352,-0.5379,-0.5681,-0.5874,-0.6131,-0.657,-0.71,-0.7555,-0.787,-0.8205,-0.8626,-0.925,-0.9603,-0.9931,-1.0337,-1.0345,-1.025,-1.0225,-1.0098,-1.0002,-0.9939,-1.0168,-1.0238,-1.0021,-0.9811,-0.9294,-0.8425,-0.7749,0.0,-0.6708,0.0,-0.6387,-0.6387,-0.6749,-0.6913,-0.6913,-0.7661,-0.7987,-0.8019,-0.8349,-0.8797,-0.9332,-0.9939,-1.0881,-1.2066,-1.2658,-1.3329,-1.4022,-1.4369,-1.4784,-1.5167,-1.5254,-1.5332,-1.541,0.3079,0.3281,0.3424,0.3547,0.3614,0.3675,0.3724,0.3788,0.3951,0.42,0.3702,0.3153,0.2649,0.2318,0.1983,0.1647,0.1244,0.0945,0.0783,0.0664,0.0574,0.0479,0.034,0.0193,0.0079,0.0079,0.0,-0.023,-0.0266,-0.0334,-0.043,-0.0427,-0.0385,0.0,-0.0239,-0.0136,0.0,0.0,0.0,0.0,0.0,0.0,0.0,0.0,0.0,-0.0034,-0.0236,-0.0438,-0.0706,-0.0942,-0.1546,-0.2284,-0.2654,-0.3157,-0.3692,-0.4092,-0.4433,-0.475,-0.4955,-0.5103,-0.5174,-0.5171,-0.5187,-0.5261,-0.5553,-0.5742,-0.5999,-0.6499,-0.6874,-0.7144,-0.7246,-0.7603,-0.8003,-0.8352,0.0,-0.9199,-0.9556,-0.9597,-0.9556,-0.9556,-0.9396,-0.93,-0.93,-0.953,-0.9664,-0.9574,-0.9626,-0.9326,-0.8624,-0.7912,0.0,0.0,0.0,0.0,-0.6387,-0.6749,-0.6913,-0.6913,-0.7661,-0.7987,-0.8019,-0.8349,-0.8861,-0.946,-0.9945,-1.0611,-1.1389,-1.2081,-1.275,-1.3411,-1.3881,-1.4398,-1.4882,-1.5059,-1.5235,-1.5362,0.3786,0.4176,0.4471,0.4403,0.4545,0.4586,0.432,0.4617,0.4817,0.4629,0.4697,0.4461,0.3654,0.3054,0.2517,0.2114,0.1781,0.1531,0.1398,0.14,0.1253,0.0907,0.0891,0.0707,0.0314,0.0314,0.0196,0.0,-0.0192,-0.0303,-0.0302,-0.0295,-0.0287,-0.028,-0.0105,0.0,0.0,0.0,0.0,0.0,0.0,0.0,0.0,0.0,0.0,-0.0034,-0.0236,-0.0303,-0.0371,-0.0708,-0.0942,-0.1244,-0.1985,-0.2453,-0.2787,-0.3125,-0.3488,-0.3863,-0.4061,-0.4356,-0.465,-0.4858,-0.4908,-0.4954,-0.5164,-0.5365,-0.568,-0.6284,-0.6571,-0.6701,-0.6701,-0.6923,-0.7193,-0.7481,0.0,-0.8407,-0.869,-0.8894,-0.9017,-0.9017,-0.8894,-0.8802,-0.8802,-0.8926,-0.9017,-0.9017,-0.9177,-0.9151,-0.8802,-0.7982,0.0,-0.6913,-0.6585,0.0,-0.6387,-0.6749,-0.6913,-0.6913,-0.7661,-0.7987,-0.8019,-0.8349,-0.8797,-0.9338,-0.9652,-1.025,-1.1052,-1.1732,-1.2405,-1.307,-1.361,-1.4091,-1.4558,-1.4882,-1.5098,-1.5215,0.5185,0.5258,0.5283,0.5401,0.5359,0.5275,0.5125,0.5231,0.5277,0.5165,0.5193,0.506,0.4655,0.412,0.3585,0.3084,0.2901,0.2702,0.2449,0.2262,0.21,0.2003,0.1742,0.1451,0.1176,0.106,0.0786,0.0393,0.0,0.0,0.0,-0.0111,-0.0108,-0.0105,-0.0035,0.0,0.0,0.0,0.0,0.0,0.0,0.0,0.0,0.0,0.0,0.0,-0.0067,-0.0169,-0.0303,-0.0438,-0.064,-0.0943,-0.1179,-0.1649,-0.2218,-0.2552,-0.2935,-0.3342,-0.3678,-0.3997,-0.4308,-0.4552,-0.459,-0.4673,-0.5165,-0.5628,-0.604,-0.6213,-0.6495,-0.6701,-0.6701,-0.6756,-0.6939,-0.7293,-0.7506,0.0,-0.8297,-0.8323,-0.8339,-0.8431,-0.8339,-0.8247,-0.8247,-0.8371,-0.8463,-0.8463,-0.8528,-0.856,-0.8592,0.0,0.0,0.0,-0.6585,0.0,-0.6387,-0.6749,-0.6913,-0.6913,-0.7498,-0.7922,-0.8139,-0.8242,-0.8598,-0.9113,-0.946,-0.9939,-1.0586,-1.1146,-1.1709,-1.2228,-1.2728,-1.3368,-1.4061,-1.4508,-1.4872,-1.5215,0.6131,0.6128,0.6125,0.6247,0.6173,0.6058,0.5928,0.5928,0.5875,0.5799,0.5767,0.5696,0.5491,0.518,0.0,0.4055,0.3911,0.3777,0.3564,0.3378,0.3224,0.3101,0.2798,0.2468,0.2154,0.1883,0.0,0.1099,0.0707,0.0429,0.023,0.0227,0.0222,0.0217,0.0145,0.0107,0.0104,0.0034,0.0,0.0,0.0,0.0,0.0,0.0,0.0,0.0,0.0,-0.0067,-0.0202,-0.027,-0.0472,-0.0708,-0.0776,-0.1179,-0.1648,-0.1914,-0.2318,-0.2762,-0.3012,-0.3383,-0.3799,-0.4121,-0.4268,-0.4482,-0.5164,-0.5602,-0.5896,-0.6028,-0.625,-0.6436,-0.6436,-0.6512,-0.6714,-0.7041,-0.7229,-0.7471,-0.8027,-0.8028,-0.8047,-0.8172,-0.8014,-0.7857,-0.7819,-0.7949,-0.7982,-0.7944,-0.8042,0.0,0.0,0.0,0.0,-0.6843,-0.6552,-0.6387,-0.6387,-0.6749,-0.6913,-0.6913,-0.7438,-0.7889,-0.8204,-0.8204,-0.8495,-0.9017,-0.93,-0.9722,-1.0238,-1.0713,-1.1185,-1.1646,-1.2143,-1.2881,-1.367,-1.421,-1.4695,-1.5147,0.6718,0.683,0.698,0.698,0.6942,0.6885,0.669,0.6663,0.6603,0.6435,0.6412,0.6341,0.6133,0.6144,0.5805,0.4999,0.0,0.0,0.4672,0.4651,0.451,0.4181,0.3995,0.3682,0.321,0.2821,0.2392,0.196,0.1295,0.0864,0.0667,0.0668,0.0659,0.0644,0.0454,0.0373,0.0327,0.0142,0.007,0.0035,0.0034,0.0034,0.0034,0.0034,0.0034,0.0034,0.0034,0.0034,0.0,-0.0202,-0.037,-0.0538,-0.0707,-0.0942,-0.1109,-0.1277,-0.1715,-0.2174,-0.2178,-0.2617,-0.3147,-0.3546,-0.3923,-0.4387,-0.5105,-0.528,-0.5391,-0.5733,-0.59,-0.5978,-0.5991,-0.6214,-0.6478,-0.6763,-0.7086,-0.7416,-0.783,-0.7919,-0.8014,-0.8139,0.0,0.0,-0.7493,-0.7596,-0.7596,0.0,-0.7754,0.0,0.0,0.0,-0.704,-0.6708,-0.6515,-0.6387,-0.6387,-0.6716,-0.6913,-0.6913,-0.7438,-0.7857,-0.8172,-0.8172,-0.8495,-0.9017,-0.921,-0.9562,-1.0015,-1.0434,-1.087,-1.1341,-1.1872,-1.2544,-1.3329,-1.3941,-1.4488,-1.5,0.0,0.0,0.7591,0.7591,0.748,0.7309,0.7166,0.7138,0.7,0.6678,0.6619,0.6551,0.6344,0.6419,0.6408,0.6185,0.5731,0.543,0.528,0.5184,0.5096,0.5004,0.481,0.4577,0.4345,0.3915,0.329,0.2353,0.1883,0.1568,0.1372,0.1217,0.1124,0.1136,0.1098,0.0934,0.0765,0.0724,0.0607,0.0455,0.0452,0.0412,0.0371,0.0371,0.0371,0.0371,0.0371,0.0332,0.0229,0.0167,-0.0133,-0.0524,-0.0569,-0.0808,-0.1109,-0.1277,-0.1513,-0.1772,-0.1982,-0.2302,-0.2661,-0.3078,-0.3695,-0.4304,-0.4746,-0.5074,-0.5358,-0.5586,-0.5763,-0.589,-0.6036,-0.6209,-0.6443,-0.6829,-0.7085,-0.7341,-0.7688,-0.766,-0.7657,0.0,-0.7657,-0.7461,-0.7297,-0.7302,-0.7237,0.0,0.0,-0.7073,-0.6905,-0.6839,-0.6773,-0.6708,-0.6515,-0.6387,-0.6387,-0.6646,-0.6872,-0.7138,-0.7269,-0.7563,-0.8047,-0.8047,-0.8404,-0.9017,-0.921,-0.9562,-1.0015,-1.0269,-1.0681,-1.1185,-1.156,-1.2212,-1.2981,-1.3489,-1.4052,-1.4656,0.8102,0.8021,0.794,0.794,0.7829,0.7757,0.7693,0.7676,0.7601,0.7389,0.7339,0.7265,0.7077,0.709,0.7074,0.6889,0.6504,0.6201,0.6129,0.6088,0.5977,0.5902,0.5709,0.5476,0.5243,0.4851,0.4226,0.337,0.2978,0.2649,0.2389,0.2184,0.2092,0.2082,0.2028,0.187,0.162,0.1527,0.136,0.1195,0.1132,0.1077,0.1028,0.1015,0.101,0.101,0.101,0.09,0.0757,0.0758,0.0395,-0.0066,-0.0165,-0.0433,-0.0774,-0.101,-0.1244,-0.1508,-0.165,-0.1931,-0.2335,-0.2882,-0.3411,-0.3944,-0.4387,-0.4715,-0.4991,-0.5234,-0.5441,-0.5643,-0.5825,-0.6059,-0.6369,-0.6831,-0.7006,-0.7202,-0.7637,-0.7591,-0.7559,-0.7699,-0.7591,-0.7396,-0.7106,-0.7138,-0.7106,-0.6843,-0.6881,0.0,-0.6708,-0.6708,-0.6675,-0.6576,-0.6449,-0.6387,-0.6387,-0.6609,-0.6872,-0.7204,-0.7204,-0.7498,-0.7987,-0.7987,-0.8371,-0.9017,-0.9113,-0.9466,-1.0015,-1.011,-1.0491,-1.0996,-1.1341,-1.1872,-1.2482,-1.3047,-1.3593,-1.4112,0.8293,0.8293,0.8293,0.8293,0.8293,0.8331,0.8331,0.8369,0.8369,0.8331,0.8331,0.825,0.8012,0.797,0.7821,0.745,0.7288,0.7092,0.6903,0.6903,0.6826,0.6637,0.649,0.6293,0.6054,0.567,0.5201,0.4618,0.4268,0.3906,0.3549,0.3392,0.3306,0.3236,0.3083,0.2921,0.2727,0.2527,0.2313,0.2107,0.194,0.1863,0.1887,0.1801,0.1782,0.1782,0.1782,0.1642,0.1464,0.1429,0.1077,0.0595,0.0388,0.0098,-0.0201,-0.0536,-0.0872,-0.1143,-0.1277,-0.1613,-0.2099,-0.2731,-0.3071,-0.3434,-0.3972,-0.4251,-0.4472,-0.4748,-0.5005,-0.5224,-0.5426,-0.5725,-0.6131,-0.6669,-0.6768,-0.6949,-0.7447,0.0,-0.7428,-0.7531,-0.7461,-0.7265,-0.6913,-0.704,-0.7003,-0.6675,-0.6749,-0.6782,-0.6675,-0.6642,-0.6576,-0.642,-0.6387,-0.6387,-0.6387,-0.6576,-0.6806,-0.7138,-0.7138,-0.7466,-0.7987,-0.7987,-0.8371,-0.8985,-0.8985,-0.937,-0.9983,-0.9983,-1.0301,-1.0807,-1.1153,-1.1553,-1.2011,-1.2589,-1.3047,-1.342,0.9094,0.9094,0.9094,0.9094,0.9246,0.9354,0.9354,0.9506,0.9544,0.9392,0.9354,0.9236,0.8851,0.8813,0.8737,0.8475,0.8432,0.7974,0.698,0.6903,0.6899,0.6865,0.6826,0.6788,0.6749,0.6521,0.6173,0.5667,0.5431,0.5133,0.4747,0.4538,0.4375,0.4281,0.4204,0.4022,0.3835,0.3635,0.3388,0.3126,0.282,0.2714,0.2687,0.258,0.2519,0.2519,0.2519,0.2413,0.22,0.1967,0.1652,0.1279,0.0901,0.0665,0.0486,0.013,-0.0066,-0.037,-0.1109,-0.1515,-0.1854,-0.2222,-0.2527,-0.2879,-0.3542,-0.3816,-0.3996,-0.4324,-0.4432,-0.4543,-0.4856,-0.5115,-0.5431,-0.5956,-0.6142,-0.6314,-0.6576,0.0,-0.6839,-0.6839,-0.6942,-0.6909,-0.6741,-0.6773,-0.6675,-0.6449,-0.6449,-0.6482,-0.6449,-0.6449,-0.6416,-0.6387,-0.6387,-0.6387,-0.6387,-0.6416,-0.6613,-0.6946,-0.6946,-0.7302,-0.7987,-0.7987,-0.8371,-0.8985,-0.8985,-0.9312,-0.9836,-0.9951,-1.0238,-1.0649,-1.0996,-1.1341,-1.1685,-1.1895,-1.2266,-1.2728,0.9954,0.9954,0.9954,0.9954,1.003,1.0105,1.0218,1.0331,1.0406,1.0406,1.0406,1.0325,1.0169,1.0019,0.9906,0.9669,0.9566,0.9226,0.8571,0.8118,0.7821,0.771,0.7595,0.7407,0.7061,0.6988,0.6753,0.644,0.6247,0.5939,0.5579,0.5467,0.528,0.5059,0.5188,0.5162,0.4943,0.4955,0.4781,0.4566,0.4378,0.4235,0.4126,0.4018,0.3936,0.3818,0.3754,0.359,0.337,0.3014,0.2704,0.2379,0.1908,0.1625,0.1353,0.0912,0.0292,-0.0403,-0.1008,-0.1351,-0.1543,-0.1869,-0.2088,-0.2339,-0.2799,-0.3075,-0.332,-0.3564,-0.3732,-0.3948,-0.42,-0.4487,-0.4813,-0.5239,-0.5451,0.0,-0.5918,-0.6046,-0.6178,-0.6342,-0.6441,-0.6445,-0.6441,-0.6511,-0.6482,-0.6317,-0.635,-0.6387,-0.6387,-0.6387,-0.6387,-0.6387,-0.6387,-0.6387,-0.6387,-0.6387,-0.6585,-0.6913,-0.6913,-0.7237,-0.7857,-0.7954,-0.8279,-0.8732,-0.892,-0.9242,-0.9658,-0.983,-1.0117,-1.046,-1.0719,-1.0965,-1.1216,-1.1428,-1.1677,-1.1895,1.085,1.0812,1.0775,1.085,1.0887,1.0999,1.1186,1.126,1.1335,1.1484,1.1521,1.1484,1.1446,1.1298,1.1143,1.0938,1.0769,1.0619,1.0458,0.9863,0.9301,0.8775,0.8513,0.8136,0.7638,0.7561,0.7484,0.7322,0.7134,0.687,0.6548,0.6452,0.6252,0.5996,0.624,0.625,0.6105,0.6186,0.6131,0.596,0.5811,0.5672,0.5464,0.5319,0.5175,0.4984,0.4824,0.4691,0.4488,0.4076,0.3765,0.3494,0.2924,0.2597,0.2316,0.1827,0.0921,-0.0067,-0.0671,-0.0961,-0.1141,-0.1465,-0.1632,-0.1793,-0.2141,-0.2422,-0.264,-0.2798,-0.3007,-0.3247,-0.3441,-0.3732,-0.4054,-0.4386,0.0,-0.4821,0.0,-0.5249,-0.5382,-0.5646,-0.5778,-0.5881,-0.5947,-0.6115,-0.6181,-0.6079,-0.6181,-0.6284,-0.6284,-0.6284,-0.6284,-0.6284,-0.6354,-0.6387,-0.6387,-0.6387,-0.6552,-0.6848,-0.6881,-0.7176,-0.7661,-0.7889,-0.8182,-0.8511,-0.8829,-0.9113,-0.939,-0.9632,-0.9888,-1.0142,-1.0434,-1.0586,-1.0713,-1.1021,-1.1146,-1.124,1.1892,1.1744,1.1669,1.1855,1.204,1.2224,1.2452,1.2636,1.2746,1.2783,1.2783,1.2709,1.2526,1.2489,1.2378,1.2187,1.215,1.215,1.2114,1.2077,1.136,0.9857,0.941,0.9112,0.8889,0.8699,0.8589,0.8546,0.836,0.8176,0.796,0.7757,0.7588,0.7446,0.7391,0.7364,0.7339,0.7183,0.7103,0.7049,0.672,0.6481,0.6286,0.5954,0.5721,0.5517,0.5392,0.5329,0.5236,0.4788,0.4534,0.4318,0.3701,0.3409,0.3243,0.2947,0.2339,0.1459,0.0233,-0.0235,-0.0504,-0.1006,-0.1138,-0.1303,-0.1805,-0.1939,-0.2006,-0.2207,-0.2278,-0.2347,-0.2476,-0.2681,-0.2921,-0.3259,0.0,0.0,-0.3889,-0.4187,-0.442,-0.442,-0.4885,-0.5186,-0.5186,-0.5484,-0.565,-0.565,-0.5818,-0.5921,-0.5921,-0.5921,-0.5921,-0.5921,-0.6251,-0.6387,-0.6387,-0.6387,-0.6515,-0.6708,-0.6843,-0.7106,-0.7526,-0.7852,-0.8182,-0.8517,-0.8738,-0.8894,-0.9049,-0.9396,-0.955,-0.9614,-1.0104,-1.0339,-1.0371,-1.0555,-1.0713,-1.0863,1.3288,1.3244,1.3208,1.3288,1.3361,1.347,1.3615,1.3724,1.3804,1.3949,1.3949,1.3912,1.384,1.3724,1.3615,1.3542,1.3361,1.3215,1.3215,1.3112,1.2445,1.1062,1.0875,1.0539,0.9933,0.9857,0.9707,0.9448,0.9372,0.9148,0.8827,0.8644,0.8387,0.8165,0.8088,0.807,0.8042,0.7976,0.7944,0.794,0.7677,0.7459,0.7236,0.6991,0.6806,0.663,0.632,0.6119,0.5965,0.5574,0.535,0.5175,0.472,0.4408,0.4106,0.3579,0.3159,0.2671,0.1871,0.1027,0.0269,-0.0134,-0.0235,-0.0336,-0.0808,-0.1076,-0.1277,-0.148,-0.1681,-0.1849,-0.1882,-0.2083,-0.2285,-0.2522,0.0,-0.2924,-0.3257,-0.3422,-0.3556,-0.3787,-0.3987,-0.4154,-0.4289,-0.4586,-0.4785,-0.4785,-0.505,-0.5216,-0.5216,-0.5216,-0.5216,-0.5216,-0.5348,-0.5617,-0.6086,-0.5951,-0.6083,-0.6375,-0.6445,-0.6642,-0.6999,-0.7237,-0.7531,-0.7884,-0.8182,-0.8447,-0.8705,-0.8958,-0.9236,-0.9518,-0.9716,-0.9945,-1.0142,-1.0339,-1.0466,-1.0523,1.4525,1.4489,1.4453,1.4525,1.4489,1.4489,1.4669,1.4625,1.4633,1.4776,1.4784,1.4784,1.4784,1.4669,1.4589,1.4589,1.4374,1.423,1.423,1.4093,1.3477,1.2224,1.2114,1.1774,1.1168,1.1093,1.0944,1.0645,1.0602,1.0404,1.0067,0.9847,0.9577,0.9216,0.916,0.9121,0.9057,0.8982,0.897,0.8932,0.8746,0.8543,0.8327,0.7991,0.7753,0.7473,0.7008,0.6745,0.6531,0.6242,0.6069,0.5907,0.5601,0.5269,0.4895,0.4348,0.4039,0.3741,0.3221,0.2445,0.1627,0.0904,0.0671,0.0504,0.0135,-0.0168,-0.0437,-0.0638,-0.0908,-0.111,-0.1178,-0.1345,-0.1547,-0.1817,-0.1951,-0.2186,-0.2587,-0.2721,-0.2855,-0.3121,-0.3255,-0.3389,-0.3525,-0.3856,-0.4054,-0.4054,-0.4251,-0.4348,-0.4314,-0.4314,-0.4314,-0.4314,-0.4251,-0.4483,-0.505,-0.5249,-0.5481,-0.5745,-0.5881,-0.6083,-0.6313,-0.6548,-0.6839,-0.7158,-0.7521,-0.7819,-0.8122,-0.8414,-0.8727,-0.9037,-0.9204,-0.9434,-0.9728,-0.9951,-1.0079,-1.018,1.5497,1.5346,1.5267,1.5453,1.5338,1.5267,1.5453,1.5346,1.5196,1.5196,1.5196,1.5196,1.5196,1.5196,1.5196,1.5196,1.5196,1.5196,1.5204,1.5204,1.4625,1.3266,1.301,1.2826,1.2636,1.2415,1.2335,1.2298,1.2094,1.1909,1.1706,1.1502,1.1205,1.0812,1.0812,1.07,1.0513,1.0293,1.0218,1.018,0.9992,0.9771,0.9529,0.8953,0.8448,0.802,0.7442,0.7077,0.6881,0.6741,0.6621,0.6476,0.6274,0.5991,0.5637,0.5319,0.5059,0.478,0.4083,0.3964,0.3625,0.203,0.1477,0.1244,0.0908,0.0672,0.047,0.0336,0.0134,-0.0067,-0.027,-0.0404,-0.0638,-0.1042,-0.121,-0.1446,-0.185,-0.2052,-0.2255,-0.2391,-0.2757,-0.2989,-0.2989,-0.3288,-0.3487,-0.3487,-0.3487,-0.3384,-0.3215,-0.3182,-0.3182,-0.3182,-0.3054,-0.3054,-0.3182,-0.4248,-0.4782,-0.4782,-0.519,-0.5395,-0.5395,-0.5881,-0.6207,-0.64,-0.6728,-0.6994,-0.7232,-0.7759,-0.7987,-0.8052,-0.8576,-0.8861,-0.9017,-0.9358,-0.9626,-0.9804,1.5919,1.59,1.5854,1.5479,1.5393,1.5326,1.5217,1.5184,1.5117,1.5117,1.5117,1.5117,1.5117,1.5117,1.5117,1.5117,1.53,1.5462,1.5604,1.5621,1.5444,1.5054,1.4561,1.4129,1.3796,1.3724,1.3651,1.3542,1.3353,1.3164,1.2952,1.2622,1.2298,1.2077,1.1929,1.1744,1.1558,1.1335,1.1186,1.1037,1.0812,1.0616,1.0407,1.0083,0.9585,0.9031,0.857,0.8085,0.7629,0.7466,0.7326,0.7182,0.7133,0.7044,0.6863,0.6382,0.6096,0.5824,0.5317,0.5092,0.4623,0.3146,0.2711,0.2554,0.2216,0.1812,0.1442,0.1241,0.0974,0.0706,0.0505,0.0437,0.0235,-0.0235,-0.037,-0.0571,-0.1042,-0.1176,-0.1311,-0.158,-0.1747,-0.1848,-0.2017,-0.2252,-0.2386,-0.2386,-0.2386,-0.2351,-0.2284,-0.215,-0.2082,-0.2082,-0.2049,-0.2049,-0.2082,-0.3052,-0.3587,-0.3682,-0.3954,-0.4156,-0.4292,-0.4517,-0.4878,-0.5276,-0.5547,-0.5877,-0.6301,-0.6728,-0.7022,-0.7256,-0.7559,-0.7847,-0.8129,-0.8619,-0.892,-0.9157,1.6501,1.647,1.6317,1.5813,1.5633,1.5569,1.5431,1.5501,1.5576,1.5576,1.5701,1.58,1.58,1.58,1.58,1.58,1.5956,1.6094,1.621,1.6228,1.6228,1.6228,1.5806,1.5311,1.4776,1.4776,1.4705,1.4525,1.441,1.4266,1.4049,1.3804,1.355,1.3288,1.3142,1.2996,1.2813,1.2629,1.2475,1.2328,1.2144,1.1916,1.1736,1.1412,1.0814,1.01,0.9614,0.9036,0.8468,0.8279,0.8144,0.8118,0.817,0.8091,0.7886,0.7532,0.7224,0.693,0.6423,0.6204,0.5876,0.4896,0.423,0.3756,0.3522,0.3084,0.2679,0.2514,0.2179,0.1879,0.1677,0.1577,0.1376,0.0839,0.0671,0.0403,-0.0202,-0.0302,-0.0437,-0.084,-0.0908,-0.1008,-0.1244,-0.1379,-0.148,-0.148,-0.148,-0.1446,-0.1347,-0.1178,-0.1077,-0.1077,-0.1008,-0.0975,-0.0975,-0.1545,-0.2115,-0.2684,-0.285,-0.3052,-0.3255,-0.3418,-0.3718,-0.4187,-0.4386,-0.4716,-0.5173,-0.5606,-0.5903,-0.61,-0.6338,-0.6662,-0.7051,-0.7605,-0.7934,-0.8236,1.7242,1.6971,1.6697,1.6246,1.6071,1.5985,1.5954,1.6221,1.6391,1.6391,1.6714,1.6936,1.6936,1.6936,1.6936,1.6936,1.6964,1.7001,1.7038,1.7038,1.7038,1.7038,1.6855,1.6429,1.5744,1.5603,1.5497,1.5311,1.5275,1.5177,1.5015,1.5007,1.4784,1.4446,1.4418,1.4346,1.4201,1.3977,1.3905,1.3869,1.368,1.3491,1.3237,1.2806,1.2116,1.1307,1.0715,1.0046,0.9458,0.9215,0.9145,0.9177,0.937,0.9198,0.8852,0.8706,0.8415,0.8057,0.7542,0.7384,0.7288,0.6957,0.5992,0.5047,0.4788,0.442,0.4084,0.3956,0.362,0.3282,0.308,0.295,0.2684,0.2179,0.191,0.1542,0.0806,0.0706,0.0504,-0.0067,-0.0134,-0.0269,-0.0638,-0.0672,-0.0672,-0.0672,-0.0672,-0.0572,-0.0404,-0.0236,-0.0169,-0.0169,0.0034,0.0134,0.0134,0.0134,-0.0504,-0.1749,-0.188,-0.2047,-0.2249,-0.2484,-0.2755,-0.3058,-0.3288,-0.3551,-0.3915,-0.4447,-0.4649,-0.4683,-0.5044,-0.5408,-0.5837,-0.6359,-0.6785,-0.7149,1.7644,1.7225,1.6769,1.6226,1.6397,1.6567,1.6476,1.6822,1.7078,1.7078,1.7157,1.7206,1.7206,1.7206,1.7206,1.7206,1.7513,1.7816,1.8118,1.8138,1.8138,1.8138,1.8104,1.7891,1.7457,1.6577,1.6096,1.6061,1.5956,1.5885,1.585,1.5665,1.5551,1.548,1.5311,1.5141,1.4955,1.4748,1.4569,1.4418,1.4382,1.4238,1.4042,1.3966,1.3517,1.284,1.2132,1.1521,1.0997,1.0379,1.018,1.0199,1.0421,1.0421,1.0275,0.9983,0.9743,0.9472,0.8966,0.8742,0.8558,0.834,0.7862,0.7181,0.6042,0.5422,0.5093,0.506,0.4719,0.4417,0.4253,0.4223,0.4054,0.3616,0.3418,0.3117,0.2479,0.2281,0.198,0.1274,0.1173,0.1006,0.0504,0.0302,0.0202,0.0202,0.037,0.0471,0.0504,0.0807,0.0942,0.0942,0.1144,0.1244,0.1244,0.1109,0.0471,-0.064,-0.0773,-0.0941,-0.1142,-0.1479,-0.1714,-0.1983,-0.2319,-0.2586,-0.2783,-0.3322,-0.3558,-0.3591,-0.399,-0.4353,-0.4719,-0.5246,-0.5646,-0.6038,1.7967,1.7738,1.7461,1.6882,1.7184,1.7487,1.7427,1.7781,1.8072,1.8072,1.8248,1.8425,1.8478,1.8478,1.8478,1.8478,1.8687,1.8894,1.9123,1.911,1.9166,1.9276,1.91,1.8934,1.8767,1.7993,1.7329,1.6821,1.6751,1.6726,1.6726,1.6603,1.6568,1.6568,1.6438,1.6298,1.6149,1.5956,1.5736,1.5551,1.5382,1.524,1.5133,1.507,1.4665,1.4085,1.3545,1.2784,1.1995,1.142,1.1226,1.1233,1.1459,1.1459,1.1334,1.1163,1.1,1.078,1.0445,1.0161,0.9907,0.9755,0.9378,0.8705,0.7414,0.6798,0.647,0.6408,0.6145,0.5877,0.565,0.5514,0.5345,0.4978,0.4719,0.4389,0.388,0.3685,0.3384,0.2811,0.2679,0.2415,0.178,0.151,0.1376,0.1276,0.1376,0.1477,0.1544,0.1813,0.1981,0.2047,0.2248,0.2316,0.2285,0.215,0.1747,0.0975,0.0403,-0.0034,-0.0269,-0.047,-0.0739,-0.1076,-0.1311,-0.1579,-0.1914,-0.2285,-0.2488,-0.2622,-0.2991,-0.3288,-0.3587,-0.4154,-0.4719,-0.5279,1.8518,1.8453,1.8455,1.8031,1.8398,1.8755,1.8755,1.9116,1.9347,1.9347,1.9684,1.9977,2.0096,2.0096,2.0096,2.0096,2.0096,2.0096,2.0096,2.0096,2.0193,2.0355,2.0085,1.9922,1.9922,1.9595,1.8834,1.7681,1.7681,1.7681,1.7681,1.7681,1.7681,1.7681,1.7647,1.7579,1.7398,1.7166,1.6959,1.6742,1.6403,1.6307,1.6272,1.6079,1.5704,1.5266,1.4916,1.4014,1.2963,1.2617,1.2453,1.2406,1.2546,1.2437,1.2228,1.2166,1.2081,1.1926,1.1748,1.1454,1.1212,1.1087,1.0685,1.0053,0.9,0.8355,0.7929,0.7777,0.7587,0.7358,0.7031,0.6798,0.6564,0.6268,0.5914,0.5554,0.518,0.4984,0.4752,0.4314,0.4118,0.3787,0.3186,0.2917,0.275,0.2581,0.2547,0.2648,0.2817,0.3017,0.3151,0.3278,0.3447,0.3518,0.3389,0.3322,0.3153,0.2783,0.1846,0.1108,0.0571,0.0504,0.0202,-0.0235,-0.0336,-0.0605,-0.1042,-0.1311,-0.1513,-0.1681,-0.2053,-0.2321,-0.2586,-0.3119,-0.3818,-0.455,2.0005,1.9631,1.9405,1.9779,2.0239,2.0559,2.0559,2.0935,2.1217,2.1217,2.1287,2.1333,2.1365,2.1365,2.1365,2.1365,2.1365,2.1365,2.1365,2.1365,2.1365,2.1396,2.1353,2.127,2.1167,2.1092,2.0312,1.8777,1.8777,1.8777,1.8777,1.8777,1.8777,1.8777,1.8667,1.8499,1.8307,1.8003,1.774,1.7535,1.7201,1.7063,1.7028,1.683,1.6698,1.6564,1.6066,1.5347,1.4668,1.4616,1.4296,1.3905,1.3859,1.3507,1.3086,1.292,1.2767,1.2613,1.2421,1.2236,1.2112,1.2112,1.1833,1.1483,1.1132,1.004,0.902,0.8828,0.864,0.8388,0.8069,0.7879,0.7722,0.7498,0.7167,0.6839,0.6507,0.6272,0.5972,0.5448,0.511,0.4872,0.4773,0.458,0.4447,0.4447,0.4447,0.4447,0.448,0.4677,0.4773,0.4806,0.4942,0.5008,0.4978,0.4713,0.4517,0.448,0.4051,0.3082,0.1677,0.131,0.1076,0.0874,0.0403,0.0134,0.0034,-0.0437,-0.0672,-0.0739,-0.1244,-0.158,-0.1816,-0.235,-0.2919,-0.3426,2.0225,2.0418,2.0684,2.0842,2.1284,2.1641,2.1641,2.1801,2.1944,2.1944,2.1944,2.1963,2.2056,2.2149,2.218,2.2056,2.2056,2.2056,2.2056,2.2056,2.2087,2.2211,2.2118,2.2025,2.1975,2.1882,2.1494,2.0784,2.0376,2.0182,2.0182,2.0182,2.0182,2.0182,2.0117,1.9944,1.9639,1.9332,1.8934,1.8543,1.8104,1.7935,1.7901,1.7706,1.7706,1.7716,1.7182,1.6708,1.629,1.6002,1.5679,1.5341,1.5224,1.4733,1.4175,1.4092,1.3791,1.3437,1.3368,1.3155,1.2964,1.2964,1.2666,1.2336,1.2236,1.1632,1.0867,1.0148,0.9926,0.9735,0.9288,0.9102,0.8914,0.863,0.8269,0.7967,0.7744,0.7544,0.7251,0.6826,0.656,0.6363,0.6129,0.5972,0.5807,0.5705,0.5576,0.5576,0.5672,0.5672,0.5708,0.5811,0.5877,0.5844,0.5741,0.5609,0.5481,0.5418,0.5253,0.445,0.308,0.2817,0.2482,0.2079,0.1644,0.1308,0.1006,0.0571,0.0336,0.0168,-0.037,-0.0807,-0.121,-0.1613,-0.2016,-0.2353]}]]